<?xml version="1.0" encoding="UTF-8" standalone="no" ?>
<gpx xmlns="http://www.topografix.com/GPX/1/1" xmlns:gpxx="http://www.garmin.com/xmlschemas/GpxExtensions/v3" xmlns:gpxtpx="http://www.garmin.com/xmlschemas/TrackPointExtension/v1" creator="https://www.mapstogpx.com/strava" version="1.1" xmlns:xsi="http://www.w3.org/2001/XMLSchema-instance" xsi:schemaLocation="http://www.topografix.com/GPX/1/1 http://www.topografix.com/GPX/1/1/gpx.xsd http://www.garmin.com/xmlschemas/GpxExtensions/v3 http://www.garmin.com/xmlschemas/GpxExtensionsv3.xsd http://www.garmin.com/xmlschemas/TrackPointExtension/v1 http://www.garmin.com/xmlschemas/TrackPointExtensionv1.xsd" xmlns:gpxdata="http://www.cluetrust.com/XML/GPXDATA/1/0">
 <metadata>
  <name>Arkov_afuh</name>
  <author>
   <name></name>
   <link href="https://www.strava.com/activities/2898968280/"/>
  </author>
  <link href="https://www.mapstogpx.com/strava" />
  <time>2020-03-22T18:16:00Z</time>
 </metadata>
 <trk>
  <name>Arkov_afuh</name>
  <link href="https://www.strava.com/activities/2898968280/"/>
  <number>1</number>
  <trkseg>
   <trkpt lat="30.792353" lon="34.76882"><ele>538.8</ele><name>TP00001</name><time>2020-03-15T18:16:00Z</time></trkpt>
   <trkpt lat="30.792353" lon="34.76882"><ele>539.8</ele><name>TP00002</name><time>2020-03-15T18:16:01Z</time></trkpt>
   <trkpt lat="30.792288" lon="34.768806"><ele>539.6</ele><name>TP00003</name><time>2020-03-15T18:16:08Z</time></trkpt>
   <trkpt lat="30.792191" lon="34.768569"><ele>539.4</ele><name>TP00004</name><time>2020-03-15T18:16:16Z</time></trkpt>
   <trkpt lat="30.792172" lon="34.768545"><ele>539.4</ele><name>TP00005</name><time>2020-03-15T18:16:17Z</time></trkpt>
   <trkpt lat="30.79215" lon="34.768525"><ele>539.4</ele><name>TP00006</name><time>2020-03-15T18:16:18Z</time></trkpt>
   <trkpt lat="30.792127" lon="34.768509"><ele>539.2</ele><name>TP00007</name><time>2020-03-15T18:16:19Z</time></trkpt>
   <trkpt lat="30.792083" lon="34.768484"><ele>539</ele><name>TP00008</name><time>2020-03-15T18:16:21Z</time></trkpt>
   <trkpt lat="30.79201" lon="34.768454"><ele>539</ele><name>TP00009</name><time>2020-03-15T18:16:24Z</time></trkpt>
   <trkpt lat="30.791898" lon="34.768395"><ele>538.8</ele><name>TP00010</name><time>2020-03-15T18:16:28Z</time></trkpt>
   <trkpt lat="30.791847" lon="34.768356"><ele>538.6</ele><name>TP00011</name><time>2020-03-15T18:16:31Z</time></trkpt>
   <trkpt lat="30.791732" lon="34.76822"><ele>538.4</ele><name>TP00012</name><time>2020-03-15T18:16:38Z</time></trkpt>
   <trkpt lat="30.791739" lon="34.768024"><ele>537.8</ele><name>TP00013</name><time>2020-03-15T18:16:43Z</time></trkpt>
   <trkpt lat="30.791737" lon="34.767939"><ele>537.6</ele><name>TP00014</name><time>2020-03-15T18:16:48Z</time></trkpt>
   <trkpt lat="30.791746" lon="34.767924"><ele>537.6</ele><name>TP00015</name><time>2020-03-15T18:16:49Z</time></trkpt>
   <trkpt lat="30.791657" lon="34.767832"><ele>538.2</ele><name>TP00016</name><time>2020-03-15T18:16:55Z</time></trkpt>
   <trkpt lat="30.791295" lon="34.767821"><ele>538.4</ele><name>TP00017</name><time>2020-03-15T18:17:06Z</time></trkpt>
   <trkpt lat="30.79119" lon="34.767815"><ele>538.6</ele><name>TP00018</name><time>2020-03-15T18:17:10Z</time></trkpt>
   <trkpt lat="30.791146" lon="34.76779"><ele>539</ele><name>TP00019</name><time>2020-03-15T18:17:12Z</time></trkpt>
   <trkpt lat="30.791102" lon="34.767691"><ele>538.8</ele><name>TP00020</name><time>2020-03-15T18:17:15Z</time></trkpt>
   <trkpt lat="30.791064" lon="34.767593"><ele>538.8</ele><name>TP00021</name><time>2020-03-15T18:17:18Z</time></trkpt>
   <trkpt lat="30.791028" lon="34.767513"><ele>538.8</ele><name>TP00022</name><time>2020-03-15T18:17:28Z</time></trkpt>
   <trkpt lat="30.791028" lon="34.767513"><ele>539.2</ele><name>TP00023</name><time>2020-03-15T18:17:31Z</time></trkpt>
   <trkpt lat="30.791028" lon="34.767513"><ele>539.2</ele><name>TP00024</name><time>2020-03-15T18:17:33Z</time></trkpt>
   <trkpt lat="30.791028" lon="34.767513"><ele>539</ele><name>TP00025</name><time>2020-03-15T18:17:36Z</time></trkpt>
   <trkpt lat="30.791028" lon="34.767513"><ele>538.8</ele><name>TP00026</name><time>2020-03-15T18:17:40Z</time></trkpt>
   <trkpt lat="30.791027" lon="34.767508"><ele>538.8</ele><name>TP00027</name><time>2020-03-15T18:17:45Z</time></trkpt>
   <trkpt lat="30.791024" lon="34.767496"><ele>538.8</ele><name>TP00028</name><time>2020-03-15T18:17:46Z</time></trkpt>
   <trkpt lat="30.791018" lon="34.76748"><ele>538.8</ele><name>TP00029</name><time>2020-03-15T18:17:47Z</time></trkpt>
   <trkpt lat="30.791008" lon="34.767457"><ele>539</ele><name>TP00030</name><time>2020-03-15T18:17:49Z</time></trkpt>
   <trkpt lat="30.791004" lon="34.767444"><ele>539</ele><name>TP00031</name><time>2020-03-15T18:17:50Z</time></trkpt>
   <trkpt lat="30.79101" lon="34.767404"><ele>539</ele><name>TP00032</name><time>2020-03-15T18:17:52Z</time></trkpt>
   <trkpt lat="30.790991" lon="34.76728"><ele>539</ele><name>TP00033</name><time>2020-03-15T18:17:57Z</time></trkpt>
   <trkpt lat="30.790975" lon="34.767204"><ele>538.8</ele><name>TP00034</name><time>2020-03-15T18:18:00Z</time></trkpt>
   <trkpt lat="30.790956" lon="34.767048"><ele>538.8</ele><name>TP00035</name><time>2020-03-15T18:18:05Z</time></trkpt>
   <trkpt lat="30.79095" lon="34.766881"><ele>538.6</ele><name>TP00036</name><time>2020-03-15T18:18:09Z</time></trkpt>
   <trkpt lat="30.790956" lon="34.766725"><ele>539.4</ele><name>TP00037</name><time>2020-03-15T18:18:15Z</time></trkpt>
   <trkpt lat="30.790959" lon="34.766713"><ele>539.4</ele><name>TP00038</name><time>2020-03-15T18:18:19Z</time></trkpt>
   <trkpt lat="30.790961" lon="34.766635"><ele>539.2</ele><name>TP00039</name><time>2020-03-15T18:18:23Z</time></trkpt>
   <trkpt lat="30.790946" lon="34.766437"><ele>539</ele><name>TP00040</name><time>2020-03-15T18:18:27Z</time></trkpt>
   <trkpt lat="30.790937" lon="34.766369"><ele>539</ele><name>TP00041</name><time>2020-03-15T18:18:28Z</time></trkpt>
   <trkpt lat="30.790879" lon="34.766159"><ele>539.8</ele><name>TP00042</name><time>2020-03-15T18:18:31Z</time></trkpt>
   <trkpt lat="30.790864" lon="34.766085"><ele>540</ele><name>TP00043</name><time>2020-03-15T18:18:32Z</time></trkpt>
   <trkpt lat="30.790857" lon="34.76601"><ele>540.2</ele><name>TP00044</name><time>2020-03-15T18:18:33Z</time></trkpt>
   <trkpt lat="30.790862" lon="34.765858"><ele>540.6</ele><name>TP00045</name><time>2020-03-15T18:18:35Z</time></trkpt>
   <trkpt lat="30.790865" lon="34.765786"><ele>541</ele><name>TP00046</name><time>2020-03-15T18:18:36Z</time></trkpt>
   <trkpt lat="30.790871" lon="34.765719"><ele>541.4</ele><name>TP00047</name><time>2020-03-15T18:18:37Z</time></trkpt>
   <trkpt lat="30.790886" lon="34.765596"><ele>541.8</ele><name>TP00048</name><time>2020-03-15T18:18:39Z</time></trkpt>
   <trkpt lat="30.790893" lon="34.765538"><ele>542.2</ele><name>TP00049</name><time>2020-03-15T18:18:40Z</time></trkpt>
   <trkpt lat="30.790909" lon="34.765429"><ele>542.8</ele><name>TP00050</name><time>2020-03-15T18:18:42Z</time></trkpt>
   <trkpt lat="30.79092" lon="34.765373"><ele>543.2</ele><name>TP00051</name><time>2020-03-15T18:18:43Z</time></trkpt>
   <trkpt lat="30.790949" lon="34.765188"><ele>543.4</ele><name>TP00052</name><time>2020-03-15T18:18:46Z</time></trkpt>
   <trkpt lat="30.790956" lon="34.765123"><ele>543.4</ele><name>TP00053</name><time>2020-03-15T18:18:47Z</time></trkpt>
   <trkpt lat="30.790961" lon="34.76488"><ele>544</ele><name>TP00054</name><time>2020-03-15T18:18:51Z</time></trkpt>
   <trkpt lat="30.790981" lon="34.764765"><ele>544.4</ele><name>TP00055</name><time>2020-03-15T18:18:53Z</time></trkpt>
   <trkpt lat="30.791036" lon="34.764618"><ele>545.2</ele><name>TP00056</name><time>2020-03-15T18:18:56Z</time></trkpt>
   <trkpt lat="30.791051" lon="34.764571"><ele>545.4</ele><name>TP00057</name><time>2020-03-15T18:18:57Z</time></trkpt>
   <trkpt lat="30.791061" lon="34.764479"><ele>546.6</ele><name>TP00058</name><time>2020-03-15T18:18:59Z</time></trkpt>
   <trkpt lat="30.791093" lon="34.764236"><ele>547.8</ele><name>TP00059</name><time>2020-03-15T18:19:05Z</time></trkpt>
   <trkpt lat="30.791122" lon="34.764108"><ele>548.8</ele><name>TP00060</name><time>2020-03-15T18:19:08Z</time></trkpt>
   <trkpt lat="30.791231" lon="34.763759"><ele>548.2</ele><name>TP00061</name><time>2020-03-15T18:19:15Z</time></trkpt>
   <trkpt lat="30.791249" lon="34.763703"><ele>547.6</ele><name>TP00062</name><time>2020-03-15T18:19:16Z</time></trkpt>
   <trkpt lat="30.791285" lon="34.763576"><ele>546.4</ele><name>TP00063</name><time>2020-03-15T18:19:18Z</time></trkpt>
   <trkpt lat="30.791322" lon="34.763433"><ele>545</ele><name>TP00064</name><time>2020-03-15T18:19:20Z</time></trkpt>
   <trkpt lat="30.791419" lon="34.763074"><ele>544.2</ele><name>TP00065</name><time>2020-03-15T18:19:25Z</time></trkpt>
   <trkpt lat="30.791432" lon="34.763005"><ele>544</ele><name>TP00066</name><time>2020-03-15T18:19:26Z</time></trkpt>
   <trkpt lat="30.791445" lon="34.762873"><ele>543.8</ele><name>TP00067</name><time>2020-03-15T18:19:28Z</time></trkpt>
   <trkpt lat="30.791431" lon="34.7625"><ele>544.2</ele><name>TP00068</name><time>2020-03-15T18:19:34Z</time></trkpt>
   <trkpt lat="30.791412" lon="34.762354"><ele>544</ele><name>TP00069</name><time>2020-03-15T18:19:37Z</time></trkpt>
   <trkpt lat="30.791404" lon="34.762177"><ele>543</ele><name>TP00070</name><time>2020-03-15T18:19:40Z</time></trkpt>
   <trkpt lat="30.791373" lon="34.761917"><ele>542.2</ele><name>TP00071</name><time>2020-03-15T18:19:44Z</time></trkpt>
   <trkpt lat="30.791368" lon="34.761846"><ele>542</ele><name>TP00072</name><time>2020-03-15T18:19:45Z</time></trkpt>
   <trkpt lat="30.791368" lon="34.761698"><ele>541</ele><name>TP00073</name><time>2020-03-15T18:19:47Z</time></trkpt>
   <trkpt lat="30.791378" lon="34.76162"><ele>540.6</ele><name>TP00074</name><time>2020-03-15T18:19:48Z</time></trkpt>
   <trkpt lat="30.791411" lon="34.761378"><ele>539.6</ele><name>TP00075</name><time>2020-03-15T18:19:51Z</time></trkpt>
   <trkpt lat="30.791408" lon="34.761297"><ele>539.4</ele><name>TP00076</name><time>2020-03-15T18:19:52Z</time></trkpt>
   <trkpt lat="30.791352" lon="34.761005"><ele>538.4</ele><name>TP00077</name><time>2020-03-15T18:19:56Z</time></trkpt>
   <trkpt lat="30.79134" lon="34.760944"><ele>538.4</ele><name>TP00078</name><time>2020-03-15T18:19:57Z</time></trkpt>
   <trkpt lat="30.791306" lon="34.760604"><ele>538</ele><name>TP00079</name><time>2020-03-15T18:20:03Z</time></trkpt>
   <trkpt lat="30.791268" lon="34.760376"><ele>537.4</ele><name>TP00080</name><time>2020-03-15T18:20:07Z</time></trkpt>
   <trkpt lat="30.791241" lon="34.760185"><ele>536.2</ele><name>TP00081</name><time>2020-03-15T18:20:10Z</time></trkpt>
   <trkpt lat="30.791194" lon="34.759756"><ele>535</ele><name>TP00082</name><time>2020-03-15T18:20:16Z</time></trkpt>
   <trkpt lat="30.791167" lon="34.759539"><ele>534.4</ele><name>TP00083</name><time>2020-03-15T18:20:19Z</time></trkpt>
   <trkpt lat="30.791152" lon="34.759382"><ele>533.8</ele><name>TP00084</name><time>2020-03-15T18:20:21Z</time></trkpt>
   <trkpt lat="30.791165" lon="34.759225"><ele>533.4</ele><name>TP00085</name><time>2020-03-15T18:20:23Z</time></trkpt>
   <trkpt lat="30.791221" lon="34.758917"><ele>532.6</ele><name>TP00086</name><time>2020-03-15T18:20:27Z</time></trkpt>
   <trkpt lat="30.791333" lon="34.758571"><ele>531.6</ele><name>TP00087</name><time>2020-03-15T18:20:32Z</time></trkpt>
   <trkpt lat="30.791363" lon="34.758513"><ele>531.4</ele><name>TP00088</name><time>2020-03-15T18:20:33Z</time></trkpt>
   <trkpt lat="30.791489" lon="34.758296"><ele>531</ele><name>TP00089</name><time>2020-03-15T18:20:37Z</time></trkpt>
   <trkpt lat="30.791517" lon="34.758121"><ele>530.8</ele><name>TP00090</name><time>2020-03-15T18:20:40Z</time></trkpt>
   <trkpt lat="30.791479" lon="34.757909"><ele>530.4</ele><name>TP00091</name><time>2020-03-15T18:20:45Z</time></trkpt>
   <trkpt lat="30.791424" lon="34.757799"><ele>530.4</ele><name>TP00092</name><time>2020-03-15T18:20:48Z</time></trkpt>
   <trkpt lat="30.791248" lon="34.757649"><ele>529.8</ele><name>TP00093</name><time>2020-03-15T18:20:55Z</time></trkpt>
   <trkpt lat="30.791241" lon="34.757558"><ele>529.4</ele><name>TP00094</name><time>2020-03-15T18:20:58Z</time></trkpt>
   <trkpt lat="30.791242" lon="34.757515"><ele>529</ele><name>TP00095</name><time>2020-03-15T18:20:59Z</time></trkpt>
   <trkpt lat="30.791233" lon="34.757424"><ele>528.4</ele><name>TP00096</name><time>2020-03-15T18:21:01Z</time></trkpt>
   <trkpt lat="30.791171" lon="34.757232"><ele>527.6</ele><name>TP00097</name><time>2020-03-15T18:21:05Z</time></trkpt>
   <trkpt lat="30.791106" lon="34.757128"><ele>527.2</ele><name>TP00098</name><time>2020-03-15T18:21:07Z</time></trkpt>
   <trkpt lat="30.791006" lon="34.756917"><ele>526.2</ele><name>TP00099</name><time>2020-03-15T18:21:11Z</time></trkpt>
   <trkpt lat="30.79086" lon="34.756594"><ele>528.2</ele><name>TP00100</name><time>2020-03-15T18:21:23Z</time></trkpt>
   <trkpt lat="30.790858" lon="34.756596"><ele>528.2</ele><name>TP00101</name><time>2020-03-15T18:21:30Z</time></trkpt>
   <trkpt lat="30.790858" lon="34.756596"><ele>528.2</ele><name>TP00102</name><time>2020-03-15T18:21:32Z</time></trkpt>
   <trkpt lat="30.790858" lon="34.756596"><ele>528.2</ele><name>TP00103</name><time>2020-03-15T18:21:34Z</time></trkpt>
   <trkpt lat="30.790858" lon="34.756596"><ele>528</ele><name>TP00104</name><time>2020-03-15T18:21:35Z</time></trkpt>
   <trkpt lat="30.790858" lon="34.756596"><ele>528</ele><name>TP00105</name><time>2020-03-15T18:21:38Z</time></trkpt>
   <trkpt lat="30.790858" lon="34.756596"><ele>528</ele><name>TP00106</name><time>2020-03-15T18:21:41Z</time></trkpt>
   <trkpt lat="30.790858" lon="34.756596"><ele>528.2</ele><name>TP00107</name><time>2020-03-15T18:21:44Z</time></trkpt>
   <trkpt lat="30.790858" lon="34.756596"><ele>528.2</ele><name>TP00108</name><time>2020-03-15T18:21:47Z</time></trkpt>
   <trkpt lat="30.790858" lon="34.756596"><ele>528.2</ele><name>TP00109</name><time>2020-03-15T18:21:57Z</time></trkpt>
   <trkpt lat="30.790858" lon="34.756596"><ele>527.8</ele><name>TP00110</name><time>2020-03-15T18:22:03Z</time></trkpt>
   <trkpt lat="30.790858" lon="34.756596"><ele>528</ele><name>TP00111</name><time>2020-03-15T18:22:07Z</time></trkpt>
   <trkpt lat="30.790858" lon="34.756596"><ele>528</ele><name>TP00112</name><time>2020-03-15T18:22:10Z</time></trkpt>
   <trkpt lat="30.790858" lon="34.756596"><ele>527.8</ele><name>TP00113</name><time>2020-03-15T18:22:11Z</time></trkpt>
   <trkpt lat="30.790858" lon="34.756596"><ele>528</ele><name>TP00114</name><time>2020-03-15T18:22:12Z</time></trkpt>
   <trkpt lat="30.790858" lon="34.756596"><ele>528</ele><name>TP00115</name><time>2020-03-15T18:22:13Z</time></trkpt>
   <trkpt lat="30.790858" lon="34.756596"><ele>528</ele><name>TP00116</name><time>2020-03-15T18:22:26Z</time></trkpt>
   <trkpt lat="30.790858" lon="34.756597"><ele>528</ele><name>TP00117</name><time>2020-03-15T18:23:11Z</time></trkpt>
   <trkpt lat="30.790858" lon="34.756597"><ele>528</ele><name>TP00118</name><time>2020-03-15T18:23:31Z</time></trkpt>
   <trkpt lat="30.790858" lon="34.756596"><ele>528.2</ele><name>TP00119</name><time>2020-03-15T18:24:00Z</time></trkpt>
   <trkpt lat="30.790858" lon="34.756598"><ele>528.4</ele><name>TP00120</name><time>2020-03-15T18:24:03Z</time></trkpt>
   <trkpt lat="30.79086" lon="34.756597"><ele>528.4</ele><name>TP00121</name><time>2020-03-15T18:24:05Z</time></trkpt>
   <trkpt lat="30.790861" lon="34.756602"><ele>528.6</ele><name>TP00122</name><time>2020-03-15T18:24:07Z</time></trkpt>
   <trkpt lat="30.790877" lon="34.756611"><ele>529</ele><name>TP00123</name><time>2020-03-15T18:24:09Z</time></trkpt>
   <trkpt lat="30.790885" lon="34.756624"><ele>529.4</ele><name>TP00124</name><time>2020-03-15T18:24:10Z</time></trkpt>
   <trkpt lat="30.790922" lon="34.75667"><ele>529.6</ele><name>TP00125</name><time>2020-03-15T18:24:12Z</time></trkpt>
   <trkpt lat="30.791009" lon="34.756882"><ele>528.6</ele><name>TP00126</name><time>2020-03-15T18:24:17Z</time></trkpt>
   <trkpt lat="30.791113" lon="34.75702"><ele>527.6</ele><name>TP00127</name><time>2020-03-15T18:24:21Z</time></trkpt>
   <trkpt lat="30.791147" lon="34.757036"><ele>527</ele><name>TP00128</name><time>2020-03-15T18:24:22Z</time></trkpt>
   <trkpt lat="30.791209" lon="34.757051"><ele>526.4</ele><name>TP00129</name><time>2020-03-15T18:24:24Z</time></trkpt>
   <trkpt lat="30.791312" lon="34.756994"><ele>526.6</ele><name>TP00130</name><time>2020-03-15T18:24:28Z</time></trkpt>
   <trkpt lat="30.791335" lon="34.756987"><ele>526.6</ele><name>TP00131</name><time>2020-03-15T18:24:29Z</time></trkpt>
   <trkpt lat="30.791411" lon="34.756975"><ele>526.8</ele><name>TP00132</name><time>2020-03-15T18:24:32Z</time></trkpt>
   <trkpt lat="30.7915" lon="34.756968"><ele>527.2</ele><name>TP00133</name><time>2020-03-15T18:24:35Z</time></trkpt>
   <trkpt lat="30.791567" lon="34.75695"><ele>527.2</ele><name>TP00134</name><time>2020-03-15T18:24:37Z</time></trkpt>
   <trkpt lat="30.791626" lon="34.756888"><ele>527.2</ele><name>TP00135</name><time>2020-03-15T18:24:39Z</time></trkpt>
   <trkpt lat="30.791692" lon="34.756788"><ele>527</ele><name>TP00136</name><time>2020-03-15T18:24:41Z</time></trkpt>
   <trkpt lat="30.791816" lon="34.756627"><ele>526.8</ele><name>TP00137</name><time>2020-03-15T18:24:44Z</time></trkpt>
   <trkpt lat="30.791861" lon="34.756581"><ele>526.6</ele><name>TP00138</name><time>2020-03-15T18:24:45Z</time></trkpt>
   <trkpt lat="30.792165" lon="34.756357"><ele>526.6</ele><name>TP00139</name><time>2020-03-15T18:24:51Z</time></trkpt>
   <trkpt lat="30.792438" lon="34.756332"><ele>527.4</ele><name>TP00140</name><time>2020-03-15T18:24:56Z</time></trkpt>
   <trkpt lat="30.792545" lon="34.756269"><ele>527.4</ele><name>TP00141</name><time>2020-03-15T18:24:58Z</time></trkpt>
   <trkpt lat="30.792597" lon="34.756233"><ele>527.4</ele><name>TP00142</name><time>2020-03-15T18:24:59Z</time></trkpt>
   <trkpt lat="30.792696" lon="34.756163"><ele>527.4</ele><name>TP00143</name><time>2020-03-15T18:25:01Z</time></trkpt>
   <trkpt lat="30.79303" lon="34.756058"><ele>528</ele><name>TP00144</name><time>2020-03-15T18:25:07Z</time></trkpt>
   <trkpt lat="30.793437" lon="34.755874"><ele>527.2</ele><name>TP00145</name><time>2020-03-15T18:25:14Z</time></trkpt>
   <trkpt lat="30.793691" lon="34.755829"><ele>527.2</ele><name>TP00146</name><time>2020-03-15T18:25:18Z</time></trkpt>
   <trkpt lat="30.794009" lon="34.755756"><ele>527</ele><name>TP00147</name><time>2020-03-15T18:25:23Z</time></trkpt>
   <trkpt lat="30.794343" lon="34.755856"><ele>526.4</ele><name>TP00148</name><time>2020-03-15T18:25:29Z</time></trkpt>
   <trkpt lat="30.794751" lon="34.756051"><ele>526.2</ele><name>TP00149</name><time>2020-03-15T18:25:36Z</time></trkpt>
   <trkpt lat="30.79504" lon="34.756174"><ele>526</ele><name>TP00150</name><time>2020-03-15T18:25:42Z</time></trkpt>
   <trkpt lat="30.795211" lon="34.756163"><ele>526.8</ele><name>TP00151</name><time>2020-03-15T18:25:46Z</time></trkpt>
   <trkpt lat="30.795254" lon="34.756163"><ele>526.8</ele><name>TP00152</name><time>2020-03-15T18:25:47Z</time></trkpt>
   <trkpt lat="30.795493" lon="34.756175"><ele>525.2</ele><name>TP00153</name><time>2020-03-15T18:25:54Z</time></trkpt>
   <trkpt lat="30.795567" lon="34.756151"><ele>523.8</ele><name>TP00154</name><time>2020-03-15T18:25:57Z</time></trkpt>
   <trkpt lat="30.795599" lon="34.756125"><ele>523.2</ele><name>TP00155</name><time>2020-03-15T18:25:58Z</time></trkpt>
   <trkpt lat="30.795636" lon="34.756088"><ele>522.6</ele><name>TP00156</name><time>2020-03-15T18:25:59Z</time></trkpt>
   <trkpt lat="30.795729" lon="34.755986"><ele>521.2</ele><name>TP00157</name><time>2020-03-15T18:26:02Z</time></trkpt>
   <trkpt lat="30.795753" lon="34.755876"><ele>521.4</ele><name>TP00158</name><time>2020-03-15T18:26:05Z</time></trkpt>
   <trkpt lat="30.795735" lon="34.755764"><ele>522.2</ele><name>TP00159</name><time>2020-03-15T18:26:08Z</time></trkpt>
   <trkpt lat="30.79577" lon="34.755683"><ele>523.4</ele><name>TP00160</name><time>2020-03-15T18:26:11Z</time></trkpt>
   <trkpt lat="30.795787" lon="34.755666"><ele>523.8</ele><name>TP00161</name><time>2020-03-15T18:26:12Z</time></trkpt>
   <trkpt lat="30.795819" lon="34.75563"><ele>524.6</ele><name>TP00162</name><time>2020-03-15T18:26:14Z</time></trkpt>
   <trkpt lat="30.795853" lon="34.755589"><ele>525.2</ele><name>TP00163</name><time>2020-03-15T18:26:16Z</time></trkpt>
   <trkpt lat="30.795894" lon="34.755546"><ele>525.6</ele><name>TP00164</name><time>2020-03-15T18:26:18Z</time></trkpt>
   <trkpt lat="30.795912" lon="34.755522"><ele>525.8</ele><name>TP00165</name><time>2020-03-15T18:26:19Z</time></trkpt>
   <trkpt lat="30.795945" lon="34.75545"><ele>527</ele><name>TP00166</name><time>2020-03-15T18:26:22Z</time></trkpt>
   <trkpt lat="30.79596" lon="34.755418"><ele>527.6</ele><name>TP00167</name><time>2020-03-15T18:26:24Z</time></trkpt>
   <trkpt lat="30.795977" lon="34.755387"><ele>528.2</ele><name>TP00168</name><time>2020-03-15T18:26:26Z</time></trkpt>
   <trkpt lat="30.796" lon="34.755351"><ele>528.8</ele><name>TP00169</name><time>2020-03-15T18:26:29Z</time></trkpt>
   <trkpt lat="30.796011" lon="34.755331"><ele>529.2</ele><name>TP00170</name><time>2020-03-15T18:26:31Z</time></trkpt>
   <trkpt lat="30.796014" lon="34.755323"><ele>529.8</ele><name>TP00171</name><time>2020-03-15T18:26:35Z</time></trkpt>
   <trkpt lat="30.796031" lon="34.755299"><ele>530.2</ele><name>TP00172</name><time>2020-03-15T18:26:39Z</time></trkpt>
   <trkpt lat="30.796059" lon="34.755262"><ele>531</ele><name>TP00173</name><time>2020-03-15T18:26:45Z</time></trkpt>
   <trkpt lat="30.79607" lon="34.755247"><ele>531.4</ele><name>TP00174</name><time>2020-03-15T18:26:47Z</time></trkpt>
   <trkpt lat="30.796093" lon="34.755201"><ele>532.6</ele><name>TP00175</name><time>2020-03-15T18:26:53Z</time></trkpt>
   <trkpt lat="30.796095" lon="34.755192"><ele>532.8</ele><name>TP00176</name><time>2020-03-15T18:26:54Z</time></trkpt>
   <trkpt lat="30.796101" lon="34.755137"><ele>533.6</ele><name>TP00177</name><time>2020-03-15T18:27:00Z</time></trkpt>
   <trkpt lat="30.796126" lon="34.755048"><ele>534.6</ele><name>TP00178</name><time>2020-03-15T18:27:11Z</time></trkpt>
   <trkpt lat="30.796133" lon="34.754977"><ele>535.6</ele><name>TP00179</name><time>2020-03-15T18:27:16Z</time></trkpt>
   <trkpt lat="30.796135" lon="34.754957"><ele>535.8</ele><name>TP00180</name><time>2020-03-15T18:27:17Z</time></trkpt>
   <trkpt lat="30.796159" lon="34.754674"><ele>536.8</ele><name>TP00181</name><time>2020-03-15T18:27:26Z</time></trkpt>
   <trkpt lat="30.796178" lon="34.754459"><ele>537.8</ele><name>TP00182</name><time>2020-03-15T18:27:32Z</time></trkpt>
   <trkpt lat="30.796192" lon="34.754299"><ele>539</ele><name>TP00183</name><time>2020-03-15T18:27:37Z</time></trkpt>
   <trkpt lat="30.796256" lon="34.753971"><ele>539.8</ele><name>TP00184</name><time>2020-03-15T18:27:47Z</time></trkpt>
   <trkpt lat="30.796264" lon="34.75388"><ele>539.8</ele><name>TP00185</name><time>2020-03-15T18:27:49Z</time></trkpt>
   <trkpt lat="30.796262" lon="34.75368"><ele>540.2</ele><name>TP00186</name><time>2020-03-15T18:27:53Z</time></trkpt>
   <trkpt lat="30.796277" lon="34.753426"><ele>540.6</ele><name>TP00187</name><time>2020-03-15T18:27:58Z</time></trkpt>
   <trkpt lat="30.796318" lon="34.75328"><ele>541.6</ele><name>TP00188</name><time>2020-03-15T18:28:02Z</time></trkpt>
   <trkpt lat="30.796397" lon="34.753138"><ele>542.4</ele><name>TP00189</name><time>2020-03-15T18:28:08Z</time></trkpt>
   <trkpt lat="30.796459" lon="34.753042"><ele>542.6</ele><name>TP00190</name><time>2020-03-15T18:28:13Z</time></trkpt>
   <trkpt lat="30.796474" lon="34.752976"><ele>542.6</ele><name>TP00191</name><time>2020-03-15T18:28:18Z</time></trkpt>
   <trkpt lat="30.796471" lon="34.752975"><ele>542.8</ele><name>TP00192</name><time>2020-03-15T18:28:31Z</time></trkpt>
   <trkpt lat="30.796472" lon="34.752975"><ele>542.6</ele><name>TP00193</name><time>2020-03-15T18:28:33Z</time></trkpt>
   <trkpt lat="30.796472" lon="34.752976"><ele>542.6</ele><name>TP00194</name><time>2020-03-15T18:28:35Z</time></trkpt>
   <trkpt lat="30.796472" lon="34.752975"><ele>542.6</ele><name>TP00195</name><time>2020-03-15T18:28:36Z</time></trkpt>
   <trkpt lat="30.796472" lon="34.752975"><ele>542.6</ele><name>TP00196</name><time>2020-03-15T18:28:37Z</time></trkpt>
   <trkpt lat="30.796472" lon="34.752975"><ele>542.8</ele><name>TP00197</name><time>2020-03-15T18:28:39Z</time></trkpt>
   <trkpt lat="30.796506" lon="34.752595"><ele>543</ele><name>TP00198</name><time>2020-03-15T18:28:51Z</time></trkpt>
   <trkpt lat="30.796527" lon="34.752494"><ele>543</ele><name>TP00199</name><time>2020-03-15T18:28:53Z</time></trkpt>
   <trkpt lat="30.796578" lon="34.752349"><ele>543.6</ele><name>TP00200</name><time>2020-03-15T18:28:56Z</time></trkpt>
   <trkpt lat="30.796593" lon="34.752299"><ele>543.6</ele><name>TP00201</name><time>2020-03-15T18:28:57Z</time></trkpt>
   <trkpt lat="30.796606" lon="34.752247"><ele>543.8</ele><name>TP00202</name><time>2020-03-15T18:28:58Z</time></trkpt>
   <trkpt lat="30.796628" lon="34.752087"><ele>544.4</ele><name>TP00203</name><time>2020-03-15T18:29:01Z</time></trkpt>
   <trkpt lat="30.796583" lon="34.751892"><ele>544.8</ele><name>TP00204</name><time>2020-03-15T18:29:05Z</time></trkpt>
   <trkpt lat="30.796536" lon="34.751804"><ele>545</ele><name>TP00205</name><time>2020-03-15T18:29:07Z</time></trkpt>
   <trkpt lat="30.796454" lon="34.751631"><ele>545.8</ele><name>TP00206</name><time>2020-03-15T18:29:11Z</time></trkpt>
   <trkpt lat="30.79632" lon="34.751303"><ele>546.6</ele><name>TP00207</name><time>2020-03-15T18:29:18Z</time></trkpt>
   <trkpt lat="30.796288" lon="34.751157"><ele>546.8</ele><name>TP00208</name><time>2020-03-15T18:29:21Z</time></trkpt>
   <trkpt lat="30.796283" lon="34.751107"><ele>547</ele><name>TP00209</name><time>2020-03-15T18:29:22Z</time></trkpt>
   <trkpt lat="30.79628" lon="34.75089"><ele>547.4</ele><name>TP00210</name><time>2020-03-15T18:29:26Z</time></trkpt>
   <trkpt lat="30.796208" lon="34.750682"><ele>548</ele><name>TP00211</name><time>2020-03-15T18:29:30Z</time></trkpt>
   <trkpt lat="30.796181" lon="34.750637"><ele>548.4</ele><name>TP00212</name><time>2020-03-15T18:29:31Z</time></trkpt>
   <trkpt lat="30.795965" lon="34.750409"><ele>548.6</ele><name>TP00213</name><time>2020-03-15T18:29:37Z</time></trkpt>
   <trkpt lat="30.795796" lon="34.750213"><ele>549.6</ele><name>TP00214</name><time>2020-03-15T18:29:42Z</time></trkpt>
   <trkpt lat="30.79572" lon="34.750086"><ele>550.6</ele><name>TP00215</name><time>2020-03-15T18:29:45Z</time></trkpt>
   <trkpt lat="30.795647" lon="34.749963"><ele>551.4</ele><name>TP00216</name><time>2020-03-15T18:29:48Z</time></trkpt>
   <trkpt lat="30.795591" lon="34.74989"><ele>551.8</ele><name>TP00217</name><time>2020-03-15T18:29:50Z</time></trkpt>
   <trkpt lat="30.795324" lon="34.749622"><ele>552.8</ele><name>TP00218</name><time>2020-03-15T18:29:58Z</time></trkpt>
   <trkpt lat="30.79513" lon="34.749457"><ele>552.4</ele><name>TP00219</name><time>2020-03-15T18:30:03Z</time></trkpt>
   <trkpt lat="30.79497" lon="34.749236"><ele>553.4</ele><name>TP00220</name><time>2020-03-15T18:30:09Z</time></trkpt>
   <trkpt lat="30.794758" lon="34.749165"><ele>553</ele><name>TP00221</name><time>2020-03-15T18:30:14Z</time></trkpt>
   <trkpt lat="30.794725" lon="34.749139"><ele>553</ele><name>TP00222</name><time>2020-03-15T18:30:15Z</time></trkpt>
   <trkpt lat="30.794692" lon="34.748926"><ele>552.8</ele><name>TP00223</name><time>2020-03-15T18:30:20Z</time></trkpt>
   <trkpt lat="30.794647" lon="34.74877"><ele>553.8</ele><name>TP00224</name><time>2020-03-15T18:30:24Z</time></trkpt>
   <trkpt lat="30.794553" lon="34.748547"><ele>554.6</ele><name>TP00225</name><time>2020-03-15T18:30:29Z</time></trkpt>
   <trkpt lat="30.794347" lon="34.748014"><ele>554.4</ele><name>TP00226</name><time>2020-03-15T18:30:38Z</time></trkpt>
   <trkpt lat="30.794035" lon="34.747433"><ele>554.8</ele><name>TP00227</name><time>2020-03-15T18:30:48Z</time></trkpt>
   <trkpt lat="30.794013" lon="34.747375"><ele>555</ele><name>TP00228</name><time>2020-03-15T18:30:49Z</time></trkpt>
   <trkpt lat="30.793951" lon="34.747143"><ele>556</ele><name>TP00229</name><time>2020-03-15T18:30:53Z</time></trkpt>
   <trkpt lat="30.793897" lon="34.746975"><ele>556.2</ele><name>TP00230</name><time>2020-03-15T18:30:56Z</time></trkpt>
   <trkpt lat="30.793855" lon="34.746851"><ele>557.4</ele><name>TP00231</name><time>2020-03-15T18:30:59Z</time></trkpt>
   <trkpt lat="30.793813" lon="34.746702"><ele>558.4</ele><name>TP00232</name><time>2020-03-15T18:31:03Z</time></trkpt>
   <trkpt lat="30.793734" lon="34.746542"><ele>559.6</ele><name>TP00233</name><time>2020-03-15T18:31:08Z</time></trkpt>
   <trkpt lat="30.793655" lon="34.746332"><ele>560.6</ele><name>TP00234</name><time>2020-03-15T18:31:14Z</time></trkpt>
   <trkpt lat="30.793578" lon="34.745994"><ele>560.4</ele><name>TP00235</name><time>2020-03-15T18:31:23Z</time></trkpt>
   <trkpt lat="30.793559" lon="34.745868"><ele>560.6</ele><name>TP00236</name><time>2020-03-15T18:31:26Z</time></trkpt>
   <trkpt lat="30.793566" lon="34.745622"><ele>561</ele><name>TP00237</name><time>2020-03-15T18:31:31Z</time></trkpt>
   <trkpt lat="30.793573" lon="34.745382"><ele>561.6</ele><name>TP00238</name><time>2020-03-15T18:31:36Z</time></trkpt>
   <trkpt lat="30.793541" lon="34.745056"><ele>562.6</ele><name>TP00239</name><time>2020-03-15T18:31:43Z</time></trkpt>
   <trkpt lat="30.793504" lon="34.744831"><ele>563.8</ele><name>TP00240</name><time>2020-03-15T18:31:49Z</time></trkpt>
   <trkpt lat="30.793455" lon="34.744653"><ele>564.8</ele><name>TP00241</name><time>2020-03-15T18:31:55Z</time></trkpt>
   <trkpt lat="30.79344" lon="34.74457"><ele>565.8</ele><name>TP00242</name><time>2020-03-15T18:31:58Z</time></trkpt>
   <trkpt lat="30.793439" lon="34.744408"><ele>567.2</ele><name>TP00243</name><time>2020-03-15T18:32:03Z</time></trkpt>
   <trkpt lat="30.793425" lon="34.744218"><ele>568.4</ele><name>TP00244</name><time>2020-03-15T18:32:09Z</time></trkpt>
   <trkpt lat="30.79339" lon="34.744061"><ele>569.4</ele><name>TP00245</name><time>2020-03-15T18:32:15Z</time></trkpt>
   <trkpt lat="30.793362" lon="34.743981"><ele>570.4</ele><name>TP00246</name><time>2020-03-15T18:32:19Z</time></trkpt>
   <trkpt lat="30.793347" lon="34.743936"><ele>571.4</ele><name>TP00247</name><time>2020-03-15T18:32:24Z</time></trkpt>
   <trkpt lat="30.793345" lon="34.743916"><ele>571.4</ele><name>TP00248</name><time>2020-03-15T18:32:26Z</time></trkpt>
   <trkpt lat="30.793356" lon="34.743788"><ele>572</ele><name>TP00249</name><time>2020-03-15T18:32:32Z</time></trkpt>
   <trkpt lat="30.793367" lon="34.743725"><ele>572.4</ele><name>TP00250</name><time>2020-03-15T18:32:34Z</time></trkpt>
   <trkpt lat="30.793366" lon="34.743577"><ele>573.4</ele><name>TP00251</name><time>2020-03-15T18:32:39Z</time></trkpt>
   <trkpt lat="30.793386" lon="34.743374"><ele>574.6</ele><name>TP00252</name><time>2020-03-15T18:32:46Z</time></trkpt>
   <trkpt lat="30.793385" lon="34.743253"><ele>575.8</ele><name>TP00253</name><time>2020-03-15T18:32:51Z</time></trkpt>
   <trkpt lat="30.793382" lon="34.743052"><ele>576.8</ele><name>TP00254</name><time>2020-03-15T18:33:00Z</time></trkpt>
   <trkpt lat="30.79338" lon="34.743031"><ele>577.2</ele><name>TP00255</name><time>2020-03-15T18:33:01Z</time></trkpt>
   <trkpt lat="30.793358" lon="34.742923"><ele>578</ele><name>TP00256</name><time>2020-03-15T18:33:06Z</time></trkpt>
   <trkpt lat="30.793369" lon="34.74275"><ele>579.2</ele><name>TP00257</name><time>2020-03-15T18:33:13Z</time></trkpt>
   <trkpt lat="30.793358" lon="34.742624"><ele>580.4</ele><name>TP00258</name><time>2020-03-15T18:33:19Z</time></trkpt>
   <trkpt lat="30.793351" lon="34.742581"><ele>581.2</ele><name>TP00259</name><time>2020-03-15T18:33:21Z</time></trkpt>
   <trkpt lat="30.793345" lon="34.742566"><ele>581.4</ele><name>TP00260</name><time>2020-03-15T18:33:22Z</time></trkpt>
   <trkpt lat="30.793336" lon="34.742507"><ele>582.2</ele><name>TP00261</name><time>2020-03-15T18:33:25Z</time></trkpt>
   <trkpt lat="30.793333" lon="34.74246"><ele>582.6</ele><name>TP00262</name><time>2020-03-15T18:33:27Z</time></trkpt>
   <trkpt lat="30.793318" lon="34.742371"><ele>583.6</ele><name>TP00263</name><time>2020-03-15T18:33:31Z</time></trkpt>
   <trkpt lat="30.793323" lon="34.74226"><ele>584.6</ele><name>TP00264</name><time>2020-03-15T18:33:36Z</time></trkpt>
   <trkpt lat="30.793324" lon="34.742134"><ele>585.8</ele><name>TP00265</name><time>2020-03-15T18:33:43Z</time></trkpt>
   <trkpt lat="30.793318" lon="34.742064"><ele>587</ele><name>TP00266</name><time>2020-03-15T18:33:49Z</time></trkpt>
   <trkpt lat="30.793291" lon="34.741936"><ele>587.2</ele><name>TP00267</name><time>2020-03-15T18:33:55Z</time></trkpt>
   <trkpt lat="30.793209" lon="34.741786"><ele>587.6</ele><name>TP00268</name><time>2020-03-15T18:34:02Z</time></trkpt>
   <trkpt lat="30.79319" lon="34.741753"><ele>588</ele><name>TP00269</name><time>2020-03-15T18:34:08Z</time></trkpt>
   <trkpt lat="30.79319" lon="34.741755"><ele>588</ele><name>TP00270</name><time>2020-03-15T18:34:15Z</time></trkpt>
   <trkpt lat="30.79319" lon="34.741755"><ele>588</ele><name>TP00271</name><time>2020-03-15T18:34:20Z</time></trkpt>
   <trkpt lat="30.79319" lon="34.741754"><ele>588.2</ele><name>TP00272</name><time>2020-03-15T18:34:26Z</time></trkpt>
   <trkpt lat="30.793191" lon="34.741754"><ele>588</ele><name>TP00273</name><time>2020-03-15T18:34:31Z</time></trkpt>
   <trkpt lat="30.79319" lon="34.741754"><ele>588</ele><name>TP00274</name><time>2020-03-15T18:34:34Z</time></trkpt>
   <trkpt lat="30.793191" lon="34.741754"><ele>588.2</ele><name>TP00275</name><time>2020-03-15T18:34:37Z</time></trkpt>
   <trkpt lat="30.793191" lon="34.741754"><ele>588.6</ele><name>TP00276</name><time>2020-03-15T18:34:39Z</time></trkpt>
   <trkpt lat="30.793191" lon="34.741754"><ele>587.8</ele><name>TP00277</name><time>2020-03-15T18:34:43Z</time></trkpt>
   <trkpt lat="30.793191" lon="34.741754"><ele>587.8</ele><name>TP00278</name><time>2020-03-15T18:34:49Z</time></trkpt>
   <trkpt lat="30.793191" lon="34.741755"><ele>588</ele><name>TP00279</name><time>2020-03-15T18:34:53Z</time></trkpt>
   <trkpt lat="30.793191" lon="34.741755"><ele>588.2</ele><name>TP00280</name><time>2020-03-15T18:35:01Z</time></trkpt>
   <trkpt lat="30.793191" lon="34.741757"><ele>588.2</ele><name>TP00281</name><time>2020-03-15T18:35:14Z</time></trkpt>
   <trkpt lat="30.793191" lon="34.741758"><ele>588.2</ele><name>TP00282</name><time>2020-03-15T18:35:19Z</time></trkpt>
   <trkpt lat="30.793191" lon="34.741758"><ele>588.2</ele><name>TP00283</name><time>2020-03-15T18:35:25Z</time></trkpt>
   <trkpt lat="30.79319" lon="34.741757"><ele>588.2</ele><name>TP00284</name><time>2020-03-15T18:35:31Z</time></trkpt>
   <trkpt lat="30.79319" lon="34.741758"><ele>588.4</ele><name>TP00285</name><time>2020-03-15T18:35:41Z</time></trkpt>
   <trkpt lat="30.793191" lon="34.741758"><ele>588.4</ele><name>TP00286</name><time>2020-03-15T18:35:43Z</time></trkpt>
   <trkpt lat="30.79319" lon="34.741757"><ele>588.4</ele><name>TP00287</name><time>2020-03-15T18:35:51Z</time></trkpt>
   <trkpt lat="30.793191" lon="34.741758"><ele>588.6</ele><name>TP00288</name><time>2020-03-15T18:35:58Z</time></trkpt>
   <trkpt lat="30.79319" lon="34.741758"><ele>588.6</ele><name>TP00289</name><time>2020-03-15T18:36:06Z</time></trkpt>
   <trkpt lat="30.79319" lon="34.741758"><ele>588.4</ele><name>TP00290</name><time>2020-03-15T18:36:09Z</time></trkpt>
   <trkpt lat="30.793191" lon="34.741758"><ele>588.4</ele><name>TP00291</name><time>2020-03-15T18:36:18Z</time></trkpt>
   <trkpt lat="30.79318" lon="34.74174"><ele>588.4</ele><name>TP00292</name><time>2020-03-15T18:36:42Z</time></trkpt>
   <trkpt lat="30.793158" lon="34.7417"><ele>588.4</ele><name>TP00293</name><time>2020-03-15T18:36:44Z</time></trkpt>
   <trkpt lat="30.793117" lon="34.741595"><ele>588.2</ele><name>TP00294</name><time>2020-03-15T18:36:47Z</time></trkpt>
   <trkpt lat="30.793092" lon="34.741475"><ele>588</ele><name>TP00295</name><time>2020-03-15T18:36:50Z</time></trkpt>
   <trkpt lat="30.793041" lon="34.741288"><ele>587.4</ele><name>TP00296</name><time>2020-03-15T18:36:55Z</time></trkpt>
   <trkpt lat="30.792989" lon="34.741143"><ele>587.6</ele><name>TP00297</name><time>2020-03-15T18:36:59Z</time></trkpt>
   <trkpt lat="30.792934" lon="34.741026"><ele>588</ele><name>TP00298</name><time>2020-03-15T18:37:03Z</time></trkpt>
   <trkpt lat="30.792839" lon="34.740878"><ele>586.8</ele><name>TP00299</name><time>2020-03-15T18:37:08Z</time></trkpt>
   <trkpt lat="30.792753" lon="34.740564"><ele>587</ele><name>TP00300</name><time>2020-03-15T18:37:17Z</time></trkpt>
   <trkpt lat="30.792748" lon="34.740372"><ele>587.6</ele><name>TP00301</name><time>2020-03-15T18:37:22Z</time></trkpt>
   <trkpt lat="30.792741" lon="34.740206"><ele>587.8</ele><name>TP00302</name><time>2020-03-15T18:37:26Z</time></trkpt>
   <trkpt lat="30.792722" lon="34.739759"><ele>587.2</ele><name>TP00303</name><time>2020-03-15T18:37:39Z</time></trkpt>
   <trkpt lat="30.792782" lon="34.739571"><ele>587.6</ele><name>TP00304</name><time>2020-03-15T18:37:45Z</time></trkpt>
   <trkpt lat="30.79288" lon="34.738963"><ele>588.6</ele><name>TP00305</name><time>2020-03-15T18:38:02Z</time></trkpt>
   <trkpt lat="30.792948" lon="34.738335"><ele>588.6</ele><name>TP00306</name><time>2020-03-15T18:38:20Z</time></trkpt>
   <trkpt lat="30.792947" lon="34.738295"><ele>588.8</ele><name>TP00307</name><time>2020-03-15T18:38:21Z</time></trkpt>
   <trkpt lat="30.79295" lon="34.73825"><ele>588.8</ele><name>TP00308</name><time>2020-03-15T18:38:22Z</time></trkpt>
   <trkpt lat="30.793013" lon="34.737974"><ele>589.4</ele><name>TP00309</name><time>2020-03-15T18:38:29Z</time></trkpt>
   <trkpt lat="30.793048" lon="34.737925"><ele>589.8</ele><name>TP00310</name><time>2020-03-15T18:38:31Z</time></trkpt>
   <trkpt lat="30.793098" lon="34.737822"><ele>590.2</ele><name>TP00311</name><time>2020-03-15T18:38:34Z</time></trkpt>
   <trkpt lat="30.793193" lon="34.737696"><ele>591</ele><name>TP00312</name><time>2020-03-15T18:38:38Z</time></trkpt>
   <trkpt lat="30.79324" lon="34.737642"><ele>591.4</ele><name>TP00313</name><time>2020-03-15T18:38:40Z</time></trkpt>
   <trkpt lat="30.793317" lon="34.737564"><ele>592.2</ele><name>TP00314</name><time>2020-03-15T18:38:43Z</time></trkpt>
   <trkpt lat="30.793435" lon="34.737385"><ele>593.2</ele><name>TP00315</name><time>2020-03-15T18:38:49Z</time></trkpt>
   <trkpt lat="30.793492" lon="34.737255"><ele>594.4</ele><name>TP00316</name><time>2020-03-15T18:38:53Z</time></trkpt>
   <trkpt lat="30.793512" lon="34.737074"><ele>595.4</ele><name>TP00317</name><time>2020-03-15T18:38:59Z</time></trkpt>
   <trkpt lat="30.793511" lon="34.737039"><ele>595.4</ele><name>TP00318</name><time>2020-03-15T18:39:00Z</time></trkpt>
   <trkpt lat="30.793283" lon="34.736487"><ele>596</ele><name>TP00319</name><time>2020-03-15T18:39:17Z</time></trkpt>
   <trkpt lat="30.793246" lon="34.736419"><ele>596.4</ele><name>TP00320</name><time>2020-03-15T18:39:19Z</time></trkpt>
   <trkpt lat="30.793024" lon="34.736094"><ele>597.4</ele><name>TP00321</name><time>2020-03-15T18:39:29Z</time></trkpt>
   <trkpt lat="30.792813" lon="34.735764"><ele>598.4</ele><name>TP00322</name><time>2020-03-15T18:39:39Z</time></trkpt>
   <trkpt lat="30.792746" lon="34.73538"><ele>599.6</ele><name>TP00323</name><time>2020-03-15T18:39:49Z</time></trkpt>
   <trkpt lat="30.7928" lon="34.735155"><ele>599.8</ele><name>TP00324</name><time>2020-03-15T18:39:55Z</time></trkpt>
   <trkpt lat="30.792821" lon="34.734961"><ele>600.6</ele><name>TP00325</name><time>2020-03-15T18:40:01Z</time></trkpt>
   <trkpt lat="30.792845" lon="34.734596"><ele>601.8</ele><name>TP00326</name><time>2020-03-15T18:40:12Z</time></trkpt>
   <trkpt lat="30.792849" lon="34.73457"><ele>602</ele><name>TP00327</name><time>2020-03-15T18:40:13Z</time></trkpt>
   <trkpt lat="30.792947" lon="34.734515"><ele>602.4</ele><name>TP00328</name><time>2020-03-15T18:40:18Z</time></trkpt>
   <trkpt lat="30.793065" lon="34.734296"><ele>603</ele><name>TP00329</name><time>2020-03-15T18:40:27Z</time></trkpt>
   <trkpt lat="30.793143" lon="34.734148"><ele>604.2</ele><name>TP00330</name><time>2020-03-15T18:40:33Z</time></trkpt>
   <trkpt lat="30.793308" lon="34.733939"><ele>605</ele><name>TP00331</name><time>2020-03-15T18:40:41Z</time></trkpt>
   <trkpt lat="30.793333" lon="34.733917"><ele>605.2</ele><name>TP00332</name><time>2020-03-15T18:40:42Z</time></trkpt>
   <trkpt lat="30.793423" lon="34.733803"><ele>606.4</ele><name>TP00333</name><time>2020-03-15T18:40:47Z</time></trkpt>
   <trkpt lat="30.793645" lon="34.733606"><ele>607.4</ele><name>TP00334</name><time>2020-03-15T18:40:56Z</time></trkpt>
   <trkpt lat="30.793827" lon="34.733461"><ele>608.6</ele><name>TP00335</name><time>2020-03-15T18:41:03Z</time></trkpt>
   <trkpt lat="30.794006" lon="34.733132"><ele>609.6</ele><name>TP00336</name><time>2020-03-15T18:41:14Z</time></trkpt>
   <trkpt lat="30.794101" lon="34.73278"><ele>610.8</ele><name>TP00337</name><time>2020-03-15T18:41:25Z</time></trkpt>
   <trkpt lat="30.794116" lon="34.732616"><ele>611.8</ele><name>TP00338</name><time>2020-03-15T18:41:30Z</time></trkpt>
   <trkpt lat="30.794182" lon="34.732461"><ele>612.8</ele><name>TP00339</name><time>2020-03-15T18:41:36Z</time></trkpt>
   <trkpt lat="30.794187" lon="34.732397"><ele>613.4</ele><name>TP00340</name><time>2020-03-15T18:41:38Z</time></trkpt>
   <trkpt lat="30.794252" lon="34.73229"><ele>613.4</ele><name>TP00341</name><time>2020-03-15T18:41:42Z</time></trkpt>
   <trkpt lat="30.794301" lon="34.732228"><ele>613.6</ele><name>TP00342</name><time>2020-03-15T18:41:45Z</time></trkpt>
   <trkpt lat="30.794285" lon="34.732113"><ele>613.8</ele><name>TP00343</name><time>2020-03-15T18:41:49Z</time></trkpt>
   <trkpt lat="30.794257" lon="34.731991"><ele>614.2</ele><name>TP00344</name><time>2020-03-15T18:41:53Z</time></trkpt>
   <trkpt lat="30.794258" lon="34.731938"><ele>615.2</ele><name>TP00345</name><time>2020-03-15T18:41:55Z</time></trkpt>
   <trkpt lat="30.794272" lon="34.731873"><ele>616.2</ele><name>TP00346</name><time>2020-03-15T18:41:58Z</time></trkpt>
   <trkpt lat="30.79428" lon="34.731854"><ele>617.4</ele><name>TP00347</name><time>2020-03-15T18:42:02Z</time></trkpt>
   <trkpt lat="30.794295" lon="34.731795"><ele>618.6</ele><name>TP00348</name><time>2020-03-15T18:42:10Z</time></trkpt>
   <trkpt lat="30.794293" lon="34.731704"><ele>619</ele><name>TP00349</name><time>2020-03-15T18:42:28Z</time></trkpt>
   <trkpt lat="30.794304" lon="34.731639"><ele>619.8</ele><name>TP00350</name><time>2020-03-15T18:42:32Z</time></trkpt>
   <trkpt lat="30.794311" lon="34.731526"><ele>620.6</ele><name>TP00351</name><time>2020-03-15T18:42:37Z</time></trkpt>
   <trkpt lat="30.794311" lon="34.731288"><ele>621.6</ele><name>TP00352</name><time>2020-03-15T18:42:46Z</time></trkpt>
   <trkpt lat="30.794282" lon="34.731101"><ele>622.6</ele><name>TP00353</name><time>2020-03-15T18:42:53Z</time></trkpt>
   <trkpt lat="30.794242" lon="34.730957"><ele>623.8</ele><name>TP00354</name><time>2020-03-15T18:42:59Z</time></trkpt>
   <trkpt lat="30.794142" lon="34.730748"><ele>625</ele><name>TP00355</name><time>2020-03-15T18:43:08Z</time></trkpt>
   <trkpt lat="30.794093" lon="34.730659"><ele>626.2</ele><name>TP00356</name><time>2020-03-15T18:43:12Z</time></trkpt>
   <trkpt lat="30.794063" lon="34.73061"><ele>627.2</ele><name>TP00357</name><time>2020-03-15T18:43:15Z</time></trkpt>
   <trkpt lat="30.793998" lon="34.730527"><ele>628.2</ele><name>TP00358</name><time>2020-03-15T18:43:20Z</time></trkpt>
   <trkpt lat="30.793904" lon="34.730467"><ele>629.4</ele><name>TP00359</name><time>2020-03-15T18:43:25Z</time></trkpt>
   <trkpt lat="30.79384" lon="34.730387"><ele>630.8</ele><name>TP00360</name><time>2020-03-15T18:43:31Z</time></trkpt>
   <trkpt lat="30.793828" lon="34.730315"><ele>632</ele><name>TP00361</name><time>2020-03-15T18:43:35Z</time></trkpt>
   <trkpt lat="30.793824" lon="34.730228"><ele>633.2</ele><name>TP00362</name><time>2020-03-15T18:43:40Z</time></trkpt>
   <trkpt lat="30.793847" lon="34.730182"><ele>634.4</ele><name>TP00363</name><time>2020-03-15T18:43:43Z</time></trkpt>
   <trkpt lat="30.793909" lon="34.730131"><ele>635.4</ele><name>TP00364</name><time>2020-03-15T18:43:47Z</time></trkpt>
   <trkpt lat="30.793987" lon="34.730069"><ele>636.4</ele><name>TP00365</name><time>2020-03-15T18:43:52Z</time></trkpt>
   <trkpt lat="30.794126" lon="34.729941"><ele>637.6</ele><name>TP00366</name><time>2020-03-15T18:44:01Z</time></trkpt>
   <trkpt lat="30.794174" lon="34.729877"><ele>638.6</ele><name>TP00367</name><time>2020-03-15T18:44:06Z</time></trkpt>
   <trkpt lat="30.794193" lon="34.729871"><ele>639.4</ele><name>TP00368</name><time>2020-03-15T18:44:15Z</time></trkpt>
   <trkpt lat="30.794202" lon="34.729865"><ele>639.2</ele><name>TP00369</name><time>2020-03-15T18:44:25Z</time></trkpt>
   <trkpt lat="30.794202" lon="34.729865"><ele>638.8</ele><name>TP00370</name><time>2020-03-15T18:44:32Z</time></trkpt>
   <trkpt lat="30.794202" lon="34.729865"><ele>638.8</ele><name>TP00371</name><time>2020-03-15T18:44:36Z</time></trkpt>
   <trkpt lat="30.794202" lon="34.729865"><ele>639</ele><name>TP00372</name><time>2020-03-15T18:44:40Z</time></trkpt>
   <trkpt lat="30.794202" lon="34.729865"><ele>638.8</ele><name>TP00373</name><time>2020-03-15T18:44:44Z</time></trkpt>
   <trkpt lat="30.794202" lon="34.729862"><ele>639</ele><name>TP00374</name><time>2020-03-15T18:44:56Z</time></trkpt>
   <trkpt lat="30.794202" lon="34.729862"><ele>639.2</ele><name>TP00375</name><time>2020-03-15T18:45:02Z</time></trkpt>
   <trkpt lat="30.794202" lon="34.729862"><ele>639.2</ele><name>TP00376</name><time>2020-03-15T18:45:07Z</time></trkpt>
   <trkpt lat="30.794203" lon="34.729861"><ele>639.2</ele><name>TP00377</name><time>2020-03-15T18:45:10Z</time></trkpt>
   <trkpt lat="30.794204" lon="34.729859"><ele>639</ele><name>TP00378</name><time>2020-03-15T18:45:15Z</time></trkpt>
   <trkpt lat="30.794207" lon="34.729857"><ele>638.6</ele><name>TP00379</name><time>2020-03-15T18:45:20Z</time></trkpt>
   <trkpt lat="30.794208" lon="34.729857"><ele>638.6</ele><name>TP00380</name><time>2020-03-15T18:45:25Z</time></trkpt>
   <trkpt lat="30.794207" lon="34.729858"><ele>638.8</ele><name>TP00381</name><time>2020-03-15T18:45:34Z</time></trkpt>
   <trkpt lat="30.794208" lon="34.729858"><ele>639</ele><name>TP00382</name><time>2020-03-15T18:45:42Z</time></trkpt>
   <trkpt lat="30.794208" lon="34.729858"><ele>638.8</ele><name>TP00383</name><time>2020-03-15T18:45:46Z</time></trkpt>
   <trkpt lat="30.794207" lon="34.729857"><ele>638.6</ele><name>TP00384</name><time>2020-03-15T18:45:50Z</time></trkpt>
   <trkpt lat="30.794213" lon="34.729846"><ele>638.6</ele><name>TP00385</name><time>2020-03-15T18:45:54Z</time></trkpt>
   <trkpt lat="30.794264" lon="34.72981"><ele>638.8</ele><name>TP00386</name><time>2020-03-15T18:45:58Z</time></trkpt>
   <trkpt lat="30.794485" lon="34.729758"><ele>640.2</ele><name>TP00387</name><time>2020-03-15T18:46:07Z</time></trkpt>
   <trkpt lat="30.794536" lon="34.729748"><ele>639.8</ele><name>TP00388</name><time>2020-03-15T18:46:09Z</time></trkpt>
   <trkpt lat="30.794654" lon="34.729718"><ele>640</ele><name>TP00389</name><time>2020-03-15T18:46:13Z</time></trkpt>
   <trkpt lat="30.794819" lon="34.729634"><ele>639.4</ele><name>TP00390</name><time>2020-03-15T18:46:19Z</time></trkpt>
   <trkpt lat="30.795153" lon="34.729338"><ele>638.8</ele><name>TP00391</name><time>2020-03-15T18:46:35Z</time></trkpt>
   <trkpt lat="30.795337" lon="34.728989"><ele>637.6</ele><name>TP00392</name><time>2020-03-15T18:46:50Z</time></trkpt>
   <trkpt lat="30.795355" lon="34.728844"><ele>636.8</ele><name>TP00393</name><time>2020-03-15T18:46:55Z</time></trkpt>
   <trkpt lat="30.795356" lon="34.728813"><ele>636.4</ele><name>TP00394</name><time>2020-03-15T18:46:56Z</time></trkpt>
   <trkpt lat="30.795444" lon="34.728477"><ele>635.4</ele><name>TP00395</name><time>2020-03-15T18:47:06Z</time></trkpt>
   <trkpt lat="30.795457" lon="34.728327"><ele>635.2</ele><name>TP00396</name><time>2020-03-15T18:47:10Z</time></trkpt>
   <trkpt lat="30.795448" lon="34.728209"><ele>634.6</ele><name>TP00397</name><time>2020-03-15T18:47:13Z</time></trkpt>
   <trkpt lat="30.795461" lon="34.728122"><ele>634.2</ele><name>TP00398</name><time>2020-03-15T18:47:15Z</time></trkpt>
   <trkpt lat="30.795468" lon="34.728029"><ele>633</ele><name>TP00399</name><time>2020-03-15T18:47:17Z</time></trkpt>
   <trkpt lat="30.795498" lon="34.727927"><ele>632.4</ele><name>TP00400</name><time>2020-03-15T18:47:20Z</time></trkpt>
   <trkpt lat="30.795533" lon="34.727864"><ele>632</ele><name>TP00401</name><time>2020-03-15T18:47:23Z</time></trkpt>
   <trkpt lat="30.795573" lon="34.727729"><ele>631</ele><name>TP00402</name><time>2020-03-15T18:47:29Z</time></trkpt>
   <trkpt lat="30.795574" lon="34.72773"><ele>630.8</ele><name>TP00403</name><time>2020-03-15T18:47:33Z</time></trkpt>
   <trkpt lat="30.795578" lon="34.727719"><ele>630.8</ele><name>TP00404</name><time>2020-03-15T18:47:42Z</time></trkpt>
   <trkpt lat="30.795578" lon="34.727719"><ele>630.6</ele><name>TP00405</name><time>2020-03-15T18:47:45Z</time></trkpt>
   <trkpt lat="30.795578" lon="34.727719"><ele>630.4</ele><name>TP00406</name><time>2020-03-15T18:47:48Z</time></trkpt>
   <trkpt lat="30.795578" lon="34.727719"><ele>630.4</ele><name>TP00407</name><time>2020-03-15T18:47:50Z</time></trkpt>
   <trkpt lat="30.795578" lon="34.727719"><ele>630.4</ele><name>TP00408</name><time>2020-03-15T18:47:51Z</time></trkpt>
   <trkpt lat="30.795578" lon="34.727719"><ele>630.6</ele><name>TP00409</name><time>2020-03-15T18:47:56Z</time></trkpt>
   <trkpt lat="30.795579" lon="34.727718"><ele>630.4</ele><name>TP00410</name><time>2020-03-15T18:48:06Z</time></trkpt>
   <trkpt lat="30.795583" lon="34.727715"><ele>630.4</ele><name>TP00411</name><time>2020-03-15T18:48:07Z</time></trkpt>
   <trkpt lat="30.795629" lon="34.727702"><ele>630.4</ele><name>TP00412</name><time>2020-03-15T18:48:10Z</time></trkpt>
   <trkpt lat="30.795649" lon="34.727695"><ele>630.4</ele><name>TP00413</name><time>2020-03-15T18:48:11Z</time></trkpt>
   <trkpt lat="30.795668" lon="34.727683"><ele>630</ele><name>TP00414</name><time>2020-03-15T18:48:12Z</time></trkpt>
   <trkpt lat="30.795683" lon="34.727663"><ele>629.8</ele><name>TP00415</name><time>2020-03-15T18:48:13Z</time></trkpt>
   <trkpt lat="30.795762" lon="34.727577"><ele>628.6</ele><name>TP00416</name><time>2020-03-15T18:48:18Z</time></trkpt>
   <trkpt lat="30.795784" lon="34.727573"><ele>628.4</ele><name>TP00417</name><time>2020-03-15T18:48:19Z</time></trkpt>
   <trkpt lat="30.795869" lon="34.727589"><ele>627.2</ele><name>TP00418</name><time>2020-03-15T18:48:22Z</time></trkpt>
   <trkpt lat="30.795928" lon="34.727607"><ele>625.8</ele><name>TP00419</name><time>2020-03-15T18:48:24Z</time></trkpt>
   <trkpt lat="30.796032" lon="34.727634"><ele>624.6</ele><name>TP00420</name><time>2020-03-15T18:48:28Z</time></trkpt>
   <trkpt lat="30.796108" lon="34.727652"><ele>623.2</ele><name>TP00421</name><time>2020-03-15T18:48:32Z</time></trkpt>
   <trkpt lat="30.79618" lon="34.727618"><ele>622.2</ele><name>TP00422</name><time>2020-03-15T18:48:35Z</time></trkpt>
   <trkpt lat="30.796276" lon="34.727572"><ele>621</ele><name>TP00423</name><time>2020-03-15T18:48:38Z</time></trkpt>
   <trkpt lat="30.796455" lon="34.727548"><ele>620</ele><name>TP00424</name><time>2020-03-15T18:48:43Z</time></trkpt>
   <trkpt lat="30.79656" lon="34.727551"><ele>618.8</ele><name>TP00425</name><time>2020-03-15T18:48:46Z</time></trkpt>
   <trkpt lat="30.796633" lon="34.72755"><ele>617.2</ele><name>TP00426</name><time>2020-03-15T18:48:48Z</time></trkpt>
   <trkpt lat="30.796761" lon="34.727568"><ele>615.8</ele><name>TP00427</name><time>2020-03-15T18:48:51Z</time></trkpt>
   <trkpt lat="30.796806" lon="34.72758"><ele>615.4</ele><name>TP00428</name><time>2020-03-15T18:48:52Z</time></trkpt>
   <trkpt lat="30.796893" lon="34.727605"><ele>614.6</ele><name>TP00429</name><time>2020-03-15T18:48:54Z</time></trkpt>
   <trkpt lat="30.796981" lon="34.727617"><ele>613.8</ele><name>TP00430</name><time>2020-03-15T18:48:56Z</time></trkpt>
   <trkpt lat="30.797058" lon="34.727627"><ele>613.4</ele><name>TP00431</name><time>2020-03-15T18:48:58Z</time></trkpt>
   <trkpt lat="30.797266" lon="34.727662"><ele>611.6</ele><name>TP00432</name><time>2020-03-15T18:49:03Z</time></trkpt>
   <trkpt lat="30.797317" lon="34.727673"><ele>610.6</ele><name>TP00433</name><time>2020-03-15T18:49:04Z</time></trkpt>
   <trkpt lat="30.79742" lon="34.727696"><ele>609.4</ele><name>TP00434</name><time>2020-03-15T18:49:06Z</time></trkpt>
   <trkpt lat="30.797531" lon="34.727718"><ele>608</ele><name>TP00435</name><time>2020-03-15T18:49:08Z</time></trkpt>
   <trkpt lat="30.797643" lon="34.72774"><ele>607.6</ele><name>TP00436</name><time>2020-03-15T18:49:10Z</time></trkpt>
   <trkpt lat="30.797786" lon="34.727802"><ele>607</ele><name>TP00437</name><time>2020-03-15T18:49:13Z</time></trkpt>
   <trkpt lat="30.797928" lon="34.727873"><ele>605.8</ele><name>TP00438</name><time>2020-03-15T18:49:16Z</time></trkpt>
   <trkpt lat="30.797981" lon="34.727894"><ele>605.4</ele><name>TP00439</name><time>2020-03-15T18:49:17Z</time></trkpt>
   <trkpt lat="30.798035" lon="34.72791"><ele>604.2</ele><name>TP00440</name><time>2020-03-15T18:49:18Z</time></trkpt>
   <trkpt lat="30.798143" lon="34.727941"><ele>603</ele><name>TP00441</name><time>2020-03-15T18:49:20Z</time></trkpt>
   <trkpt lat="30.798324" lon="34.728025"><ele>602.4</ele><name>TP00442</name><time>2020-03-15T18:49:24Z</time></trkpt>
   <trkpt lat="30.798494" lon="34.728112"><ele>602</ele><name>TP00443</name><time>2020-03-15T18:49:28Z</time></trkpt>
   <trkpt lat="30.798753" lon="34.728253"><ele>601</ele><name>TP00444</name><time>2020-03-15T18:49:33Z</time></trkpt>
   <trkpt lat="30.798932" lon="34.728378"><ele>600.2</ele><name>TP00445</name><time>2020-03-15T18:49:36Z</time></trkpt>
   <trkpt lat="30.798982" lon="34.728426"><ele>599.8</ele><name>TP00446</name><time>2020-03-15T18:49:37Z</time></trkpt>
   <trkpt lat="30.799119" lon="34.728582"><ele>599</ele><name>TP00447</name><time>2020-03-15T18:49:40Z</time></trkpt>
   <trkpt lat="30.799194" lon="34.728696"><ele>598.8</ele><name>TP00448</name><time>2020-03-15T18:49:42Z</time></trkpt>
   <trkpt lat="30.799272" lon="34.728795"><ele>598.4</ele><name>TP00449</name><time>2020-03-15T18:49:44Z</time></trkpt>
   <trkpt lat="30.799497" lon="34.728965"><ele>597.6</ele><name>TP00450</name><time>2020-03-15T18:49:49Z</time></trkpt>
   <trkpt lat="30.799668" lon="34.729067"><ele>597</ele><name>TP00451</name><time>2020-03-15T18:49:52Z</time></trkpt>
   <trkpt lat="30.79973" lon="34.729095"><ele>596.6</ele><name>TP00452</name><time>2020-03-15T18:49:53Z</time></trkpt>
   <trkpt lat="30.799984" lon="34.729179"><ele>596.2</ele><name>TP00453</name><time>2020-03-15T18:49:57Z</time></trkpt>
   <trkpt lat="30.800305" lon="34.729285"><ele>595.6</ele><name>TP00454</name><time>2020-03-15T18:50:03Z</time></trkpt>
   <trkpt lat="30.800448" lon="34.729413"><ele>595.6</ele><name>TP00455</name><time>2020-03-15T18:50:07Z</time></trkpt>
   <trkpt lat="30.80051" lon="34.729487"><ele>595.6</ele><name>TP00456</name><time>2020-03-15T18:50:09Z</time></trkpt>
   <trkpt lat="30.800569" lon="34.729576"><ele>595.6</ele><name>TP00457</name><time>2020-03-15T18:50:11Z</time></trkpt>
   <trkpt lat="30.800623" lon="34.729674"><ele>595.4</ele><name>TP00458</name><time>2020-03-15T18:50:13Z</time></trkpt>
   <trkpt lat="30.800684" lon="34.729891"><ele>595.6</ele><name>TP00459</name><time>2020-03-15T18:50:17Z</time></trkpt>
   <trkpt lat="30.800844" lon="34.730217"><ele>595.6</ele><name>TP00460</name><time>2020-03-15T18:50:24Z</time></trkpt>
   <trkpt lat="30.800893" lon="34.730509"><ele>595.2</ele><name>TP00461</name><time>2020-03-15T18:50:29Z</time></trkpt>
   <trkpt lat="30.800972" lon="34.730707"><ele>594.8</ele><name>TP00462</name><time>2020-03-15T18:50:33Z</time></trkpt>
   <trkpt lat="30.801041" lon="34.730854"><ele>594.6</ele><name>TP00463</name><time>2020-03-15T18:50:36Z</time></trkpt>
   <trkpt lat="30.801068" lon="34.730902"><ele>594.4</ele><name>TP00464</name><time>2020-03-15T18:50:37Z</time></trkpt>
   <trkpt lat="30.801099" lon="34.730946"><ele>594.2</ele><name>TP00465</name><time>2020-03-15T18:50:38Z</time></trkpt>
   <trkpt lat="30.80129" lon="34.731088"><ele>593.4</ele><name>TP00466</name><time>2020-03-15T18:50:43Z</time></trkpt>
   <trkpt lat="30.801431" lon="34.731134"><ele>592.4</ele><name>TP00467</name><time>2020-03-15T18:50:48Z</time></trkpt>
   <trkpt lat="30.801448" lon="34.731141"><ele>592.2</ele><name>TP00468</name><time>2020-03-15T18:50:49Z</time></trkpt>
   <trkpt lat="30.801502" lon="34.731262"><ele>592</ele><name>TP00469</name><time>2020-03-15T18:50:55Z</time></trkpt>
   <trkpt lat="30.801514" lon="34.73166"><ele>591.2</ele><name>TP00470</name><time>2020-03-15T18:51:04Z</time></trkpt>
   <trkpt lat="30.80154" lon="34.731983"><ele>591.2</ele><name>TP00471</name><time>2020-03-15T18:51:10Z</time></trkpt>
   <trkpt lat="30.801596" lon="34.732174"><ele>590.2</ele><name>TP00472</name><time>2020-03-15T18:51:17Z</time></trkpt>
   <trkpt lat="30.801608" lon="34.732215"><ele>589.8</ele><name>TP00473</name><time>2020-03-15T18:51:21Z</time></trkpt>
   <trkpt lat="30.801612" lon="34.732218"><ele>589.4</ele><name>TP00474</name><time>2020-03-15T18:51:29Z</time></trkpt>
   <trkpt lat="30.801636" lon="34.73222"><ele>589.2</ele><name>TP00475</name><time>2020-03-15T18:51:31Z</time></trkpt>
   <trkpt lat="30.801676" lon="34.732207"><ele>588.8</ele><name>TP00476</name><time>2020-03-15T18:51:33Z</time></trkpt>
   <trkpt lat="30.802248" lon="34.732158"><ele>589</ele><name>TP00477</name><time>2020-03-15T18:51:50Z</time></trkpt>
   <trkpt lat="30.8024" lon="34.732105"><ele>590</ele><name>TP00478</name><time>2020-03-15T18:51:55Z</time></trkpt>
   <trkpt lat="30.802438" lon="34.732091"><ele>590.2</ele><name>TP00479</name><time>2020-03-15T18:51:57Z</time></trkpt>
   <trkpt lat="30.802622" lon="34.732099"><ele>591.2</ele><name>TP00480</name><time>2020-03-15T18:52:06Z</time></trkpt>
   <trkpt lat="30.802694" lon="34.732291"><ele>592.2</ele><name>TP00481</name><time>2020-03-15T18:52:12Z</time></trkpt>
   <trkpt lat="30.802706" lon="34.732328"><ele>592.4</ele><name>TP00482</name><time>2020-03-15T18:52:13Z</time></trkpt>
   <trkpt lat="30.802785" lon="34.732547"><ele>593.4</ele><name>TP00483</name><time>2020-03-15T18:52:19Z</time></trkpt>
   <trkpt lat="30.80285" lon="34.732722"><ele>594</ele><name>TP00484</name><time>2020-03-15T18:52:24Z</time></trkpt>
   <trkpt lat="30.802868" lon="34.732794"><ele>594.6</ele><name>TP00485</name><time>2020-03-15T18:52:26Z</time></trkpt>
   <trkpt lat="30.802915" lon="34.732939"><ele>595.6</ele><name>TP00486</name><time>2020-03-15T18:52:30Z</time></trkpt>
   <trkpt lat="30.802984" lon="34.733155"><ele>596.4</ele><name>TP00487</name><time>2020-03-15T18:52:36Z</time></trkpt>
   <trkpt lat="30.803112" lon="34.733444"><ele>596.2</ele><name>TP00488</name><time>2020-03-15T18:52:44Z</time></trkpt>
   <trkpt lat="30.803147" lon="34.733596"><ele>596.8</ele><name>TP00489</name><time>2020-03-15T18:52:48Z</time></trkpt>
   <trkpt lat="30.803243" lon="34.733979"><ele>597.8</ele><name>TP00490</name><time>2020-03-15T18:52:59Z</time></trkpt>
   <trkpt lat="30.803279" lon="34.734286"><ele>599</ele><name>TP00491</name><time>2020-03-15T18:53:08Z</time></trkpt>
   <trkpt lat="30.803312" lon="34.734503"><ele>600.2</ele><name>TP00492</name><time>2020-03-15T18:53:16Z</time></trkpt>
   <trkpt lat="30.803368" lon="34.734664"><ele>601.2</ele><name>TP00493</name><time>2020-03-15T18:53:25Z</time></trkpt>
   <trkpt lat="30.803376" lon="34.734781"><ele>601.2</ele><name>TP00494</name><time>2020-03-15T18:53:36Z</time></trkpt>
   <trkpt lat="30.803409" lon="34.734932"><ele>602</ele><name>TP00495</name><time>2020-03-15T18:53:44Z</time></trkpt>
   <trkpt lat="30.80341" lon="34.73494"><ele>602.2</ele><name>TP00496</name><time>2020-03-15T18:53:45Z</time></trkpt>
   <trkpt lat="30.803409" lon="34.734957"><ele>602.8</ele><name>TP00497</name><time>2020-03-15T18:53:50Z</time></trkpt>
   <trkpt lat="30.803421" lon="34.734994"><ele>602.8</ele><name>TP00498</name><time>2020-03-15T18:53:59Z</time></trkpt>
   <trkpt lat="30.803423" lon="34.735"><ele>603.4</ele><name>TP00499</name><time>2020-03-15T18:54:02Z</time></trkpt>
   <trkpt lat="30.80342" lon="34.734996"><ele>603.4</ele><name>TP00500</name><time>2020-03-15T18:54:09Z</time></trkpt>
   <trkpt lat="30.803422" lon="34.735018"><ele>603.4</ele><name>TP00501</name><time>2020-03-15T18:54:14Z</time></trkpt>
   <trkpt lat="30.803431" lon="34.735103"><ele>603.6</ele><name>TP00502</name><time>2020-03-15T18:54:20Z</time></trkpt>
   <trkpt lat="30.803439" lon="34.735332"><ele>604.6</ele><name>TP00503</name><time>2020-03-15T18:54:30Z</time></trkpt>
   <trkpt lat="30.803428" lon="34.735408"><ele>604.8</ele><name>TP00504</name><time>2020-03-15T18:54:33Z</time></trkpt>
   <trkpt lat="30.803398" lon="34.735495"><ele>605.4</ele><name>TP00505</name><time>2020-03-15T18:54:36Z</time></trkpt>
   <trkpt lat="30.803383" lon="34.73555"><ele>605.8</ele><name>TP00506</name><time>2020-03-15T18:54:38Z</time></trkpt>
   <trkpt lat="30.803354" lon="34.735644"><ele>606.6</ele><name>TP00507</name><time>2020-03-15T18:54:42Z</time></trkpt>
   <trkpt lat="30.803341" lon="34.735694"><ele>606.8</ele><name>TP00508</name><time>2020-03-15T18:54:44Z</time></trkpt>
   <trkpt lat="30.803332" lon="34.735772"><ele>607.8</ele><name>TP00509</name><time>2020-03-15T18:54:47Z</time></trkpt>
   <trkpt lat="30.803331" lon="34.735796"><ele>608.2</ele><name>TP00510</name><time>2020-03-15T18:54:48Z</time></trkpt>
   <trkpt lat="30.803327" lon="34.735902"><ele>609.4</ele><name>TP00511</name><time>2020-03-15T18:54:53Z</time></trkpt>
   <trkpt lat="30.803323" lon="34.735965"><ele>610.4</ele><name>TP00512</name><time>2020-03-15T18:55:01Z</time></trkpt>
   <trkpt lat="30.803348" lon="34.735975"><ele>609.4</ele><name>TP00513</name><time>2020-03-15T18:55:08Z</time></trkpt>
   <trkpt lat="30.803366" lon="34.735965"><ele>610.4</ele><name>TP00514</name><time>2020-03-15T18:55:14Z</time></trkpt>
   <trkpt lat="30.803398" lon="34.735965"><ele>611</ele><name>TP00515</name><time>2020-03-15T18:55:21Z</time></trkpt>
   <trkpt lat="30.803467" lon="34.735941"><ele>611</ele><name>TP00516</name><time>2020-03-15T18:55:27Z</time></trkpt>
   <trkpt lat="30.803552" lon="34.735891"><ele>611.2</ele><name>TP00517</name><time>2020-03-15T18:55:35Z</time></trkpt>
   <trkpt lat="30.803559" lon="34.735889"><ele>611.4</ele><name>TP00518</name><time>2020-03-15T18:55:36Z</time></trkpt>
   <trkpt lat="30.803629" lon="34.735848"><ele>612.2</ele><name>TP00519</name><time>2020-03-15T18:55:56Z</time></trkpt>
   <trkpt lat="30.803629" lon="34.735849"><ele>612.2</ele><name>TP00520</name><time>2020-03-15T18:56:11Z</time></trkpt>
   <trkpt lat="30.803629" lon="34.735849"><ele>612</ele><name>TP00521</name><time>2020-03-15T18:56:14Z</time></trkpt>
   <trkpt lat="30.80363" lon="34.735849"><ele>612.2</ele><name>TP00522</name><time>2020-03-15T18:56:17Z</time></trkpt>
   <trkpt lat="30.803631" lon="34.735848"><ele>612.2</ele><name>TP00523</name><time>2020-03-15T18:56:20Z</time></trkpt>
   <trkpt lat="30.803635" lon="34.735839"><ele>612.2</ele><name>TP00524</name><time>2020-03-15T18:56:21Z</time></trkpt>
   <trkpt lat="30.803664" lon="34.735757"><ele>612</ele><name>TP00525</name><time>2020-03-15T18:56:25Z</time></trkpt>
   <trkpt lat="30.80369" lon="34.735667"><ele>611.8</ele><name>TP00526</name><time>2020-03-15T18:56:28Z</time></trkpt>
   <trkpt lat="30.803784" lon="34.735387"><ele>611.4</ele><name>TP00527</name><time>2020-03-15T18:56:37Z</time></trkpt>
   <trkpt lat="30.803799" lon="34.734891"><ele>611.2</ele><name>TP00528</name><time>2020-03-15T18:56:49Z</time></trkpt>
   <trkpt lat="30.803781" lon="34.734554"><ele>611</ele><name>TP00529</name><time>2020-03-15T18:56:56Z</time></trkpt>
   <trkpt lat="30.803895" lon="34.733938"><ele>611.6</ele><name>TP00530</name><time>2020-03-15T18:57:10Z</time></trkpt>
   <trkpt lat="30.803936" lon="34.733706"><ele>612.2</ele><name>TP00531</name><time>2020-03-15T18:57:15Z</time></trkpt>
   <trkpt lat="30.803916" lon="34.733471"><ele>612</ele><name>TP00532</name><time>2020-03-15T18:57:20Z</time></trkpt>
   <trkpt lat="30.803923" lon="34.733272"><ele>612.2</ele><name>TP00533</name><time>2020-03-15T18:57:24Z</time></trkpt>
   <trkpt lat="30.803989" lon="34.733032"><ele>612</ele><name>TP00534</name><time>2020-03-15T18:57:29Z</time></trkpt>
   <trkpt lat="30.803981" lon="34.732846"><ele>612.8</ele><name>TP00535</name><time>2020-03-15T18:57:33Z</time></trkpt>
   <trkpt lat="30.804044" lon="34.732619"><ele>613.6</ele><name>TP00536</name><time>2020-03-15T18:57:39Z</time></trkpt>
   <trkpt lat="30.804181" lon="34.732555"><ele>614.2</ele><name>TP00537</name><time>2020-03-15T18:57:43Z</time></trkpt>
   <trkpt lat="30.804256" lon="34.732563"><ele>614.8</ele><name>TP00538</name><time>2020-03-15T18:57:45Z</time></trkpt>
   <trkpt lat="30.804404" lon="34.732571"><ele>615.6</ele><name>TP00539</name><time>2020-03-15T18:57:49Z</time></trkpt>
   <trkpt lat="30.804512" lon="34.732559"><ele>615.8</ele><name>TP00540</name><time>2020-03-15T18:57:52Z</time></trkpt>
   <trkpt lat="30.804611" lon="34.732549"><ele>616.6</ele><name>TP00541</name><time>2020-03-15T18:57:55Z</time></trkpt>
   <trkpt lat="30.804644" lon="34.732539"><ele>616.8</ele><name>TP00542</name><time>2020-03-15T18:57:56Z</time></trkpt>
   <trkpt lat="30.804815" lon="34.732445"><ele>617.4</ele><name>TP00543</name><time>2020-03-15T18:58:01Z</time></trkpt>
   <trkpt lat="30.804883" lon="34.732407"><ele>617.8</ele><name>TP00544</name><time>2020-03-15T18:58:03Z</time></trkpt>
   <trkpt lat="30.805017" lon="34.732343"><ele>619</ele><name>TP00545</name><time>2020-03-15T18:58:07Z</time></trkpt>
   <trkpt lat="30.805229" lon="34.732297"><ele>620</ele><name>TP00546</name><time>2020-03-15T18:58:13Z</time></trkpt>
   <trkpt lat="30.805509" lon="34.732324"><ele>620.8</ele><name>TP00547</name><time>2020-03-15T18:58:21Z</time></trkpt>
   <trkpt lat="30.805578" lon="34.732351"><ele>621</ele><name>TP00548</name><time>2020-03-15T18:58:23Z</time></trkpt>
   <trkpt lat="30.805894" lon="34.732548"><ele>621.2</ele><name>TP00549</name><time>2020-03-15T18:58:32Z</time></trkpt>
   <trkpt lat="30.806152" lon="34.732602"><ele>622</ele><name>TP00550</name><time>2020-03-15T18:58:40Z</time></trkpt>
   <trkpt lat="30.806401" lon="34.732622"><ele>623</ele><name>TP00551</name><time>2020-03-15T18:58:48Z</time></trkpt>
   <trkpt lat="30.806529" lon="34.732618"><ele>624</ele><name>TP00552</name><time>2020-03-15T18:58:52Z</time></trkpt>
   <trkpt lat="30.806765" lon="34.732566"><ele>625</ele><name>TP00553</name><time>2020-03-15T18:58:59Z</time></trkpt>
   <trkpt lat="30.806978" lon="34.732577"><ele>626</ele><name>TP00554</name><time>2020-03-15T18:59:06Z</time></trkpt>
   <trkpt lat="30.807008" lon="34.732579"><ele>626.4</ele><name>TP00555</name><time>2020-03-15T18:59:07Z</time></trkpt>
   <trkpt lat="30.807175" lon="34.73255"><ele>627.6</ele><name>TP00556</name><time>2020-03-15T18:59:13Z</time></trkpt>
   <trkpt lat="30.80727" lon="34.732467"><ele>628.8</ele><name>TP00557</name><time>2020-03-15T18:59:18Z</time></trkpt>
   <trkpt lat="30.807393" lon="34.732329"><ele>630</ele><name>TP00558</name><time>2020-03-15T18:59:25Z</time></trkpt>
   <trkpt lat="30.80746" lon="34.732254"><ele>631.2</ele><name>TP00559</name><time>2020-03-15T18:59:29Z</time></trkpt>
   <trkpt lat="30.807531" lon="34.732162"><ele>632.2</ele><name>TP00560</name><time>2020-03-15T18:59:34Z</time></trkpt>
   <trkpt lat="30.807623" lon="34.731929"><ele>633.2</ele><name>TP00561</name><time>2020-03-15T18:59:44Z</time></trkpt>
   <trkpt lat="30.807687" lon="34.731809"><ele>634.6</ele><name>TP00562</name><time>2020-03-15T18:59:50Z</time></trkpt>
   <trkpt lat="30.807752" lon="34.7317"><ele>635.6</ele><name>TP00563</name><time>2020-03-15T18:59:56Z</time></trkpt>
   <trkpt lat="30.807826" lon="34.73162"><ele>636.8</ele><name>TP00564</name><time>2020-03-15T19:00:01Z</time></trkpt>
   <trkpt lat="30.80789" lon="34.731571"><ele>638</ele><name>TP00565</name><time>2020-03-15T19:00:05Z</time></trkpt>
   <trkpt lat="30.808002" lon="34.731457"><ele>639</ele><name>TP00566</name><time>2020-03-15T19:00:12Z</time></trkpt>
   <trkpt lat="30.808012" lon="34.731338"><ele>640</ele><name>TP00567</name><time>2020-03-15T19:00:17Z</time></trkpt>
   <trkpt lat="30.808034" lon="34.731249"><ele>641.2</ele><name>TP00568</name><time>2020-03-15T19:00:21Z</time></trkpt>
   <trkpt lat="30.8081" lon="34.731144"><ele>642.4</ele><name>TP00569</name><time>2020-03-15T19:00:27Z</time></trkpt>
   <trkpt lat="30.80817" lon="34.731059"><ele>643.4</ele><name>TP00570</name><time>2020-03-15T19:00:32Z</time></trkpt>
   <trkpt lat="30.808252" lon="34.730998"><ele>644.6</ele><name>TP00571</name><time>2020-03-15T19:00:37Z</time></trkpt>
   <trkpt lat="30.808349" lon="34.73098"><ele>645.8</ele><name>TP00572</name><time>2020-03-15T19:00:42Z</time></trkpt>
   <trkpt lat="30.80839" lon="34.730967"><ele>646</ele><name>TP00573</name><time>2020-03-15T19:00:44Z</time></trkpt>
   <trkpt lat="30.808429" lon="34.730891"><ele>646.4</ele><name>TP00574</name><time>2020-03-15T19:00:48Z</time></trkpt>
   <trkpt lat="30.808499" lon="34.730676"><ele>646.8</ele><name>TP00575</name><time>2020-03-15T19:00:56Z</time></trkpt>
   <trkpt lat="30.808513" lon="34.730482"><ele>646.4</ele><name>TP00576</name><time>2020-03-15T19:01:02Z</time></trkpt>
   <trkpt lat="30.808593" lon="34.730286"><ele>646.8</ele><name>TP00577</name><time>2020-03-15T19:01:09Z</time></trkpt>
   <trkpt lat="30.808667" lon="34.730143"><ele>648</ele><name>TP00578</name><time>2020-03-15T19:01:16Z</time></trkpt>
   <trkpt lat="30.808698" lon="34.730094"><ele>648.8</ele><name>TP00579</name><time>2020-03-15T19:01:23Z</time></trkpt>
   <trkpt lat="30.808698" lon="34.730094"><ele>648.8</ele><name>TP00580</name><time>2020-03-15T19:01:31Z</time></trkpt>
   <trkpt lat="30.808698" lon="34.730094"><ele>648.6</ele><name>TP00581</name><time>2020-03-15T19:01:36Z</time></trkpt>
   <trkpt lat="30.808698" lon="34.730094"><ele>648.8</ele><name>TP00582</name><time>2020-03-15T19:01:40Z</time></trkpt>
   <trkpt lat="30.808698" lon="34.730094"><ele>648.6</ele><name>TP00583</name><time>2020-03-15T19:01:44Z</time></trkpt>
   <trkpt lat="30.808698" lon="34.730094"><ele>648.8</ele><name>TP00584</name><time>2020-03-15T19:01:50Z</time></trkpt>
   <trkpt lat="30.808698" lon="34.730094"><ele>648.8</ele><name>TP00585</name><time>2020-03-15T19:01:54Z</time></trkpt>
   <trkpt lat="30.808698" lon="34.730094"><ele>649</ele><name>TP00586</name><time>2020-03-15T19:01:55Z</time></trkpt>
   <trkpt lat="30.808698" lon="34.730094"><ele>649</ele><name>TP00587</name><time>2020-03-15T19:01:59Z</time></trkpt>
   <trkpt lat="30.808698" lon="34.730094"><ele>648.8</ele><name>TP00588</name><time>2020-03-15T19:02:09Z</time></trkpt>
   <trkpt lat="30.808698" lon="34.730094"><ele>648.6</ele><name>TP00589</name><time>2020-03-15T19:02:26Z</time></trkpt>
   <trkpt lat="30.808698" lon="34.730094"><ele>648.4</ele><name>TP00590</name><time>2020-03-15T19:02:29Z</time></trkpt>
   <trkpt lat="30.808708" lon="34.730078"><ele>648.8</ele><name>TP00591</name><time>2020-03-15T19:02:46Z</time></trkpt>
   <trkpt lat="30.808722" lon="34.730067"><ele>649</ele><name>TP00592</name><time>2020-03-15T19:02:48Z</time></trkpt>
   <trkpt lat="30.808875" lon="34.729951"><ele>648.6</ele><name>TP00593</name><time>2020-03-15T19:02:57Z</time></trkpt>
   <trkpt lat="30.809203" lon="34.729759"><ele>649</ele><name>TP00594</name><time>2020-03-15T19:03:11Z</time></trkpt>
   <trkpt lat="30.809385" lon="34.729589"><ele>647.8</ele><name>TP00595</name><time>2020-03-15T19:03:24Z</time></trkpt>
   <trkpt lat="30.809831" lon="34.729225"><ele>647.2</ele><name>TP00596</name><time>2020-03-15T19:03:46Z</time></trkpt>
   <trkpt lat="30.810034" lon="34.729188"><ele>646.8</ele><name>TP00597</name><time>2020-03-15T19:03:55Z</time></trkpt>
   <trkpt lat="30.810063" lon="34.729183"><ele>646.6</ele><name>TP00598</name><time>2020-03-15T19:03:56Z</time></trkpt>
   <trkpt lat="30.810331" lon="34.729186"><ele>645.6</ele><name>TP00599</name><time>2020-03-15T19:04:04Z</time></trkpt>
   <trkpt lat="30.810683" lon="34.729146"><ele>644.8</ele><name>TP00600</name><time>2020-03-15T19:04:14Z</time></trkpt>
   <trkpt lat="30.810773" lon="34.729154"><ele>644.8</ele><name>TP00601</name><time>2020-03-15T19:04:17Z</time></trkpt>
   <trkpt lat="30.810809" lon="34.72916"><ele>644.4</ele><name>TP00602</name><time>2020-03-15T19:04:18Z</time></trkpt>
   <trkpt lat="30.81092" lon="34.729182"><ele>644.4</ele><name>TP00603</name><time>2020-03-15T19:04:22Z</time></trkpt>
   <trkpt lat="30.810947" lon="34.729197"><ele>644.4</ele><name>TP00604</name><time>2020-03-15T19:04:23Z</time></trkpt>
   <trkpt lat="30.81103" lon="34.729252"><ele>645</ele><name>TP00605</name><time>2020-03-15T19:04:26Z</time></trkpt>
   <trkpt lat="30.811079" lon="34.729336"><ele>645.6</ele><name>TP00606</name><time>2020-03-15T19:04:29Z</time></trkpt>
   <trkpt lat="30.811192" lon="34.729516"><ele>645.4</ele><name>TP00607</name><time>2020-03-15T19:04:34Z</time></trkpt>
   <trkpt lat="30.8113" lon="34.729708"><ele>645.4</ele><name>TP00608</name><time>2020-03-15T19:04:39Z</time></trkpt>
   <trkpt lat="30.81137" lon="34.729875"><ele>646</ele><name>TP00609</name><time>2020-03-15T19:04:43Z</time></trkpt>
   <trkpt lat="30.811485" lon="34.7301"><ele>646.4</ele><name>TP00610</name><time>2020-03-15T19:04:49Z</time></trkpt>
   <trkpt lat="30.811752" lon="34.730278"><ele>646</ele><name>TP00611</name><time>2020-03-15T19:04:57Z</time></trkpt>
   <trkpt lat="30.812062" lon="34.730304"><ele>646.4</ele><name>TP00612</name><time>2020-03-15T19:05:05Z</time></trkpt>
   <trkpt lat="30.812459" lon="34.730131"><ele>646.2</ele><name>TP00613</name><time>2020-03-15T19:05:16Z</time></trkpt>
   <trkpt lat="30.812555" lon="34.73013"><ele>646.6</ele><name>TP00614</name><time>2020-03-15T19:05:19Z</time></trkpt>
   <trkpt lat="30.812679" lon="34.730133"><ele>646.6</ele><name>TP00615</name><time>2020-03-15T19:05:23Z</time></trkpt>
   <trkpt lat="30.812759" lon="34.730143"><ele>646.4</ele><name>TP00616</name><time>2020-03-15T19:05:25Z</time></trkpt>
   <trkpt lat="30.812876" lon="34.730177"><ele>645.8</ele><name>TP00617</name><time>2020-03-15T19:05:28Z</time></trkpt>
   <trkpt lat="30.812906" lon="34.730194"><ele>645.6</ele><name>TP00618</name><time>2020-03-15T19:05:29Z</time></trkpt>
   <trkpt lat="30.813089" lon="34.730226"><ele>645.6</ele><name>TP00619</name><time>2020-03-15T19:05:35Z</time></trkpt>
   <trkpt lat="30.813255" lon="34.730244"><ele>645.2</ele><name>TP00620</name><time>2020-03-15T19:05:40Z</time></trkpt>
   <trkpt lat="30.813352" lon="34.730279"><ele>644.4</ele><name>TP00621</name><time>2020-03-15T19:05:43Z</time></trkpt>
   <trkpt lat="30.813517" lon="34.730368"><ele>644</ele><name>TP00622</name><time>2020-03-15T19:05:51Z</time></trkpt>
   <trkpt lat="30.813536" lon="34.730405"><ele>643</ele><name>TP00623</name><time>2020-03-15T19:05:56Z</time></trkpt>
   <trkpt lat="30.813535" lon="34.730404"><ele>642.2</ele><name>TP00624</name><time>2020-03-15T19:06:08Z</time></trkpt>
   <trkpt lat="30.813535" lon="34.730403"><ele>642.2</ele><name>TP00625</name><time>2020-03-15T19:06:12Z</time></trkpt>
   <trkpt lat="30.813535" lon="34.730403"><ele>642.6</ele><name>TP00626</name><time>2020-03-15T19:06:17Z</time></trkpt>
   <trkpt lat="30.813557" lon="34.730409"><ele>643.2</ele><name>TP00627</name><time>2020-03-15T19:06:27Z</time></trkpt>
   <trkpt lat="30.813593" lon="34.730408"><ele>643</ele><name>TP00628</name><time>2020-03-15T19:06:30Z</time></trkpt>
   <trkpt lat="30.813657" lon="34.730416"><ele>642.8</ele><name>TP00629</name><time>2020-03-15T19:06:33Z</time></trkpt>
   <trkpt lat="30.813817" lon="34.730418"><ele>642</ele><name>TP00630</name><time>2020-03-15T19:06:38Z</time></trkpt>
   <trkpt lat="30.813914" lon="34.730377"><ele>641</ele><name>TP00631</name><time>2020-03-15T19:06:41Z</time></trkpt>
   <trkpt lat="30.814023" lon="34.730321"><ele>639.8</ele><name>TP00632</name><time>2020-03-15T19:06:45Z</time></trkpt>
   <trkpt lat="30.814045" lon="34.730287"><ele>639.4</ele><name>TP00633</name><time>2020-03-15T19:06:47Z</time></trkpt>
   <trkpt lat="30.814053" lon="34.730243"><ele>638.8</ele><name>TP00634</name><time>2020-03-15T19:06:49Z</time></trkpt>
   <trkpt lat="30.814131" lon="34.730071"><ele>637.8</ele><name>TP00635</name><time>2020-03-15T19:06:56Z</time></trkpt>
   <trkpt lat="30.81419" lon="34.73005"><ele>637.2</ele><name>TP00636</name><time>2020-03-15T19:06:59Z</time></trkpt>
   <trkpt lat="30.814235" lon="34.730037"><ele>636.8</ele><name>TP00637</name><time>2020-03-15T19:07:01Z</time></trkpt>
   <trkpt lat="30.814262" lon="34.730026"><ele>636.6</ele><name>TP00638</name><time>2020-03-15T19:07:05Z</time></trkpt>
   <trkpt lat="30.814263" lon="34.730029"><ele>636.4</ele><name>TP00639</name><time>2020-03-15T19:07:15Z</time></trkpt>
   <trkpt lat="30.814333" lon="34.730043"><ele>636</ele><name>TP00640</name><time>2020-03-15T19:07:26Z</time></trkpt>
   <trkpt lat="30.814356" lon="34.730041"><ele>635.8</ele><name>TP00641</name><time>2020-03-15T19:07:27Z</time></trkpt>
   <trkpt lat="30.814404" lon="34.730024"><ele>635</ele><name>TP00642</name><time>2020-03-15T19:07:29Z</time></trkpt>
   <trkpt lat="30.814425" lon="34.730016"><ele>634.8</ele><name>TP00643</name><time>2020-03-15T19:07:30Z</time></trkpt>
   <trkpt lat="30.814502" lon="34.729981"><ele>633.6</ele><name>TP00644</name><time>2020-03-15T19:07:33Z</time></trkpt>
   <trkpt lat="30.814599" lon="34.729944"><ele>632.4</ele><name>TP00645</name><time>2020-03-15T19:07:36Z</time></trkpt>
   <trkpt lat="30.814679" lon="34.72992"><ele>631.4</ele><name>TP00646</name><time>2020-03-15T19:07:39Z</time></trkpt>
   <trkpt lat="30.81485" lon="34.730031"><ele>630.2</ele><name>TP00647</name><time>2020-03-15T19:07:47Z</time></trkpt>
   <trkpt lat="30.814969" lon="34.730122"><ele>629.6</ele><name>TP00648</name><time>2020-03-15T19:07:51Z</time></trkpt>
   <trkpt lat="30.815039" lon="34.730146"><ele>629.2</ele><name>TP00649</name><time>2020-03-15T19:07:53Z</time></trkpt>
   <trkpt lat="30.815158" lon="34.730171"><ele>629.4</ele><name>TP00650</name><time>2020-03-15T19:07:56Z</time></trkpt>
   <trkpt lat="30.815279" lon="34.730188"><ele>629.6</ele><name>TP00651</name><time>2020-03-15T19:07:59Z</time></trkpt>
   <trkpt lat="30.815513" lon="34.730136"><ele>628.2</ele><name>TP00652</name><time>2020-03-15T19:08:04Z</time></trkpt>
   <trkpt lat="30.81556" lon="34.730122"><ele>627.8</ele><name>TP00653</name><time>2020-03-15T19:08:05Z</time></trkpt>
   <trkpt lat="30.815699" lon="34.730058"><ele>627.2</ele><name>TP00654</name><time>2020-03-15T19:08:08Z</time></trkpt>
   <trkpt lat="30.815861" lon="34.730004"><ele>626.6</ele><name>TP00655</name><time>2020-03-15T19:08:11Z</time></trkpt>
   <trkpt lat="30.815958" lon="34.729953"><ele>626</ele><name>TP00656</name><time>2020-03-15T19:08:13Z</time></trkpt>
   <trkpt lat="30.816044" lon="34.729909"><ele>625.8</ele><name>TP00657</name><time>2020-03-15T19:08:15Z</time></trkpt>
   <trkpt lat="30.816353" lon="34.729824"><ele>625.4</ele><name>TP00658</name><time>2020-03-15T19:08:23Z</time></trkpt>
   <trkpt lat="30.816422" lon="34.729821"><ele>625</ele><name>TP00659</name><time>2020-03-15T19:08:25Z</time></trkpt>
   <trkpt lat="30.816609" lon="34.729849"><ele>624</ele><name>TP00660</name><time>2020-03-15T19:08:30Z</time></trkpt>
   <trkpt lat="30.816763" lon="34.729874"><ele>623.2</ele><name>TP00661</name><time>2020-03-15T19:08:34Z</time></trkpt>
   <trkpt lat="30.816878" lon="34.729852"><ele>622.6</ele><name>TP00662</name><time>2020-03-15T19:08:37Z</time></trkpt>
   <trkpt lat="30.817081" lon="34.729962"><ele>622</ele><name>TP00663</name><time>2020-03-15T19:08:43Z</time></trkpt>
   <trkpt lat="30.81711" lon="34.729979"><ele>622</ele><name>TP00664</name><time>2020-03-15T19:08:44Z</time></trkpt>
   <trkpt lat="30.817143" lon="34.72998"><ele>621.6</ele><name>TP00665</name><time>2020-03-15T19:08:45Z</time></trkpt>
   <trkpt lat="30.81721" lon="34.729912"><ele>620.8</ele><name>TP00666</name><time>2020-03-15T19:08:48Z</time></trkpt>
   <trkpt lat="30.817257" lon="34.729849"><ele>620.4</ele><name>TP00667</name><time>2020-03-15T19:08:50Z</time></trkpt>
   <trkpt lat="30.817445" lon="34.729663"><ele>619.4</ele><name>TP00668</name><time>2020-03-15T19:08:56Z</time></trkpt>
   <trkpt lat="30.817704" lon="34.729511"><ele>618.4</ele><name>TP00669</name><time>2020-03-15T19:09:04Z</time></trkpt>
   <trkpt lat="30.817766" lon="34.729458"><ele>618.4</ele><name>TP00670</name><time>2020-03-15T19:09:06Z</time></trkpt>
   <trkpt lat="30.81811" lon="34.72912"><ele>617</ele><name>TP00671</name><time>2020-03-15T19:09:18Z</time></trkpt>
   <trkpt lat="30.818278" lon="34.729021"><ele>616</ele><name>TP00672</name><time>2020-03-15T19:09:23Z</time></trkpt>
   <trkpt lat="30.818415" lon="34.728938"><ele>614.6</ele><name>TP00673</name><time>2020-03-15T19:09:27Z</time></trkpt>
   <trkpt lat="30.818515" lon="34.728921"><ele>613.4</ele><name>TP00674</name><time>2020-03-15T19:09:30Z</time></trkpt>
   <trkpt lat="30.818621" lon="34.728966"><ele>612.4</ele><name>TP00675</name><time>2020-03-15T19:09:34Z</time></trkpt>
   <trkpt lat="30.81872" lon="34.728999"><ele>611</ele><name>TP00676</name><time>2020-03-15T19:09:38Z</time></trkpt>
   <trkpt lat="30.818837" lon="34.729013"><ele>609.4</ele><name>TP00677</name><time>2020-03-15T19:09:42Z</time></trkpt>
   <trkpt lat="30.818939" lon="34.729016"><ele>608.2</ele><name>TP00678</name><time>2020-03-15T19:09:45Z</time></trkpt>
   <trkpt lat="30.819082" lon="34.729018"><ele>607</ele><name>TP00679</name><time>2020-03-15T19:09:49Z</time></trkpt>
   <trkpt lat="30.819208" lon="34.729003"><ele>606</ele><name>TP00680</name><time>2020-03-15T19:09:52Z</time></trkpt>
   <trkpt lat="30.819304" lon="34.729006"><ele>605</ele><name>TP00681</name><time>2020-03-15T19:09:55Z</time></trkpt>
   <trkpt lat="30.819381" lon="34.729031"><ele>604</ele><name>TP00682</name><time>2020-03-15T19:09:58Z</time></trkpt>
   <trkpt lat="30.819456" lon="34.729061"><ele>602.8</ele><name>TP00683</name><time>2020-03-15T19:10:01Z</time></trkpt>
   <trkpt lat="30.819617" lon="34.729152"><ele>601.6</ele><name>TP00684</name><time>2020-03-15T19:10:08Z</time></trkpt>
   <trkpt lat="30.819751" lon="34.72926"><ele>600.6</ele><name>TP00685</name><time>2020-03-15T19:10:12Z</time></trkpt>
   <trkpt lat="30.819872" lon="34.729347"><ele>600</ele><name>TP00686</name><time>2020-03-15T19:10:15Z</time></trkpt>
   <trkpt lat="30.820045" lon="34.729587"><ele>599.6</ele><name>TP00687</name><time>2020-03-15T19:10:21Z</time></trkpt>
   <trkpt lat="30.820178" lon="34.729696"><ele>598.6</ele><name>TP00688</name><time>2020-03-15T19:10:25Z</time></trkpt>
   <trkpt lat="30.820211" lon="34.729709"><ele>598.4</ele><name>TP00689</name><time>2020-03-15T19:10:26Z</time></trkpt>
   <trkpt lat="30.820245" lon="34.729721"><ele>598.2</ele><name>TP00690</name><time>2020-03-15T19:10:27Z</time></trkpt>
   <trkpt lat="30.820345" lon="34.729778"><ele>597.2</ele><name>TP00691</name><time>2020-03-15T19:10:30Z</time></trkpt>
   <trkpt lat="30.820478" lon="34.729876"><ele>596.2</ele><name>TP00692</name><time>2020-03-15T19:10:35Z</time></trkpt>
   <trkpt lat="30.820605" lon="34.729987"><ele>594.8</ele><name>TP00693</name><time>2020-03-15T19:10:41Z</time></trkpt>
   <trkpt lat="30.820724" lon="34.730135"><ele>593.8</ele><name>TP00694</name><time>2020-03-15T19:10:46Z</time></trkpt>
   <trkpt lat="30.820838" lon="34.730337"><ele>592.8</ele><name>TP00695</name><time>2020-03-15T19:10:52Z</time></trkpt>
   <trkpt lat="30.820901" lon="34.730407"><ele>591.6</ele><name>TP00696</name><time>2020-03-15T19:10:55Z</time></trkpt>
   <trkpt lat="30.820964" lon="34.730411"><ele>590.2</ele><name>TP00697</name><time>2020-03-15T19:10:57Z</time></trkpt>
   <trkpt lat="30.821072" lon="34.73035"><ele>588.4</ele><name>TP00698</name><time>2020-03-15T19:11:00Z</time></trkpt>
   <trkpt lat="30.821147" lon="34.7303"><ele>587.6</ele><name>TP00699</name><time>2020-03-15T19:11:02Z</time></trkpt>
   <trkpt lat="30.821182" lon="34.730275"><ele>587.2</ele><name>TP00700</name><time>2020-03-15T19:11:03Z</time></trkpt>
   <trkpt lat="30.821267" lon="34.730179"><ele>586.2</ele><name>TP00701</name><time>2020-03-15T19:11:06Z</time></trkpt>
   <trkpt lat="30.821294" lon="34.730141"><ele>585.6</ele><name>TP00702</name><time>2020-03-15T19:11:07Z</time></trkpt>
   <trkpt lat="30.821345" lon="34.73006"><ele>584.8</ele><name>TP00703</name><time>2020-03-15T19:11:09Z</time></trkpt>
   <trkpt lat="30.82141" lon="34.729928"><ele>583.8</ele><name>TP00704</name><time>2020-03-15T19:11:13Z</time></trkpt>
   <trkpt lat="30.821466" lon="34.729756"><ele>582.4</ele><name>TP00705</name><time>2020-03-15T19:11:17Z</time></trkpt>
   <trkpt lat="30.821604" lon="34.729427"><ele>581.2</ele><name>TP00706</name><time>2020-03-15T19:11:24Z</time></trkpt>
   <trkpt lat="30.821671" lon="34.729301"><ele>580.2</ele><name>TP00707</name><time>2020-03-15T19:11:29Z</time></trkpt>
   <trkpt lat="30.821759" lon="34.729246"><ele>578.8</ele><name>TP00708</name><time>2020-03-15T19:11:34Z</time></trkpt>
   <trkpt lat="30.821844" lon="34.729231"><ele>578</ele><name>TP00709</name><time>2020-03-15T19:11:39Z</time></trkpt>
   <trkpt lat="30.821891" lon="34.729282"><ele>577.8</ele><name>TP00710</name><time>2020-03-15T19:11:42Z</time></trkpt>
   <trkpt lat="30.821908" lon="34.729295"><ele>577.4</ele><name>TP00711</name><time>2020-03-15T19:11:43Z</time></trkpt>
   <trkpt lat="30.821979" lon="34.729327"><ele>576.6</ele><name>TP00712</name><time>2020-03-15T19:11:46Z</time></trkpt>
   <trkpt lat="30.822223" lon="34.729593"><ele>575.6</ele><name>TP00713</name><time>2020-03-15T19:11:57Z</time></trkpt>
   <trkpt lat="30.822303" lon="34.729707"><ele>575.2</ele><name>TP00714</name><time>2020-03-15T19:12:00Z</time></trkpt>
   <trkpt lat="30.822387" lon="34.729904"><ele>575</ele><name>TP00715</name><time>2020-03-15T19:12:05Z</time></trkpt>
   <trkpt lat="30.82243" lon="34.729963"><ele>574.4</ele><name>TP00716</name><time>2020-03-15T19:12:07Z</time></trkpt>
   <trkpt lat="30.822488" lon="34.729999"><ele>573</ele><name>TP00717</name><time>2020-03-15T19:12:09Z</time></trkpt>
   <trkpt lat="30.822525" lon="34.730008"><ele>572.4</ele><name>TP00718</name><time>2020-03-15T19:12:10Z</time></trkpt>
   <trkpt lat="30.822599" lon="34.730028"><ele>571.6</ele><name>TP00719</name><time>2020-03-15T19:12:12Z</time></trkpt>
   <trkpt lat="30.822764" lon="34.730066"><ele>570.6</ele><name>TP00720</name><time>2020-03-15T19:12:17Z</time></trkpt>
   <trkpt lat="30.82285" lon="34.73007"><ele>569.2</ele><name>TP00721</name><time>2020-03-15T19:12:20Z</time></trkpt>
   <trkpt lat="30.822956" lon="34.730052"><ele>568.2</ele><name>TP00722</name><time>2020-03-15T19:12:24Z</time></trkpt>
   <trkpt lat="30.823046" lon="34.730008"><ele>566.8</ele><name>TP00723</name><time>2020-03-15T19:12:27Z</time></trkpt>
   <trkpt lat="30.823142" lon="34.729899"><ele>565.6</ele><name>TP00724</name><time>2020-03-15T19:12:31Z</time></trkpt>
   <trkpt lat="30.823268" lon="34.729798"><ele>564.2</ele><name>TP00725</name><time>2020-03-15T19:12:36Z</time></trkpt>
   <trkpt lat="30.823383" lon="34.7298"><ele>562.8</ele><name>TP00726</name><time>2020-03-15T19:12:39Z</time></trkpt>
   <trkpt lat="30.823514" lon="34.729771"><ele>561.6</ele><name>TP00727</name><time>2020-03-15T19:12:43Z</time></trkpt>
   <trkpt lat="30.82356" lon="34.729729"><ele>560.6</ele><name>TP00728</name><time>2020-03-15T19:12:45Z</time></trkpt>
   <trkpt lat="30.823574" lon="34.729696"><ele>560.2</ele><name>TP00729</name><time>2020-03-15T19:12:46Z</time></trkpt>
   <trkpt lat="30.823607" lon="34.729579"><ele>559.2</ele><name>TP00730</name><time>2020-03-15T19:12:49Z</time></trkpt>
   <trkpt lat="30.823653" lon="34.729384"><ele>558.4</ele><name>TP00731</name><time>2020-03-15T19:12:54Z</time></trkpt>
   <trkpt lat="30.823704" lon="34.729246"><ele>557.2</ele><name>TP00732</name><time>2020-03-15T19:12:59Z</time></trkpt>
   <trkpt lat="30.823793" lon="34.729164"><ele>555.8</ele><name>TP00733</name><time>2020-03-15T19:13:05Z</time></trkpt>
   <trkpt lat="30.823914" lon="34.729181"><ele>554.6</ele><name>TP00734</name><time>2020-03-15T19:13:11Z</time></trkpt>
   <trkpt lat="30.824009" lon="34.729361"><ele>553.6</ele><name>TP00735</name><time>2020-03-15T19:13:16Z</time></trkpt>
   <trkpt lat="30.824197" lon="34.729635"><ele>552.4</ele><name>TP00736</name><time>2020-03-15T19:13:25Z</time></trkpt>
   <trkpt lat="30.824275" lon="34.729696"><ele>551.2</ele><name>TP00737</name><time>2020-03-15T19:13:28Z</time></trkpt>
   <trkpt lat="30.824356" lon="34.729743"><ele>549.8</ele><name>TP00738</name><time>2020-03-15T19:13:31Z</time></trkpt>
   <trkpt lat="30.824407" lon="34.729765"><ele>548.6</ele><name>TP00739</name><time>2020-03-15T19:13:33Z</time></trkpt>
   <trkpt lat="30.824525" lon="34.729858"><ele>547.4</ele><name>TP00740</name><time>2020-03-15T19:13:39Z</time></trkpt>
   <trkpt lat="30.824549" lon="34.729863"><ele>546.8</ele><name>TP00741</name><time>2020-03-15T19:13:40Z</time></trkpt>
   <trkpt lat="30.824577" lon="34.729857"><ele>546</ele><name>TP00742</name><time>2020-03-15T19:13:41Z</time></trkpt>
   <trkpt lat="30.824628" lon="34.729819"><ele>545</ele><name>TP00743</name><time>2020-03-15T19:13:43Z</time></trkpt>
   <trkpt lat="30.824649" lon="34.729744"><ele>544</ele><name>TP00744</name><time>2020-03-15T19:13:45Z</time></trkpt>
   <trkpt lat="30.824653" lon="34.729701"><ele>543.6</ele><name>TP00745</name><time>2020-03-15T19:13:46Z</time></trkpt>
   <trkpt lat="30.824655" lon="34.729616"><ele>542.8</ele><name>TP00746</name><time>2020-03-15T19:13:48Z</time></trkpt>
   <trkpt lat="30.824654" lon="34.729484"><ele>541.6</ele><name>TP00747</name><time>2020-03-15T19:13:51Z</time></trkpt>
   <trkpt lat="30.82466" lon="34.729379"><ele>540.4</ele><name>TP00748</name><time>2020-03-15T19:13:53Z</time></trkpt>
   <trkpt lat="30.824657" lon="34.729323"><ele>540.2</ele><name>TP00749</name><time>2020-03-15T19:13:54Z</time></trkpt>
   <trkpt lat="30.824613" lon="34.729032"><ele>539.6</ele><name>TP00750</name><time>2020-03-15T19:14:00Z</time></trkpt>
   <trkpt lat="30.8246" lon="34.728972"><ele>539.6</ele><name>TP00751</name><time>2020-03-15T19:14:02Z</time></trkpt>
   <trkpt lat="30.824599" lon="34.728936"><ele>539.2</ele><name>TP00752</name><time>2020-03-15T19:14:04Z</time></trkpt>
   <trkpt lat="30.824616" lon="34.72892"><ele>538.6</ele><name>TP00753</name><time>2020-03-15T19:14:07Z</time></trkpt>
   <trkpt lat="30.82463" lon="34.728923"><ele>538.4</ele><name>TP00754</name><time>2020-03-15T19:14:08Z</time></trkpt>
   <trkpt lat="30.824683" lon="34.728976"><ele>538.4</ele><name>TP00755</name><time>2020-03-15T19:14:16Z</time></trkpt>
   <trkpt lat="30.8248" lon="34.72909"><ele>537.6</ele><name>TP00756</name><time>2020-03-15T19:14:28Z</time></trkpt>
   <trkpt lat="30.824824" lon="34.729104"><ele>537.4</ele><name>TP00757</name><time>2020-03-15T19:14:29Z</time></trkpt>
   <trkpt lat="30.825005" lon="34.729189"><ele>537</ele><name>TP00758</name><time>2020-03-15T19:14:36Z</time></trkpt>
   <trkpt lat="30.825165" lon="34.729212"><ele>536.4</ele><name>TP00759</name><time>2020-03-15T19:14:40Z</time></trkpt>
   <trkpt lat="30.825404" lon="34.72923"><ele>535.2</ele><name>TP00760</name><time>2020-03-15T19:14:47Z</time></trkpt>
   <trkpt lat="30.825452" lon="34.729255"><ele>534.8</ele><name>TP00761</name><time>2020-03-15T19:14:49Z</time></trkpt>
   <trkpt lat="30.825532" lon="34.729273"><ele>534.4</ele><name>TP00762</name><time>2020-03-15T19:14:51Z</time></trkpt>
   <trkpt lat="30.825574" lon="34.729288"><ele>534</ele><name>TP00763</name><time>2020-03-15T19:14:52Z</time></trkpt>
   <trkpt lat="30.825766" lon="34.729346"><ele>534</ele><name>TP00764</name><time>2020-03-15T19:14:58Z</time></trkpt>
   <trkpt lat="30.825908" lon="34.729427"><ele>533.4</ele><name>TP00765</name><time>2020-03-15T19:15:03Z</time></trkpt>
   <trkpt lat="30.826089" lon="34.729585"><ele>534</ele><name>TP00766</name><time>2020-03-15T19:15:11Z</time></trkpt>
   <trkpt lat="30.826114" lon="34.729607"><ele>533.8</ele><name>TP00767</name><time>2020-03-15T19:15:13Z</time></trkpt>
   <trkpt lat="30.826143" lon="34.729612"><ele>533.4</ele><name>TP00768</name><time>2020-03-15T19:15:15Z</time></trkpt>
   <trkpt lat="30.826178" lon="34.729601"><ele>533</ele><name>TP00769</name><time>2020-03-15T19:15:17Z</time></trkpt>
   <trkpt lat="30.826239" lon="34.729528"><ele>531.8</ele><name>TP00770</name><time>2020-03-15T19:15:20Z</time></trkpt>
   <trkpt lat="30.826301" lon="34.729462"><ele>531.4</ele><name>TP00771</name><time>2020-03-15T19:15:23Z</time></trkpt>
   <trkpt lat="30.826358" lon="34.729438"><ele>531.6</ele><name>TP00772</name><time>2020-03-15T19:15:25Z</time></trkpt>
   <trkpt lat="30.82639" lon="34.72943"><ele>531.6</ele><name>TP00773</name><time>2020-03-15T19:15:26Z</time></trkpt>
   <trkpt lat="30.826454" lon="34.729417"><ele>532</ele><name>TP00774</name><time>2020-03-15T19:15:28Z</time></trkpt>
   <trkpt lat="30.826534" lon="34.729386"><ele>532.8</ele><name>TP00775</name><time>2020-03-15T19:15:31Z</time></trkpt>
   <trkpt lat="30.826591" lon="34.729369"><ele>533.2</ele><name>TP00776</name><time>2020-03-15T19:15:33Z</time></trkpt>
   <trkpt lat="30.826729" lon="34.729339"><ele>534.2</ele><name>TP00777</name><time>2020-03-15T19:15:38Z</time></trkpt>
   <trkpt lat="30.826945" lon="34.729245"><ele>533.4</ele><name>TP00778</name><time>2020-03-15T19:15:45Z</time></trkpt>
   <trkpt lat="30.826984" lon="34.729229"><ele>533.2</ele><name>TP00779</name><time>2020-03-15T19:15:46Z</time></trkpt>
   <trkpt lat="30.827155" lon="34.729135"><ele>531.8</ele><name>TP00780</name><time>2020-03-15T19:15:50Z</time></trkpt>
   <trkpt lat="30.827311" lon="34.729073"><ele>531.4</ele><name>TP00781</name><time>2020-03-15T19:15:54Z</time></trkpt>
   <trkpt lat="30.827525" lon="34.729212"><ele>530.8</ele><name>TP00782</name><time>2020-03-15T19:16:00Z</time></trkpt>
   <trkpt lat="30.82756" lon="34.729238"><ele>530.8</ele><name>TP00783</name><time>2020-03-15T19:16:01Z</time></trkpt>
   <trkpt lat="30.827817" lon="34.729453"><ele>530</ele><name>TP00784</name><time>2020-03-15T19:16:08Z</time></trkpt>
   <trkpt lat="30.827899" lon="34.729533"><ele>529.8</ele><name>TP00785</name><time>2020-03-15T19:16:10Z</time></trkpt>
   <trkpt lat="30.828001" lon="34.729638"><ele>528.8</ele><name>TP00786</name><time>2020-03-15T19:16:12Z</time></trkpt>
   <trkpt lat="30.828055" lon="34.729702"><ele>528.2</ele><name>TP00787</name><time>2020-03-15T19:16:13Z</time></trkpt>
   <trkpt lat="30.828163" lon="34.729827"><ele>527.2</ele><name>TP00788</name><time>2020-03-15T19:16:15Z</time></trkpt>
   <trkpt lat="30.828249" lon="34.729937"><ele>525.8</ele><name>TP00789</name><time>2020-03-15T19:16:17Z</time></trkpt>
   <trkpt lat="30.828362" lon="34.730147"><ele>525.4</ele><name>TP00790</name><time>2020-03-15T19:16:21Z</time></trkpt>
   <trkpt lat="30.828386" lon="34.730188"><ele>525.4</ele><name>TP00791</name><time>2020-03-15T19:16:22Z</time></trkpt>
   <trkpt lat="30.828482" lon="34.730257"><ele>525.2</ele><name>TP00792</name><time>2020-03-15T19:16:25Z</time></trkpt>
   <trkpt lat="30.828584" lon="34.730284"><ele>524.8</ele><name>TP00793</name><time>2020-03-15T19:16:29Z</time></trkpt>
   <trkpt lat="30.828759" lon="34.730375"><ele>523.8</ele><name>TP00794</name><time>2020-03-15T19:16:35Z</time></trkpt>
   <trkpt lat="30.828799" lon="34.730405"><ele>523.6</ele><name>TP00795</name><time>2020-03-15T19:16:36Z</time></trkpt>
   <trkpt lat="30.828872" lon="34.730469"><ele>523.2</ele><name>TP00796</name><time>2020-03-15T19:16:38Z</time></trkpt>
   <trkpt lat="30.828985" lon="34.730514"><ele>523</ele><name>TP00797</name><time>2020-03-15T19:16:41Z</time></trkpt>
   <trkpt lat="30.829027" lon="34.730514"><ele>522.8</ele><name>TP00798</name><time>2020-03-15T19:16:42Z</time></trkpt>
   <trkpt lat="30.829066" lon="34.730509"><ele>522.6</ele><name>TP00799</name><time>2020-03-15T19:16:43Z</time></trkpt>
   <trkpt lat="30.829301" lon="34.730473"><ele>523.8</ele><name>TP00800</name><time>2020-03-15T19:16:52Z</time></trkpt>
   <trkpt lat="30.829357" lon="34.730426"><ele>523.6</ele><name>TP00801</name><time>2020-03-15T19:17:05Z</time></trkpt>
   <trkpt lat="30.829357" lon="34.730426"><ele>523.6</ele><name>TP00802</name><time>2020-03-15T19:17:07Z</time></trkpt>
   <trkpt lat="30.829357" lon="34.730426"><ele>523.4</ele><name>TP00803</name><time>2020-03-15T19:17:12Z</time></trkpt>
   <trkpt lat="30.829357" lon="34.730426"><ele>523.6</ele><name>TP00804</name><time>2020-03-15T19:17:15Z</time></trkpt>
   <trkpt lat="30.829357" lon="34.730426"><ele>523.6</ele><name>TP00805</name><time>2020-03-15T19:17:19Z</time></trkpt>
   <trkpt lat="30.829357" lon="34.730426"><ele>523.8</ele><name>TP00806</name><time>2020-03-15T19:17:39Z</time></trkpt>
   <trkpt lat="30.829357" lon="34.730426"><ele>523.8</ele><name>TP00807</name><time>2020-03-15T19:17:47Z</time></trkpt>
   <trkpt lat="30.829392" lon="34.730414"><ele>523.6</ele><name>TP00808</name><time>2020-03-15T19:17:52Z</time></trkpt>
   <trkpt lat="30.829431" lon="34.730407"><ele>523.4</ele><name>TP00809</name><time>2020-03-15T19:17:56Z</time></trkpt>
   <trkpt lat="30.829441" lon="34.730401"><ele>522.8</ele><name>TP00810</name><time>2020-03-15T19:17:57Z</time></trkpt>
   <trkpt lat="30.829493" lon="34.730414"><ele>521.8</ele><name>TP00811</name><time>2020-03-15T19:18:01Z</time></trkpt>
   <trkpt lat="30.82951" lon="34.730423"><ele>521.6</ele><name>TP00812</name><time>2020-03-15T19:18:02Z</time></trkpt>
   <trkpt lat="30.829694" lon="34.730569"><ele>520.6</ele><name>TP00813</name><time>2020-03-15T19:18:10Z</time></trkpt>
   <trkpt lat="30.829811" lon="34.730657"><ele>519.2</ele><name>TP00814</name><time>2020-03-15T19:18:14Z</time></trkpt>
   <trkpt lat="30.830139" lon="34.730736"><ele>518.4</ele><name>TP00815</name><time>2020-03-15T19:18:23Z</time></trkpt>
   <trkpt lat="30.830279" lon="34.730815"><ele>519.2</ele><name>TP00816</name><time>2020-03-15T19:18:27Z</time></trkpt>
   <trkpt lat="30.830383" lon="34.730884"><ele>520.2</ele><name>TP00817</name><time>2020-03-15T19:18:30Z</time></trkpt>
   <trkpt lat="30.830418" lon="34.730903"><ele>520.4</ele><name>TP00818</name><time>2020-03-15T19:18:31Z</time></trkpt>
   <trkpt lat="30.830515" lon="34.730976"><ele>521</ele><name>TP00819</name><time>2020-03-15T19:18:34Z</time></trkpt>
   <trkpt lat="30.830548" lon="34.731009"><ele>521.2</ele><name>TP00820</name><time>2020-03-15T19:18:35Z</time></trkpt>
   <trkpt lat="30.830752" lon="34.731206"><ele>520.4</ele><name>TP00821</name><time>2020-03-15T19:18:40Z</time></trkpt>
   <trkpt lat="30.831047" lon="34.731479"><ele>519.4</ele><name>TP00822</name><time>2020-03-15T19:18:47Z</time></trkpt>
   <trkpt lat="30.831451" lon="34.73182"><ele>518.6</ele><name>TP00823</name><time>2020-03-15T19:18:56Z</time></trkpt>
   <trkpt lat="30.831587" lon="34.731942"><ele>518.2</ele><name>TP00824</name><time>2020-03-15T19:18:59Z</time></trkpt>
   <trkpt lat="30.831827" lon="34.732155"><ele>517</ele><name>TP00825</name><time>2020-03-15T19:19:04Z</time></trkpt>
   <trkpt lat="30.831998" lon="34.732334"><ele>515.8</ele><name>TP00826</name><time>2020-03-15T19:19:08Z</time></trkpt>
   <trkpt lat="30.832089" lon="34.732428"><ele>515.4</ele><name>TP00827</name><time>2020-03-15T19:19:10Z</time></trkpt>
   <trkpt lat="30.832534" lon="34.732799"><ele>515</ele><name>TP00828</name><time>2020-03-15T19:19:19Z</time></trkpt>
   <trkpt lat="30.832642" lon="34.73289"><ele>514.6</ele><name>TP00829</name><time>2020-03-15T19:19:21Z</time></trkpt>
   <trkpt lat="30.832969" lon="34.733175"><ele>513.6</ele><name>TP00830</name><time>2020-03-15T19:19:27Z</time></trkpt>
   <trkpt lat="30.833197" lon="34.7334"><ele>512.4</ele><name>TP00831</name><time>2020-03-15T19:19:31Z</time></trkpt>
   <trkpt lat="30.833569" lon="34.73373"><ele>511.4</ele><name>TP00832</name><time>2020-03-15T19:19:38Z</time></trkpt>
   <trkpt lat="30.834014" lon="34.734142"><ele>510.8</ele><name>TP00833</name><time>2020-03-15T19:19:48Z</time></trkpt>
   <trkpt lat="30.834185" lon="34.734345"><ele>510.4</ele><name>TP00834</name><time>2020-03-15T19:19:53Z</time></trkpt>
   <trkpt lat="30.834214" lon="34.734373"><ele>510.4</ele><name>TP00835</name><time>2020-03-15T19:19:54Z</time></trkpt>
   <trkpt lat="30.834314" lon="34.734428"><ele>509.2</ele><name>TP00836</name><time>2020-03-15T19:19:57Z</time></trkpt>
   <trkpt lat="30.834416" lon="34.734499"><ele>509.4</ele><name>TP00837</name><time>2020-03-15T19:20:00Z</time></trkpt>
   <trkpt lat="30.834515" lon="34.73462"><ele>509.6</ele><name>TP00838</name><time>2020-03-15T19:20:04Z</time></trkpt>
   <trkpt lat="30.834569" lon="34.734677"><ele>509.2</ele><name>TP00839</name><time>2020-03-15T19:20:06Z</time></trkpt>
   <trkpt lat="30.834739" lon="34.734837"><ele>508.2</ele><name>TP00840</name><time>2020-03-15T19:20:11Z</time></trkpt>
   <trkpt lat="30.834806" lon="34.734897"><ele>508</ele><name>TP00841</name><time>2020-03-15T19:20:13Z</time></trkpt>
   <trkpt lat="30.834879" lon="34.735009"><ele>507.8</ele><name>TP00842</name><time>2020-03-15T19:20:16Z</time></trkpt>
   <trkpt lat="30.834945" lon="34.735148"><ele>507.8</ele><name>TP00843</name><time>2020-03-15T19:20:19Z</time></trkpt>
   <trkpt lat="30.835006" lon="34.735244"><ele>507.8</ele><name>TP00844</name><time>2020-03-15T19:20:21Z</time></trkpt>
   <trkpt lat="30.835126" lon="34.735384"><ele>507.4</ele><name>TP00845</name><time>2020-03-15T19:20:24Z</time></trkpt>
   <trkpt lat="30.835172" lon="34.735432"><ele>507.2</ele><name>TP00846</name><time>2020-03-15T19:20:25Z</time></trkpt>
   <trkpt lat="30.835446" lon="34.735724"><ele>506.2</ele><name>TP00847</name><time>2020-03-15T19:20:31Z</time></trkpt>
   <trkpt lat="30.835839" lon="34.736078"><ele>505</ele><name>TP00848</name><time>2020-03-15T19:20:40Z</time></trkpt>
   <trkpt lat="30.836073" lon="34.736281"><ele>504</ele><name>TP00849</name><time>2020-03-15T19:20:45Z</time></trkpt>
   <trkpt lat="30.836277" lon="34.736509"><ele>503.6</ele><name>TP00850</name><time>2020-03-15T19:20:50Z</time></trkpt>
   <trkpt lat="30.836701" lon="34.73696"><ele>503.6</ele><name>TP00851</name><time>2020-03-15T19:21:02Z</time></trkpt>
   <trkpt lat="30.837023" lon="34.737299"><ele>503</ele><name>TP00852</name><time>2020-03-15T19:21:11Z</time></trkpt>
   <trkpt lat="30.837432" lon="34.737678"><ele>501.8</ele><name>TP00853</name><time>2020-03-15T19:21:21Z</time></trkpt>
   <trkpt lat="30.837477" lon="34.737714"><ele>501.6</ele><name>TP00854</name><time>2020-03-15T19:21:22Z</time></trkpt>
   <trkpt lat="30.837571" lon="34.737775"><ele>500.6</ele><name>TP00855</name><time>2020-03-15T19:21:24Z</time></trkpt>
   <trkpt lat="30.837716" lon="34.737859"><ele>499.6</ele><name>TP00856</name><time>2020-03-15T19:21:27Z</time></trkpt>
   <trkpt lat="30.838163" lon="34.738017"><ele>498.4</ele><name>TP00857</name><time>2020-03-15T19:21:36Z</time></trkpt>
   <trkpt lat="30.838374" lon="34.738091"><ele>498</ele><name>TP00858</name><time>2020-03-15T19:21:40Z</time></trkpt>
   <trkpt lat="30.838811" lon="34.738217"><ele>497.4</ele><name>TP00859</name><time>2020-03-15T19:21:49Z</time></trkpt>
   <trkpt lat="30.838973" lon="34.738252"><ele>496.6</ele><name>TP00860</name><time>2020-03-15T19:21:52Z</time></trkpt>
   <trkpt lat="30.839088" lon="34.738277"><ele>496.2</ele><name>TP00861</name><time>2020-03-15T19:21:54Z</time></trkpt>
   <trkpt lat="30.839639" lon="34.738434"><ele>495.6</ele><name>TP00862</name><time>2020-03-15T19:22:05Z</time></trkpt>
   <trkpt lat="30.840066" lon="34.738553"><ele>495.2</ele><name>TP00863</name><time>2020-03-15T19:22:14Z</time></trkpt>
   <trkpt lat="30.840328" lon="34.738623"><ele>493.8</ele><name>TP00864</name><time>2020-03-15T19:22:19Z</time></trkpt>
   <trkpt lat="30.840564" lon="34.738703"><ele>492.6</ele><name>TP00865</name><time>2020-03-15T19:22:23Z</time></trkpt>
   <trkpt lat="30.84086" lon="34.738821"><ele>491.4</ele><name>TP00866</name><time>2020-03-15T19:22:28Z</time></trkpt>
   <trkpt lat="30.841018" lon="34.738873"><ele>491</ele><name>TP00867</name><time>2020-03-15T19:22:31Z</time></trkpt>
   <trkpt lat="30.84111" lon="34.73883"><ele>491</ele><name>TP00868</name><time>2020-03-15T19:22:35Z</time></trkpt>
   <trkpt lat="30.841221" lon="34.738842"><ele>491</ele><name>TP00869</name><time>2020-03-15T19:22:38Z</time></trkpt>
   <trkpt lat="30.841267" lon="34.738858"><ele>491</ele><name>TP00870</name><time>2020-03-15T19:22:39Z</time></trkpt>
   <trkpt lat="30.84143" lon="34.738918"><ele>491.4</ele><name>TP00871</name><time>2020-03-15T19:22:42Z</time></trkpt>
   <trkpt lat="30.841585" lon="34.738971"><ele>492.2</ele><name>TP00872</name><time>2020-03-15T19:22:45Z</time></trkpt>
   <trkpt lat="30.841633" lon="34.738984"><ele>492.6</ele><name>TP00873</name><time>2020-03-15T19:22:46Z</time></trkpt>
   <trkpt lat="30.841796" lon="34.739022"><ele>493.6</ele><name>TP00874</name><time>2020-03-15T19:22:49Z</time></trkpt>
   <trkpt lat="30.841856" lon="34.739036"><ele>493.6</ele><name>TP00875</name><time>2020-03-15T19:22:50Z</time></trkpt>
   <trkpt lat="30.842115" lon="34.739091"><ele>492.6</ele><name>TP00876</name><time>2020-03-15T19:22:54Z</time></trkpt>
   <trkpt lat="30.842667" lon="34.739183"><ele>493.4</ele><name>TP00877</name><time>2020-03-15T19:23:04Z</time></trkpt>
   <trkpt lat="30.842887" lon="34.739214"><ele>492.6</ele><name>TP00878</name><time>2020-03-15T19:23:08Z</time></trkpt>
   <trkpt lat="30.843334" lon="34.739367"><ele>492.6</ele><name>TP00879</name><time>2020-03-15T19:23:24Z</time></trkpt>
   <trkpt lat="30.843418" lon="34.739396"><ele>492.4</ele><name>TP00880</name><time>2020-03-15T19:23:27Z</time></trkpt>
   <trkpt lat="30.843545" lon="34.739429"><ele>492.4</ele><name>TP00881</name><time>2020-03-15T19:23:31Z</time></trkpt>
   <trkpt lat="30.843664" lon="34.739442"><ele>491.8</ele><name>TP00882</name><time>2020-03-15T19:23:34Z</time></trkpt>
   <trkpt lat="30.843715" lon="34.739453"><ele>491.6</ele><name>TP00883</name><time>2020-03-15T19:23:35Z</time></trkpt>
   <trkpt lat="30.84377" lon="34.739472"><ele>491</ele><name>TP00884</name><time>2020-03-15T19:23:36Z</time></trkpt>
   <trkpt lat="30.843827" lon="34.739495"><ele>490.6</ele><name>TP00885</name><time>2020-03-15T19:23:37Z</time></trkpt>
   <trkpt lat="30.844187" lon="34.739702"><ele>489.4</ele><name>TP00886</name><time>2020-03-15T19:23:44Z</time></trkpt>
   <trkpt lat="30.84434" lon="34.7398"><ele>488.8</ele><name>TP00887</name><time>2020-03-15T19:23:47Z</time></trkpt>
   <trkpt lat="30.844565" lon="34.739951"><ele>488.6</ele><name>TP00888</name><time>2020-03-15T19:23:52Z</time></trkpt>
   <trkpt lat="30.844687" lon="34.740026"><ele>488.4</ele><name>TP00889</name><time>2020-03-15T19:23:55Z</time></trkpt>
   <trkpt lat="30.844725" lon="34.740048"><ele>488.4</ele><name>TP00890</name><time>2020-03-15T19:23:56Z</time></trkpt>
   <trkpt lat="30.844763" lon="34.740065"><ele>488.4</ele><name>TP00891</name><time>2020-03-15T19:23:57Z</time></trkpt>
   <trkpt lat="30.844897" lon="34.740082"><ele>488.2</ele><name>TP00892</name><time>2020-03-15T19:24:00Z</time></trkpt>
   <trkpt lat="30.844942" lon="34.740079"><ele>488.2</ele><name>TP00893</name><time>2020-03-15T19:24:01Z</time></trkpt>
   <trkpt lat="30.845238" lon="34.739966"><ele>488.4</ele><name>TP00894</name><time>2020-03-15T19:24:08Z</time></trkpt>
   <trkpt lat="30.845336" lon="34.739944"><ele>488.4</ele><name>TP00895</name><time>2020-03-15T19:24:10Z</time></trkpt>
   <trkpt lat="30.845487" lon="34.739917"><ele>488.8</ele><name>TP00896</name><time>2020-03-15T19:24:13Z</time></trkpt>
   <trkpt lat="30.845691" lon="34.739879"><ele>489</ele><name>TP00897</name><time>2020-03-15T19:24:17Z</time></trkpt>
   <trkpt lat="30.845944" lon="34.739791"><ele>489</ele><name>TP00898</name><time>2020-03-15T19:24:22Z</time></trkpt>
   <trkpt lat="30.846105" lon="34.73965"><ele>488.6</ele><name>TP00899</name><time>2020-03-15T19:24:26Z</time></trkpt>
   <trkpt lat="30.846201" lon="34.739538"><ele>488.4</ele><name>TP00900</name><time>2020-03-15T19:24:29Z</time></trkpt>
   <trkpt lat="30.846429" lon="34.739434"><ele>488.8</ele><name>TP00901</name><time>2020-03-15T19:24:35Z</time></trkpt>
   <trkpt lat="30.846601" lon="34.739419"><ele>489.2</ele><name>TP00902</name><time>2020-03-15T19:24:40Z</time></trkpt>
   <trkpt lat="30.846749" lon="34.739481"><ele>488.8</ele><name>TP00903</name><time>2020-03-15T19:24:45Z</time></trkpt>
   <trkpt lat="30.847093" lon="34.739566"><ele>489.2</ele><name>TP00904</name><time>2020-03-15T19:24:56Z</time></trkpt>
   <trkpt lat="30.847171" lon="34.73949"><ele>489.6</ele><name>TP00905</name><time>2020-03-15T19:24:59Z</time></trkpt>
   <trkpt lat="30.847239" lon="34.739485"><ele>489.8</ele><name>TP00906</name><time>2020-03-15T19:25:02Z</time></trkpt>
   <trkpt lat="30.847788" lon="34.73941"><ele>489.6</ele><name>TP00907</name><time>2020-03-15T19:25:15Z</time></trkpt>
   <trkpt lat="30.848037" lon="34.739393"><ele>489.8</ele><name>TP00908</name><time>2020-03-15T19:25:20Z</time></trkpt>
   <trkpt lat="30.848342" lon="34.739373"><ele>490</ele><name>TP00909</name><time>2020-03-15T19:25:26Z</time></trkpt>
   <trkpt lat="30.8485" lon="34.739357"><ele>489.8</ele><name>TP00910</name><time>2020-03-15T19:25:29Z</time></trkpt>
   <trkpt lat="30.848831" lon="34.73934"><ele>490.2</ele><name>TP00911</name><time>2020-03-15T19:25:35Z</time></trkpt>
   <trkpt lat="30.849197" lon="34.739293"><ele>490.8</ele><name>TP00912</name><time>2020-03-15T19:25:42Z</time></trkpt>
   <trkpt lat="30.849767" lon="34.739223"><ele>491.2</ele><name>TP00913</name><time>2020-03-15T19:25:53Z</time></trkpt>
   <trkpt lat="30.850343" lon="34.739238"><ele>491.8</ele><name>TP00914</name><time>2020-03-15T19:26:05Z</time></trkpt>
   <trkpt lat="30.850388" lon="34.739244"><ele>492.2</ele><name>TP00915</name><time>2020-03-15T19:26:06Z</time></trkpt>
   <trkpt lat="30.850605" lon="34.739292"><ele>493.2</ele><name>TP00916</name><time>2020-03-15T19:26:11Z</time></trkpt>
   <trkpt lat="30.850646" lon="34.739311"><ele>493.4</ele><name>TP00917</name><time>2020-03-15T19:26:12Z</time></trkpt>
   <trkpt lat="30.850727" lon="34.73935"><ele>494.2</ele><name>TP00918</name><time>2020-03-15T19:26:14Z</time></trkpt>
   <trkpt lat="30.850769" lon="34.739364"><ele>494.4</ele><name>TP00919</name><time>2020-03-15T19:26:15Z</time></trkpt>
   <trkpt lat="30.850899" lon="34.73937"><ele>495.2</ele><name>TP00920</name><time>2020-03-15T19:26:18Z</time></trkpt>
   <trkpt lat="30.851029" lon="34.739357"><ele>495.8</ele><name>TP00921</name><time>2020-03-15T19:26:21Z</time></trkpt>
   <trkpt lat="30.851105" lon="34.739349"><ele>496.4</ele><name>TP00922</name><time>2020-03-15T19:26:23Z</time></trkpt>
   <trkpt lat="30.851213" lon="34.739352"><ele>497.4</ele><name>TP00923</name><time>2020-03-15T19:26:26Z</time></trkpt>
   <trkpt lat="30.851341" lon="34.739335"><ele>498.8</ele><name>TP00924</name><time>2020-03-15T19:26:30Z</time></trkpt>
   <trkpt lat="30.851604" lon="34.739356"><ele>499.8</ele><name>TP00925</name><time>2020-03-15T19:26:39Z</time></trkpt>
   <trkpt lat="30.85165" lon="34.739388"><ele>500.8</ele><name>TP00926</name><time>2020-03-15T19:26:45Z</time></trkpt>
   <trkpt lat="30.851648" lon="34.739386"><ele>501.4</ele><name>TP00927</name><time>2020-03-15T19:26:52Z</time></trkpt>
   <trkpt lat="30.851647" lon="34.739387"><ele>500.6</ele><name>TP00928</name><time>2020-03-15T19:27:00Z</time></trkpt>
   <trkpt lat="30.85174" lon="34.739464"><ele>500.6</ele><name>TP00929</name><time>2020-03-15T19:27:08Z</time></trkpt>
   <trkpt lat="30.851941" lon="34.739664"><ele>502.2</ele><name>TP00930</name><time>2020-03-15T19:27:17Z</time></trkpt>
   <trkpt lat="30.852063" lon="34.739766"><ele>503.2</ele><name>TP00931</name><time>2020-03-15T19:27:22Z</time></trkpt>
   <trkpt lat="30.852207" lon="34.739881"><ele>504.2</ele><name>TP00932</name><time>2020-03-15T19:27:28Z</time></trkpt>
   <trkpt lat="30.85229" lon="34.739956"><ele>505.6</ele><name>TP00933</name><time>2020-03-15T19:27:32Z</time></trkpt>
   <trkpt lat="30.852359" lon="34.740031"><ele>506.8</ele><name>TP00934</name><time>2020-03-15T19:27:36Z</time></trkpt>
   <trkpt lat="30.852411" lon="34.740101"><ele>507.8</ele><name>TP00935</name><time>2020-03-15T19:27:40Z</time></trkpt>
   <trkpt lat="30.852521" lon="34.74022"><ele>508.8</ele><name>TP00936</name><time>2020-03-15T19:27:48Z</time></trkpt>
   <trkpt lat="30.852565" lon="34.740299"><ele>510</ele><name>TP00937</name><time>2020-03-15T19:27:52Z</time></trkpt>
   <trkpt lat="30.852608" lon="34.74038"><ele>511.4</ele><name>TP00938</name><time>2020-03-15T19:27:56Z</time></trkpt>
   <trkpt lat="30.852613" lon="34.740443"><ele>512.4</ele><name>TP00939</name><time>2020-03-15T19:27:59Z</time></trkpt>
   <trkpt lat="30.852611" lon="34.740536"><ele>513.6</ele><name>TP00940</name><time>2020-03-15T19:28:03Z</time></trkpt>
   <trkpt lat="30.852614" lon="34.740648"><ele>514.6</ele><name>TP00941</name><time>2020-03-15T19:28:08Z</time></trkpt>
   <trkpt lat="30.852611" lon="34.740759"><ele>515.8</ele><name>TP00942</name><time>2020-03-15T19:28:13Z</time></trkpt>
   <trkpt lat="30.852585" lon="34.740864"><ele>517</ele><name>TP00943</name><time>2020-03-15T19:28:18Z</time></trkpt>
   <trkpt lat="30.852576" lon="34.74093"><ele>518</ele><name>TP00944</name><time>2020-03-15T19:28:21Z</time></trkpt>
   <trkpt lat="30.852517" lon="34.741077"><ele>519.2</ele><name>TP00945</name><time>2020-03-15T19:28:28Z</time></trkpt>
   <trkpt lat="30.852462" lon="34.741197"><ele>520.2</ele><name>TP00946</name><time>2020-03-15T19:28:34Z</time></trkpt>
   <trkpt lat="30.852312" lon="34.74145"><ele>521.4</ele><name>TP00947</name><time>2020-03-15T19:28:46Z</time></trkpt>
   <trkpt lat="30.852256" lon="34.741618"><ele>522.6</ele><name>TP00948</name><time>2020-03-15T19:28:52Z</time></trkpt>
   <trkpt lat="30.852136" lon="34.741928"><ele>523.6</ele><name>TP00949</name><time>2020-03-15T19:29:03Z</time></trkpt>
   <trkpt lat="30.852093" lon="34.742074"><ele>524</ele><name>TP00950</name><time>2020-03-15T19:29:08Z</time></trkpt>
   <trkpt lat="30.852067" lon="34.742186"><ele>524.6</ele><name>TP00951</name><time>2020-03-15T19:29:12Z</time></trkpt>
   <trkpt lat="30.852034" lon="34.742373"><ele>525.6</ele><name>TP00952</name><time>2020-03-15T19:29:18Z</time></trkpt>
   <trkpt lat="30.851962" lon="34.74302"><ele>526.4</ele><name>TP00953</name><time>2020-03-15T19:29:35Z</time></trkpt>
   <trkpt lat="30.851927" lon="34.743457"><ele>526.8</ele><name>TP00954</name><time>2020-03-15T19:29:44Z</time></trkpt>
   <trkpt lat="30.851891" lon="34.743688"><ele>526.8</ele><name>TP00955</name><time>2020-03-15T19:29:49Z</time></trkpt>
   <trkpt lat="30.851869" lon="34.743882"><ele>527</ele><name>TP00956</name><time>2020-03-15T19:29:53Z</time></trkpt>
   <trkpt lat="30.852015" lon="34.744378"><ele>527</ele><name>TP00957</name><time>2020-03-15T19:30:04Z</time></trkpt>
   <trkpt lat="30.852125" lon="34.744776"><ele>528</ele><name>TP00958</name><time>2020-03-15T19:30:14Z</time></trkpt>
   <trkpt lat="30.852144" lon="34.744826"><ele>528</ele><name>TP00959</name><time>2020-03-15T19:30:16Z</time></trkpt>
   <trkpt lat="30.852264" lon="34.744851"><ele>527.6</ele><name>TP00960</name><time>2020-03-15T19:30:21Z</time></trkpt>
   <trkpt lat="30.852393" lon="34.744884"><ele>526.8</ele><name>TP00961</name><time>2020-03-15T19:30:25Z</time></trkpt>
   <trkpt lat="30.852557" lon="34.744958"><ele>526.2</ele><name>TP00962</name><time>2020-03-15T19:30:31Z</time></trkpt>
   <trkpt lat="30.85263" lon="34.744986"><ele>526</ele><name>TP00963</name><time>2020-03-15T19:30:33Z</time></trkpt>
   <trkpt lat="30.852664" lon="34.744993"><ele>525.8</ele><name>TP00964</name><time>2020-03-15T19:30:34Z</time></trkpt>
   <trkpt lat="30.852718" lon="34.745"><ele>525.2</ele><name>TP00965</name><time>2020-03-15T19:30:36Z</time></trkpt>
   <trkpt lat="30.852746" lon="34.745005"><ele>525</ele><name>TP00966</name><time>2020-03-15T19:30:37Z</time></trkpt>
   <trkpt lat="30.852774" lon="34.74501"><ele>524.8</ele><name>TP00967</name><time>2020-03-15T19:30:38Z</time></trkpt>
   <trkpt lat="30.852891" lon="34.745029"><ele>523.6</ele><name>TP00968</name><time>2020-03-15T19:30:42Z</time></trkpt>
   <trkpt lat="30.852994" lon="34.745021"><ele>522.4</ele><name>TP00969</name><time>2020-03-15T19:30:45Z</time></trkpt>
   <trkpt lat="30.853282" lon="34.745026"><ele>521.2</ele><name>TP00970</name><time>2020-03-15T19:30:54Z</time></trkpt>
   <trkpt lat="30.853382" lon="34.745042"><ele>520</ele><name>TP00971</name><time>2020-03-15T19:30:58Z</time></trkpt>
   <trkpt lat="30.853421" lon="34.745063"><ele>519.8</ele><name>TP00972</name><time>2020-03-15T19:31:00Z</time></trkpt>
   <trkpt lat="30.853592" lon="34.745187"><ele>519.6</ele><name>TP00973</name><time>2020-03-15T19:31:08Z</time></trkpt>
   <trkpt lat="30.853621" lon="34.745205"><ele>519.2</ele><name>TP00974</name><time>2020-03-15T19:31:14Z</time></trkpt>
   <trkpt lat="30.853621" lon="34.745206"><ele>519.6</ele><name>TP00975</name><time>2020-03-15T19:31:27Z</time></trkpt>
   <trkpt lat="30.853621" lon="34.745206"><ele>520</ele><name>TP00976</name><time>2020-03-15T19:31:38Z</time></trkpt>
   <trkpt lat="30.853622" lon="34.745206"><ele>520</ele><name>TP00977</name><time>2020-03-15T19:31:40Z</time></trkpt>
   <trkpt lat="30.853621" lon="34.745212"><ele>520</ele><name>TP00978</name><time>2020-03-15T19:31:48Z</time></trkpt>
   <trkpt lat="30.853623" lon="34.745231"><ele>520.2</ele><name>TP00979</name><time>2020-03-15T19:31:53Z</time></trkpt>
   <trkpt lat="30.853628" lon="34.745243"><ele>519.8</ele><name>TP00980</name><time>2020-03-15T19:31:58Z</time></trkpt>
   <trkpt lat="30.853618" lon="34.745256"><ele>519.2</ele><name>TP00981</name><time>2020-03-15T19:32:06Z</time></trkpt>
   <trkpt lat="30.853615" lon="34.74526"><ele>518.6</ele><name>TP00982</name><time>2020-03-15T19:32:08Z</time></trkpt>
   <trkpt lat="30.853614" lon="34.745261"><ele>518.4</ele><name>TP00983</name><time>2020-03-15T19:32:09Z</time></trkpt>
   <trkpt lat="30.853614" lon="34.745261"><ele>518</ele><name>TP00984</name><time>2020-03-15T19:32:10Z</time></trkpt>
   <trkpt lat="30.8536" lon="34.745278"><ele>517.6</ele><name>TP00985</name><time>2020-03-15T19:32:17Z</time></trkpt>
   <trkpt lat="30.853591" lon="34.745303"><ele>517</ele><name>TP00986</name><time>2020-03-15T19:32:23Z</time></trkpt>
   <trkpt lat="30.853588" lon="34.745326"><ele>516.8</ele><name>TP00987</name><time>2020-03-15T19:32:29Z</time></trkpt>
   <trkpt lat="30.853589" lon="34.745332"><ele>516.8</ele><name>TP00988</name><time>2020-03-15T19:32:31Z</time></trkpt>
   <trkpt lat="30.853598" lon="34.74538"><ele>515.8</ele><name>TP00989</name><time>2020-03-15T19:32:42Z</time></trkpt>
   <trkpt lat="30.853605" lon="34.745407"><ele>514.4</ele><name>TP00990</name><time>2020-03-15T19:32:48Z</time></trkpt>
   <trkpt lat="30.853602" lon="34.745466"><ele>513.8</ele><name>TP00991</name><time>2020-03-15T19:33:06Z</time></trkpt>
   <trkpt lat="30.8536" lon="34.745481"><ele>513.6</ele><name>TP00992</name><time>2020-03-15T19:33:11Z</time></trkpt>
   <trkpt lat="30.853599" lon="34.745483"><ele>513.2</ele><name>TP00993</name><time>2020-03-15T19:33:14Z</time></trkpt>
   <trkpt lat="30.853596" lon="34.745489"><ele>512.6</ele><name>TP00994</name><time>2020-03-15T19:33:19Z</time></trkpt>
   <trkpt lat="30.853595" lon="34.745491"><ele>512</ele><name>TP00995</name><time>2020-03-15T19:33:21Z</time></trkpt>
   <trkpt lat="30.853589" lon="34.745496"><ele>511.6</ele><name>TP00996</name><time>2020-03-15T19:33:26Z</time></trkpt>
   <trkpt lat="30.853588" lon="34.745505"><ele>511.4</ele><name>TP00997</name><time>2020-03-15T19:33:36Z</time></trkpt>
   <trkpt lat="30.853596" lon="34.745573"><ele>511.2</ele><name>TP00998</name><time>2020-03-15T19:33:40Z</time></trkpt>
   <trkpt lat="30.853601" lon="34.745597"><ele>510.8</ele><name>TP00999</name><time>2020-03-15T19:33:41Z</time></trkpt>
   <trkpt lat="30.853621" lon="34.745718"><ele>510</ele><name>TP01000</name><time>2020-03-15T19:33:46Z</time></trkpt>
   <trkpt lat="30.853636" lon="34.745723"><ele>507.4</ele><name>TP01001</name><time>2020-03-15T19:52:00Z</time></trkpt>
   <trkpt lat="30.853634" lon="34.745724"><ele>507.4</ele><name>TP01002</name><time>2020-03-15T19:52:01Z</time></trkpt>
   <trkpt lat="30.853633" lon="34.745725"><ele>507.6</ele><name>TP01003</name><time>2020-03-15T19:52:06Z</time></trkpt>
   <trkpt lat="30.85363" lon="34.745725"><ele>507.6</ele><name>TP01004</name><time>2020-03-15T19:52:09Z</time></trkpt>
   <trkpt lat="30.853629" lon="34.745722"><ele>507.8</ele><name>TP01005</name><time>2020-03-15T19:52:11Z</time></trkpt>
   <trkpt lat="30.853625" lon="34.745711"><ele>507.6</ele><name>TP01006</name><time>2020-03-15T19:52:13Z</time></trkpt>
   <trkpt lat="30.853623" lon="34.745698"><ele>507.4</ele><name>TP01007</name><time>2020-03-15T19:52:14Z</time></trkpt>
   <trkpt lat="30.853627" lon="34.745605"><ele>507</ele><name>TP01008</name><time>2020-03-15T19:52:17Z</time></trkpt>
   <trkpt lat="30.853659" lon="34.74553"><ele>507.4</ele><name>TP01009</name><time>2020-03-15T19:52:20Z</time></trkpt>
   <trkpt lat="30.853686" lon="34.7455"><ele>508.4</ele><name>TP01010</name><time>2020-03-15T19:52:22Z</time></trkpt>
   <trkpt lat="30.8537" lon="34.745494"><ele>508.8</ele><name>TP01011</name><time>2020-03-15T19:52:23Z</time></trkpt>
   <trkpt lat="30.853715" lon="34.745484"><ele>508.8</ele><name>TP01012</name><time>2020-03-15T19:52:24Z</time></trkpt>
   <trkpt lat="30.85375" lon="34.745459"><ele>508.8</ele><name>TP01013</name><time>2020-03-15T19:52:26Z</time></trkpt>
   <trkpt lat="30.853782" lon="34.745443"><ele>508.6</ele><name>TP01014</name><time>2020-03-15T19:52:28Z</time></trkpt>
   <trkpt lat="30.853791" lon="34.745438"><ele>508.2</ele><name>TP01015</name><time>2020-03-15T19:52:31Z</time></trkpt>
   <trkpt lat="30.853817" lon="34.745438"><ele>508</ele><name>TP01016</name><time>2020-03-15T19:52:42Z</time></trkpt>
   <trkpt lat="30.853824" lon="34.745438"><ele>507.8</ele><name>TP01017</name><time>2020-03-15T19:52:45Z</time></trkpt>
   <trkpt lat="30.853842" lon="34.745449"><ele>507.4</ele><name>TP01018</name><time>2020-03-15T19:52:50Z</time></trkpt>
   <trkpt lat="30.853851" lon="34.745457"><ele>507.2</ele><name>TP01019</name><time>2020-03-15T19:52:51Z</time></trkpt>
   <trkpt lat="30.853893" lon="34.745472"><ele>506.2</ele><name>TP01020</name><time>2020-03-15T19:52:54Z</time></trkpt>
   <trkpt lat="30.854053" lon="34.74549"><ele>505</ele><name>TP01021</name><time>2020-03-15T19:53:01Z</time></trkpt>
   <trkpt lat="30.854167" lon="34.745517"><ele>504</ele><name>TP01022</name><time>2020-03-15T19:53:06Z</time></trkpt>
   <trkpt lat="30.854261" lon="34.745538"><ele>503</ele><name>TP01023</name><time>2020-03-15T19:53:11Z</time></trkpt>
   <trkpt lat="30.854328" lon="34.745556"><ele>501.8</ele><name>TP01024</name><time>2020-03-15T19:53:14Z</time></trkpt>
   <trkpt lat="30.854448" lon="34.745584"><ele>500.6</ele><name>TP01025</name><time>2020-03-15T19:53:20Z</time></trkpt>
   <trkpt lat="30.854531" lon="34.745608"><ele>499.2</ele><name>TP01026</name><time>2020-03-15T19:53:26Z</time></trkpt>
   <trkpt lat="30.854588" lon="34.745632"><ele>498</ele><name>TP01027</name><time>2020-03-15T19:53:30Z</time></trkpt>
   <trkpt lat="30.854677" lon="34.745641"><ele>497</ele><name>TP01028</name><time>2020-03-15T19:53:34Z</time></trkpt>
   <trkpt lat="30.854729" lon="34.745653"><ele>496</ele><name>TP01029</name><time>2020-03-15T19:53:36Z</time></trkpt>
   <trkpt lat="30.854801" lon="34.745657"><ele>494.6</ele><name>TP01030</name><time>2020-03-15T19:53:39Z</time></trkpt>
   <trkpt lat="30.854948" lon="34.745651"><ele>493.4</ele><name>TP01031</name><time>2020-03-15T19:53:45Z</time></trkpt>
   <trkpt lat="30.854995" lon="34.745649"><ele>492.2</ele><name>TP01032</name><time>2020-03-15T19:53:47Z</time></trkpt>
   <trkpt lat="30.85509" lon="34.745591"><ele>491.2</ele><name>TP01033</name><time>2020-03-15T19:53:50Z</time></trkpt>
   <trkpt lat="30.855162" lon="34.745553"><ele>490.6</ele><name>TP01034</name><time>2020-03-15T19:53:52Z</time></trkpt>
   <trkpt lat="30.855257" lon="34.745533"><ele>490</ele><name>TP01035</name><time>2020-03-15T19:53:54Z</time></trkpt>
   <trkpt lat="30.85548" lon="34.745522"><ele>489.6</ele><name>TP01036</name><time>2020-03-15T19:53:58Z</time></trkpt>
   <trkpt lat="30.855598" lon="34.745537"><ele>489.8</ele><name>TP01037</name><time>2020-03-15T19:54:00Z</time></trkpt>
   <trkpt lat="30.855719" lon="34.74556"><ele>489.6</ele><name>TP01038</name><time>2020-03-15T19:54:02Z</time></trkpt>
   <trkpt lat="30.855841" lon="34.745576"><ele>489.2</ele><name>TP01039</name><time>2020-03-15T19:54:04Z</time></trkpt>
   <trkpt lat="30.856026" lon="34.745573"><ele>488</ele><name>TP01040</name><time>2020-03-15T19:54:07Z</time></trkpt>
   <trkpt lat="30.856206" lon="34.745546"><ele>487.4</ele><name>TP01041</name><time>2020-03-15T19:54:10Z</time></trkpt>
   <trkpt lat="30.856389" lon="34.745502"><ele>486.6</ele><name>TP01042</name><time>2020-03-15T19:54:13Z</time></trkpt>
   <trkpt lat="30.856642" lon="34.745421"><ele>486.2</ele><name>TP01043</name><time>2020-03-15T19:54:18Z</time></trkpt>
   <trkpt lat="30.856771" lon="34.745355"><ele>486.2</ele><name>TP01044</name><time>2020-03-15T19:54:21Z</time></trkpt>
   <trkpt lat="30.856911" lon="34.745248"><ele>485.4</ele><name>TP01045</name><time>2020-03-15T19:54:24Z</time></trkpt>
   <trkpt lat="30.857058" lon="34.745102"><ele>484.4</ele><name>TP01046</name><time>2020-03-15T19:54:27Z</time></trkpt>
   <trkpt lat="30.857162" lon="34.745026"><ele>483.8</ele><name>TP01047</name><time>2020-03-15T19:54:29Z</time></trkpt>
   <trkpt lat="30.857269" lon="34.745014"><ele>483.2</ele><name>TP01048</name><time>2020-03-15T19:54:31Z</time></trkpt>
   <trkpt lat="30.857378" lon="34.745027"><ele>482.8</ele><name>TP01049</name><time>2020-03-15T19:54:33Z</time></trkpt>
   <trkpt lat="30.857547" lon="34.745004"><ele>482.6</ele><name>TP01050</name><time>2020-03-15T19:54:36Z</time></trkpt>
   <trkpt lat="30.857848" lon="34.744974"><ele>482.2</ele><name>TP01051</name><time>2020-03-15T19:54:41Z</time></trkpt>
   <trkpt lat="30.858021" lon="34.744869"><ele>481.2</ele><name>TP01052</name><time>2020-03-15T19:54:45Z</time></trkpt>
   <trkpt lat="30.85804" lon="34.744819"><ele>480.8</ele><name>TP01053</name><time>2020-03-15T19:54:46Z</time></trkpt>
   <trkpt lat="30.858093" lon="34.744657"><ele>480.6</ele><name>TP01054</name><time>2020-03-15T19:54:49Z</time></trkpt>
   <trkpt lat="30.858112" lon="34.744612"><ele>480.8</ele><name>TP01055</name><time>2020-03-15T19:54:50Z</time></trkpt>
   <trkpt lat="30.858173" lon="34.744493"><ele>482</ele><name>TP01056</name><time>2020-03-15T19:54:53Z</time></trkpt>
   <trkpt lat="30.858327" lon="34.744203"><ele>480.8</ele><name>TP01057</name><time>2020-03-15T19:54:58Z</time></trkpt>
   <trkpt lat="30.85844" lon="34.743986"><ele>479.4</ele><name>TP01058</name><time>2020-03-15T19:55:01Z</time></trkpt>
   <trkpt lat="30.85851" lon="34.743848"><ele>478.6</ele><name>TP01059</name><time>2020-03-15T19:55:03Z</time></trkpt>
   <trkpt lat="30.858579" lon="34.743717"><ele>478</ele><name>TP01060</name><time>2020-03-15T19:55:05Z</time></trkpt>
   <trkpt lat="30.858743" lon="34.743289"><ele>478.2</ele><name>TP01061</name><time>2020-03-15T19:55:12Z</time></trkpt>
   <trkpt lat="30.858885" lon="34.743116"><ele>477.8</ele><name>TP01062</name><time>2020-03-15T19:55:16Z</time></trkpt>
   <trkpt lat="30.858923" lon="34.74308"><ele>477.8</ele><name>TP01063</name><time>2020-03-15T19:55:17Z</time></trkpt>
   <trkpt lat="30.859042" lon="34.742972"><ele>477.4</ele><name>TP01064</name><time>2020-03-15T19:55:20Z</time></trkpt>
   <trkpt lat="30.859166" lon="34.7429"><ele>477</ele><name>TP01065</name><time>2020-03-15T19:55:23Z</time></trkpt>
   <trkpt lat="30.85969" lon="34.742841"><ele>476.4</ele><name>TP01066</name><time>2020-03-15T19:55:35Z</time></trkpt>
   <trkpt lat="30.859769" lon="34.742816"><ele>476.2</ele><name>TP01067</name><time>2020-03-15T19:55:37Z</time></trkpt>
   <trkpt lat="30.859882" lon="34.742773"><ele>475.8</ele><name>TP01068</name><time>2020-03-15T19:55:40Z</time></trkpt>
   <trkpt lat="30.86018" lon="34.742637"><ele>475.4</ele><name>TP01069</name><time>2020-03-15T19:55:48Z</time></trkpt>
   <trkpt lat="30.86035" lon="34.742527"><ele>474.8</ele><name>TP01070</name><time>2020-03-15T19:55:52Z</time></trkpt>
   <trkpt lat="30.860448" lon="34.742485"><ele>474.4</ele><name>TP01071</name><time>2020-03-15T19:55:54Z</time></trkpt>
   <trkpt lat="30.860496" lon="34.742472"><ele>474.4</ele><name>TP01072</name><time>2020-03-15T19:55:55Z</time></trkpt>
   <trkpt lat="30.860728" lon="34.742425"><ele>473.4</ele><name>TP01073</name><time>2020-03-15T19:56:00Z</time></trkpt>
   <trkpt lat="30.860815" lon="34.742404"><ele>473.2</ele><name>TP01074</name><time>2020-03-15T19:56:02Z</time></trkpt>
   <trkpt lat="30.86095" lon="34.742355"><ele>472.8</ele><name>TP01075</name><time>2020-03-15T19:56:05Z</time></trkpt>
   <trkpt lat="30.861083" lon="34.742274"><ele>472.4</ele><name>TP01076</name><time>2020-03-15T19:56:08Z</time></trkpt>
   <trkpt lat="30.861126" lon="34.742241"><ele>472.4</ele><name>TP01077</name><time>2020-03-15T19:56:09Z</time></trkpt>
   <trkpt lat="30.86127" lon="34.742109"><ele>472.2</ele><name>TP01078</name><time>2020-03-15T19:56:13Z</time></trkpt>
   <trkpt lat="30.861392" lon="34.741987"><ele>472.2</ele><name>TP01079</name><time>2020-03-15T19:56:17Z</time></trkpt>
   <trkpt lat="30.86149" lon="34.741933"><ele>472</ele><name>TP01080</name><time>2020-03-15T19:56:20Z</time></trkpt>
   <trkpt lat="30.861627" lon="34.741907"><ele>471.2</ele><name>TP01081</name><time>2020-03-15T19:56:23Z</time></trkpt>
   <trkpt lat="30.861677" lon="34.741904"><ele>471</ele><name>TP01082</name><time>2020-03-15T19:56:24Z</time></trkpt>
   <trkpt lat="30.861966" lon="34.74195"><ele>470.4</ele><name>TP01083</name><time>2020-03-15T19:56:31Z</time></trkpt>
   <trkpt lat="30.862044" lon="34.741956"><ele>470.2</ele><name>TP01084</name><time>2020-03-15T19:56:33Z</time></trkpt>
   <trkpt lat="30.862113" lon="34.741942"><ele>470.4</ele><name>TP01085</name><time>2020-03-15T19:56:35Z</time></trkpt>
   <trkpt lat="30.862173" lon="34.741928"><ele>471</ele><name>TP01086</name><time>2020-03-15T19:56:37Z</time></trkpt>
   <trkpt lat="30.862201" lon="34.741919"><ele>471.2</ele><name>TP01087</name><time>2020-03-15T19:56:38Z</time></trkpt>
   <trkpt lat="30.8623" lon="34.741881"><ele>471.4</ele><name>TP01088</name><time>2020-03-15T19:56:41Z</time></trkpt>
   <trkpt lat="30.862555" lon="34.741858"><ele>470.8</ele><name>TP01089</name><time>2020-03-15T19:56:48Z</time></trkpt>
   <trkpt lat="30.862668" lon="34.741907"><ele>470.2</ele><name>TP01090</name><time>2020-03-15T19:56:50Z</time></trkpt>
   <trkpt lat="30.862762" lon="34.741981"><ele>469.8</ele><name>TP01091</name><time>2020-03-15T19:56:52Z</time></trkpt>
   <trkpt lat="30.862989" lon="34.742211"><ele>469.6</ele><name>TP01092</name><time>2020-03-15T19:56:58Z</time></trkpt>
   <trkpt lat="30.86317" lon="34.74233"><ele>469.6</ele><name>TP01093</name><time>2020-03-15T19:57:02Z</time></trkpt>
   <trkpt lat="30.863257" lon="34.742391"><ele>469</ele><name>TP01094</name><time>2020-03-15T19:57:04Z</time></trkpt>
   <trkpt lat="30.86348" lon="34.742595"><ele>468.2</ele><name>TP01095</name><time>2020-03-15T19:57:09Z</time></trkpt>
   <trkpt lat="30.863525" lon="34.74264"><ele>468</ele><name>TP01096</name><time>2020-03-15T19:57:10Z</time></trkpt>
   <trkpt lat="30.863763" lon="34.742861"><ele>467.6</ele><name>TP01097</name><time>2020-03-15T19:57:15Z</time></trkpt>
   <trkpt lat="30.863856" lon="34.742959"><ele>466.8</ele><name>TP01098</name><time>2020-03-15T19:57:17Z</time></trkpt>
   <trkpt lat="30.864114" lon="34.743207"><ele>466.6</ele><name>TP01099</name><time>2020-03-15T19:57:23Z</time></trkpt>
   <trkpt lat="30.864205" lon="34.743276"><ele>466.4</ele><name>TP01100</name><time>2020-03-15T19:57:25Z</time></trkpt>
   <trkpt lat="30.864337" lon="34.743355"><ele>466.4</ele><name>TP01101</name><time>2020-03-15T19:57:28Z</time></trkpt>
   <trkpt lat="30.864504" lon="34.743446"><ele>465.8</ele><name>TP01102</name><time>2020-03-15T19:57:32Z</time></trkpt>
   <trkpt lat="30.864674" lon="34.743544"><ele>465.8</ele><name>TP01103</name><time>2020-03-15T19:57:36Z</time></trkpt>
   <trkpt lat="30.864864" lon="34.743726"><ele>466</ele><name>TP01104</name><time>2020-03-15T19:57:41Z</time></trkpt>
   <trkpt lat="30.864984" lon="34.743878"><ele>466</ele><name>TP01105</name><time>2020-03-15T19:57:45Z</time></trkpt>
   <trkpt lat="30.865105" lon="34.743963"><ele>466.2</ele><name>TP01106</name><time>2020-03-15T19:57:48Z</time></trkpt>
   <trkpt lat="30.865356" lon="34.744075"><ele>465.8</ele><name>TP01107</name><time>2020-03-15T19:57:53Z</time></trkpt>
   <trkpt lat="30.865904" lon="34.744334"><ele>465</ele><name>TP01108</name><time>2020-03-15T19:58:03Z</time></trkpt>
   <trkpt lat="30.86627" lon="34.744475"><ele>464.8</ele><name>TP01109</name><time>2020-03-15T19:58:10Z</time></trkpt>
   <trkpt lat="30.866786" lon="34.744707"><ele>464.2</ele><name>TP01110</name><time>2020-03-15T19:58:20Z</time></trkpt>
   <trkpt lat="30.867015" lon="34.744815"><ele>463.6</ele><name>TP01111</name><time>2020-03-15T19:58:24Z</time></trkpt>
   <trkpt lat="30.867528" lon="34.745093"><ele>463.2</ele><name>TP01112</name><time>2020-03-15T19:58:33Z</time></trkpt>
   <trkpt lat="30.867728" lon="34.745191"><ele>462.6</ele><name>TP01113</name><time>2020-03-15T19:58:36Z</time></trkpt>
   <trkpt lat="30.867914" lon="34.74529"><ele>462.2</ele><name>TP01114</name><time>2020-03-15T19:58:39Z</time></trkpt>
   <trkpt lat="30.868097" lon="34.74539"><ele>461.8</ele><name>TP01115</name><time>2020-03-15T19:58:42Z</time></trkpt>
   <trkpt lat="30.868209" lon="34.745452"><ele>462</ele><name>TP01116</name><time>2020-03-15T19:58:44Z</time></trkpt>
   <trkpt lat="30.868367" lon="34.745547"><ele>462</ele><name>TP01117</name><time>2020-03-15T19:58:47Z</time></trkpt>
   <trkpt lat="30.868473" lon="34.74561"><ele>461.6</ele><name>TP01118</name><time>2020-03-15T19:58:49Z</time></trkpt>
   <trkpt lat="30.868695" lon="34.745716"><ele>460.8</ele><name>TP01119</name><time>2020-03-15T19:58:53Z</time></trkpt>
   <trkpt lat="30.869226" lon="34.745887"><ele>461.8</ele><name>TP01120</name><time>2020-03-15T19:59:02Z</time></trkpt>
   <trkpt lat="30.869655" lon="34.746117"><ele>462.4</ele><name>TP01121</name><time>2020-03-15T19:59:10Z</time></trkpt>
   <trkpt lat="30.870008" lon="34.746252"><ele>462</ele><name>TP01122</name><time>2020-03-15T19:59:17Z</time></trkpt>
   <trkpt lat="30.870237" lon="34.746365"><ele>461.4</ele><name>TP01123</name><time>2020-03-15T19:59:22Z</time></trkpt>
   <trkpt lat="30.87044" lon="34.746443"><ele>460.8</ele><name>TP01124</name><time>2020-03-15T19:59:27Z</time></trkpt>
   <trkpt lat="30.870573" lon="34.746497"><ele>460.8</ele><name>TP01125</name><time>2020-03-15T19:59:31Z</time></trkpt>
   <trkpt lat="30.8706" lon="34.746534"><ele>460.8</ele><name>TP01126</name><time>2020-03-15T19:59:34Z</time></trkpt>
   <trkpt lat="30.870643" lon="34.746537"><ele>460.8</ele><name>TP01127</name><time>2020-03-15T19:59:36Z</time></trkpt>
   <trkpt lat="30.870868" lon="34.746602"><ele>460</ele><name>TP01128</name><time>2020-03-15T19:59:42Z</time></trkpt>
   <trkpt lat="30.870916" lon="34.746623"><ele>459.8</ele><name>TP01129</name><time>2020-03-15T19:59:43Z</time></trkpt>
   <trkpt lat="30.870964" lon="34.746647"><ele>459.6</ele><name>TP01130</name><time>2020-03-15T19:59:44Z</time></trkpt>
   <trkpt lat="30.871012" lon="34.746669"><ele>459.4</ele><name>TP01131</name><time>2020-03-15T19:59:45Z</time></trkpt>
   <trkpt lat="30.871282" lon="34.746786"><ele>459.4</ele><name>TP01132</name><time>2020-03-15T19:59:51Z</time></trkpt>
   <trkpt lat="30.871552" lon="34.746878"><ele>459.4</ele><name>TP01133</name><time>2020-03-15T19:59:57Z</time></trkpt>
   <trkpt lat="30.871638" lon="34.746909"><ele>459.4</ele><name>TP01134</name><time>2020-03-15T19:59:59Z</time></trkpt>
   <trkpt lat="30.872177" lon="34.747169"><ele>459.6</ele><name>TP01135</name><time>2020-03-15T20:00:12Z</time></trkpt>
   <trkpt lat="30.872428" lon="34.747374"><ele>458.8</ele><name>TP01136</name><time>2020-03-15T20:00:18Z</time></trkpt>
   <trkpt lat="30.872466" lon="34.747404"><ele>458.4</ele><name>TP01137</name><time>2020-03-15T20:00:19Z</time></trkpt>
   <trkpt lat="30.872602" lon="34.747519"><ele>458</ele><name>TP01138</name><time>2020-03-15T20:00:25Z</time></trkpt>
   <trkpt lat="30.872879" lon="34.747711"><ele>458</ele><name>TP01139</name><time>2020-03-15T20:00:36Z</time></trkpt>
   <trkpt lat="30.873002" lon="34.747803"><ele>457.8</ele><name>TP01140</name><time>2020-03-15T20:00:39Z</time></trkpt>
   <trkpt lat="30.873144" lon="34.747934"><ele>457.4</ele><name>TP01141</name><time>2020-03-15T20:00:43Z</time></trkpt>
   <trkpt lat="30.87318" lon="34.747961"><ele>457.2</ele><name>TP01142</name><time>2020-03-15T20:00:44Z</time></trkpt>
   <trkpt lat="30.873482" lon="34.748122"><ele>456.8</ele><name>TP01143</name><time>2020-03-15T20:00:52Z</time></trkpt>
   <trkpt lat="30.873615" lon="34.748247"><ele>457</ele><name>TP01144</name><time>2020-03-15T20:00:56Z</time></trkpt>
   <trkpt lat="30.873731" lon="34.748339"><ele>456.6</ele><name>TP01145</name><time>2020-03-15T20:00:59Z</time></trkpt>
   <trkpt lat="30.873918" lon="34.748498"><ele>456.2</ele><name>TP01146</name><time>2020-03-15T20:01:04Z</time></trkpt>
   <trkpt lat="30.874054" lon="34.748594"><ele>456.2</ele><name>TP01147</name><time>2020-03-15T20:01:07Z</time></trkpt>
   <trkpt lat="30.874244" lon="34.748709"><ele>456.6</ele><name>TP01148</name><time>2020-03-15T20:01:11Z</time></trkpt>
   <trkpt lat="30.874704" lon="34.749092"><ele>456.8</ele><name>TP01149</name><time>2020-03-15T20:01:24Z</time></trkpt>
   <trkpt lat="30.874789" lon="34.749152"><ele>456.6</ele><name>TP01150</name><time>2020-03-15T20:01:26Z</time></trkpt>
   <trkpt lat="30.874927" lon="34.749236"><ele>456.4</ele><name>TP01151</name><time>2020-03-15T20:01:30Z</time></trkpt>
   <trkpt lat="30.875399" lon="34.749617"><ele>455.8</ele><name>TP01152</name><time>2020-03-15T20:01:42Z</time></trkpt>
   <trkpt lat="30.875695" lon="34.749811"><ele>455.4</ele><name>TP01153</name><time>2020-03-15T20:01:48Z</time></trkpt>
   <trkpt lat="30.875963" lon="34.750008"><ele>455.4</ele><name>TP01154</name><time>2020-03-15T20:01:54Z</time></trkpt>
   <trkpt lat="30.876273" lon="34.750226"><ele>455.4</ele><name>TP01155</name><time>2020-03-15T20:02:00Z</time></trkpt>
   <trkpt lat="30.876556" lon="34.750542"><ele>455.2</ele><name>TP01156</name><time>2020-03-15T20:02:07Z</time></trkpt>
   <trkpt lat="30.876863" lon="34.750949"><ele>454.6</ele><name>TP01157</name><time>2020-03-15T20:02:15Z</time></trkpt>
   <trkpt lat="30.877" lon="34.751129"><ele>454.6</ele><name>TP01158</name><time>2020-03-15T20:02:18Z</time></trkpt>
   <trkpt lat="30.877137" lon="34.751309"><ele>454.6</ele><name>TP01159</name><time>2020-03-15T20:02:21Z</time></trkpt>
   <trkpt lat="30.877278" lon="34.751476"><ele>454.8</ele><name>TP01160</name><time>2020-03-15T20:02:24Z</time></trkpt>
   <trkpt lat="30.877432" lon="34.751645"><ele>454.6</ele><name>TP01161</name><time>2020-03-15T20:02:27Z</time></trkpt>
   <trkpt lat="30.877524" lon="34.75177"><ele>454.6</ele><name>TP01162</name><time>2020-03-15T20:02:29Z</time></trkpt>
   <trkpt lat="30.877624" lon="34.751888"><ele>454.4</ele><name>TP01163</name><time>2020-03-15T20:02:31Z</time></trkpt>
   <trkpt lat="30.877766" lon="34.752065"><ele>454.6</ele><name>TP01164</name><time>2020-03-15T20:02:34Z</time></trkpt>
   <trkpt lat="30.877898" lon="34.752239"><ele>455.2</ele><name>TP01165</name><time>2020-03-15T20:02:37Z</time></trkpt>
   <trkpt lat="30.878175" lon="34.752592"><ele>454.2</ele><name>TP01166</name><time>2020-03-15T20:02:43Z</time></trkpt>
   <trkpt lat="30.878567" lon="34.753082"><ele>453.8</ele><name>TP01167</name><time>2020-03-15T20:02:52Z</time></trkpt>
   <trkpt lat="30.878819" lon="34.753428"><ele>454.6</ele><name>TP01168</name><time>2020-03-15T20:02:59Z</time></trkpt>
   <trkpt lat="30.87909" lon="34.753719"><ele>454.8</ele><name>TP01169</name><time>2020-03-15T20:03:07Z</time></trkpt>
   <trkpt lat="30.879484" lon="34.754241"><ele>455.2</ele><name>TP01170</name><time>2020-03-15T20:03:18Z</time></trkpt>
   <trkpt lat="30.879578" lon="34.754346"><ele>455</ele><name>TP01171</name><time>2020-03-15T20:03:20Z</time></trkpt>
   <trkpt lat="30.879754" lon="34.754499"><ele>453.2</ele><name>TP01172</name><time>2020-03-15T20:03:23Z</time></trkpt>
   <trkpt lat="30.879813" lon="34.754547"><ele>453</ele><name>TP01173</name><time>2020-03-15T20:03:24Z</time></trkpt>
   <trkpt lat="30.880084" lon="34.754764"><ele>453</ele><name>TP01174</name><time>2020-03-15T20:03:30Z</time></trkpt>
   <trkpt lat="30.880349" lon="34.755122"><ele>453.8</ele><name>TP01175</name><time>2020-03-15T20:03:38Z</time></trkpt>
   <trkpt lat="30.880434" lon="34.75527"><ele>454.4</ele><name>TP01176</name><time>2020-03-15T20:03:41Z</time></trkpt>
   <trkpt lat="30.880569" lon="34.755446"><ele>454</ele><name>TP01177</name><time>2020-03-15T20:03:46Z</time></trkpt>
   <trkpt lat="30.880649" lon="34.755462"><ele>453.4</ele><name>TP01178</name><time>2020-03-15T20:03:49Z</time></trkpt>
   <trkpt lat="30.880595" lon="34.755361"><ele>453.8</ele><name>TP01179</name><time>2020-03-15T20:03:54Z</time></trkpt>
   <trkpt lat="30.880325" lon="34.755007"><ele>454</ele><name>TP01180</name><time>2020-03-15T20:04:04Z</time></trkpt>
   <trkpt lat="30.880138" lon="34.754825"><ele>453.4</ele><name>TP01181</name><time>2020-03-15T20:04:09Z</time></trkpt>
   <trkpt lat="30.879943" lon="34.754618"><ele>453.2</ele><name>TP01182</name><time>2020-03-15T20:04:14Z</time></trkpt>
   <trkpt lat="30.879816" lon="34.75453"><ele>453</ele><name>TP01183</name><time>2020-03-15T20:04:17Z</time></trkpt>
   <trkpt lat="30.879732" lon="34.754464"><ele>452.8</ele><name>TP01184</name><time>2020-03-15T20:04:19Z</time></trkpt>
   <trkpt lat="30.879436" lon="34.754214"><ele>454.6</ele><name>TP01185</name><time>2020-03-15T20:04:29Z</time></trkpt>
   <trkpt lat="30.879291" lon="34.754123"><ele>455.6</ele><name>TP01186</name><time>2020-03-15T20:04:48Z</time></trkpt>
   <trkpt lat="30.879291" lon="34.754125"><ele>455.4</ele><name>TP01187</name><time>2020-03-15T20:04:52Z</time></trkpt>
   <trkpt lat="30.879291" lon="34.754123"><ele>455.4</ele><name>TP01188</name><time>2020-03-15T20:04:58Z</time></trkpt>
   <trkpt lat="30.879291" lon="34.754123"><ele>455.4</ele><name>TP01189</name><time>2020-03-15T20:05:01Z</time></trkpt>
   <trkpt lat="30.879291" lon="34.754123"><ele>455.4</ele><name>TP01190</name><time>2020-03-15T20:05:03Z</time></trkpt>
   <trkpt lat="30.879291" lon="34.754123"><ele>455.4</ele><name>TP01191</name><time>2020-03-15T20:05:06Z</time></trkpt>
   <trkpt lat="30.879291" lon="34.754123"><ele>455.4</ele><name>TP01192</name><time>2020-03-15T20:05:08Z</time></trkpt>
   <trkpt lat="30.879291" lon="34.754123"><ele>455.2</ele><name>TP01193</name><time>2020-03-15T20:05:14Z</time></trkpt>
   <trkpt lat="30.879291" lon="34.754124"><ele>455.8</ele><name>TP01194</name><time>2020-03-15T20:05:34Z</time></trkpt>
   <trkpt lat="30.879291" lon="34.754123"><ele>455.8</ele><name>TP01195</name><time>2020-03-15T20:06:02Z</time></trkpt>
   <trkpt lat="30.879252" lon="34.754107"><ele>455.8</ele><name>TP01196</name><time>2020-03-15T20:06:06Z</time></trkpt>
   <trkpt lat="30.87917" lon="34.754159"><ele>456</ele><name>TP01197</name><time>2020-03-15T20:06:10Z</time></trkpt>
   <trkpt lat="30.879148" lon="34.754185"><ele>456</ele><name>TP01198</name><time>2020-03-15T20:06:11Z</time></trkpt>
   <trkpt lat="30.878822" lon="34.754421"><ele>457</ele><name>TP01199</name><time>2020-03-15T20:06:21Z</time></trkpt>
   <trkpt lat="30.878674" lon="34.75448"><ele>457.4</ele><name>TP01200</name><time>2020-03-15T20:06:26Z</time></trkpt>
   <trkpt lat="30.878549" lon="34.754431"><ele>457.6</ele><name>TP01201</name><time>2020-03-15T20:06:30Z</time></trkpt>
   <trkpt lat="30.878366" lon="34.754353"><ele>457.8</ele><name>TP01202</name><time>2020-03-15T20:06:36Z</time></trkpt>
   <trkpt lat="30.878256" lon="34.754376"><ele>458</ele><name>TP01203</name><time>2020-03-15T20:06:40Z</time></trkpt>
   <trkpt lat="30.87815" lon="34.754486"><ele>458.8</ele><name>TP01204</name><time>2020-03-15T20:06:46Z</time></trkpt>
   <trkpt lat="30.878143" lon="34.754509"><ele>459.2</ele><name>TP01205</name><time>2020-03-15T20:06:47Z</time></trkpt>
   <trkpt lat="30.877876" lon="34.754781"><ele>460.2</ele><name>TP01206</name><time>2020-03-15T20:07:00Z</time></trkpt>
   <trkpt lat="30.877769" lon="34.754831"><ele>460.8</ele><name>TP01207</name><time>2020-03-15T20:07:03Z</time></trkpt>
   <trkpt lat="30.877698" lon="34.75494"><ele>461.2</ele><name>TP01208</name><time>2020-03-15T20:07:06Z</time></trkpt>
   <trkpt lat="30.877673" lon="34.754982"><ele>461.4</ele><name>TP01209</name><time>2020-03-15T20:07:07Z</time></trkpt>
   <trkpt lat="30.877619" lon="34.755059"><ele>461.6</ele><name>TP01210</name><time>2020-03-15T20:07:09Z</time></trkpt>
   <trkpt lat="30.877536" lon="34.755199"><ele>461.6</ele><name>TP01211</name><time>2020-03-15T20:07:13Z</time></trkpt>
   <trkpt lat="30.877202" lon="34.755284"><ele>462.8</ele><name>TP01212</name><time>2020-03-15T20:07:23Z</time></trkpt>
   <trkpt lat="30.876823" lon="34.755353"><ele>464</ele><name>TP01213</name><time>2020-03-15T20:07:33Z</time></trkpt>
   <trkpt lat="30.876617" lon="34.755391"><ele>465</ele><name>TP01214</name><time>2020-03-15T20:07:39Z</time></trkpt>
   <trkpt lat="30.876448" lon="34.755406"><ele>466.2</ele><name>TP01215</name><time>2020-03-15T20:07:44Z</time></trkpt>
   <trkpt lat="30.876318" lon="34.75542"><ele>467.2</ele><name>TP01216</name><time>2020-03-15T20:07:48Z</time></trkpt>
   <trkpt lat="30.876157" lon="34.755432"><ele>468</ele><name>TP01217</name><time>2020-03-15T20:07:53Z</time></trkpt>
   <trkpt lat="30.876091" lon="34.755426"><ele>468.4</ele><name>TP01218</name><time>2020-03-15T20:07:55Z</time></trkpt>
   <trkpt lat="30.875959" lon="34.755428"><ele>469.6</ele><name>TP01219</name><time>2020-03-15T20:07:59Z</time></trkpt>
   <trkpt lat="30.875759" lon="34.755539"><ele>468.4</ele><name>TP01220</name><time>2020-03-15T20:08:05Z</time></trkpt>
   <trkpt lat="30.875635" lon="34.755586"><ele>467.8</ele><name>TP01221</name><time>2020-03-15T20:08:08Z</time></trkpt>
   <trkpt lat="30.875447" lon="34.755609"><ele>467.8</ele><name>TP01222</name><time>2020-03-15T20:08:13Z</time></trkpt>
   <trkpt lat="30.875367" lon="34.755646"><ele>467.8</ele><name>TP01223</name><time>2020-03-15T20:08:15Z</time></trkpt>
   <trkpt lat="30.874998" lon="34.755672"><ele>468.4</ele><name>TP01224</name><time>2020-03-15T20:08:23Z</time></trkpt>
   <trkpt lat="30.874903" lon="34.755663"><ele>468.8</ele><name>TP01225</name><time>2020-03-15T20:08:25Z</time></trkpt>
   <trkpt lat="30.874803" lon="34.755669"><ele>469</ele><name>TP01226</name><time>2020-03-15T20:08:27Z</time></trkpt>
   <trkpt lat="30.874583" lon="34.755711"><ele>469.8</ele><name>TP01227</name><time>2020-03-15T20:08:32Z</time></trkpt>
   <trkpt lat="30.874541" lon="34.755715"><ele>470</ele><name>TP01228</name><time>2020-03-15T20:08:33Z</time></trkpt>
   <trkpt lat="30.874291" lon="34.755689"><ele>471</ele><name>TP01229</name><time>2020-03-15T20:08:39Z</time></trkpt>
   <trkpt lat="30.874248" lon="34.755687"><ele>471.2</ele><name>TP01230</name><time>2020-03-15T20:08:40Z</time></trkpt>
   <trkpt lat="30.874053" lon="34.755671"><ele>472</ele><name>TP01231</name><time>2020-03-15T20:08:45Z</time></trkpt>
   <trkpt lat="30.873896" lon="34.755636"><ele>472.8</ele><name>TP01232</name><time>2020-03-15T20:08:49Z</time></trkpt>
   <trkpt lat="30.873777" lon="34.755606"><ele>473.2</ele><name>TP01233</name><time>2020-03-15T20:08:52Z</time></trkpt>
   <trkpt lat="30.873472" lon="34.755524"><ele>474.2</ele><name>TP01234</name><time>2020-03-15T20:09:00Z</time></trkpt>
   <trkpt lat="30.873248" lon="34.755477"><ele>475.4</ele><name>TP01235</name><time>2020-03-15T20:09:06Z</time></trkpt>
   <trkpt lat="30.872979" lon="34.755437"><ele>476.6</ele><name>TP01236</name><time>2020-03-15T20:09:13Z</time></trkpt>
   <trkpt lat="30.872711" lon="34.755399"><ele>477.4</ele><name>TP01237</name><time>2020-03-15T20:09:20Z</time></trkpt>
   <trkpt lat="30.87267" lon="34.7554"><ele>477.6</ele><name>TP01238</name><time>2020-03-15T20:09:21Z</time></trkpt>
   <trkpt lat="30.872589" lon="34.7554"><ele>477.8</ele><name>TP01239</name><time>2020-03-15T20:09:23Z</time></trkpt>
   <trkpt lat="30.872282" lon="34.755382"><ele>478.8</ele><name>TP01240</name><time>2020-03-15T20:09:31Z</time></trkpt>
   <trkpt lat="30.87213" lon="34.755391"><ele>480</ele><name>TP01241</name><time>2020-03-15T20:09:35Z</time></trkpt>
   <trkpt lat="30.872012" lon="34.755407"><ele>480.4</ele><name>TP01242</name><time>2020-03-15T20:09:38Z</time></trkpt>
   <trkpt lat="30.871932" lon="34.755426"><ele>480.6</ele><name>TP01243</name><time>2020-03-15T20:09:40Z</time></trkpt>
   <trkpt lat="30.871808" lon="34.755432"><ele>481.2</ele><name>TP01244</name><time>2020-03-15T20:09:43Z</time></trkpt>
   <trkpt lat="30.871452" lon="34.755456"><ele>482.4</ele><name>TP01245</name><time>2020-03-15T20:09:52Z</time></trkpt>
   <trkpt lat="30.871371" lon="34.755463"><ele>482.6</ele><name>TP01246</name><time>2020-03-15T20:09:54Z</time></trkpt>
   <trkpt lat="30.871204" lon="34.755453"><ele>483</ele><name>TP01247</name><time>2020-03-15T20:09:58Z</time></trkpt>
   <trkpt lat="30.870836" lon="34.755493"><ele>483.4</ele><name>TP01248</name><time>2020-03-15T20:10:07Z</time></trkpt>
   <trkpt lat="30.870425" lon="34.755447"><ele>484.6</ele><name>TP01249</name><time>2020-03-15T20:10:18Z</time></trkpt>
   <trkpt lat="30.870243" lon="34.755435"><ele>485.6</ele><name>TP01250</name><time>2020-03-15T20:10:23Z</time></trkpt>
   <trkpt lat="30.870034" lon="34.75535"><ele>486</ele><name>TP01251</name><time>2020-03-15T20:10:29Z</time></trkpt>
   <trkpt lat="30.869914" lon="34.75532"><ele>486.2</ele><name>TP01252</name><time>2020-03-15T20:10:32Z</time></trkpt>
   <trkpt lat="30.869761" lon="34.755232"><ele>486.6</ele><name>TP01253</name><time>2020-03-15T20:10:36Z</time></trkpt>
   <trkpt lat="30.869631" lon="34.755175"><ele>487</ele><name>TP01254</name><time>2020-03-15T20:10:39Z</time></trkpt>
   <trkpt lat="30.869544" lon="34.755145"><ele>487.2</ele><name>TP01255</name><time>2020-03-15T20:10:41Z</time></trkpt>
   <trkpt lat="30.869417" lon="34.755097"><ele>488</ele><name>TP01256</name><time>2020-03-15T20:10:44Z</time></trkpt>
   <trkpt lat="30.869375" lon="34.755087"><ele>488.2</ele><name>TP01257</name><time>2020-03-15T20:10:45Z</time></trkpt>
   <trkpt lat="30.86929" lon="34.755067"><ele>488.4</ele><name>TP01258</name><time>2020-03-15T20:10:47Z</time></trkpt>
   <trkpt lat="30.869219" lon="34.755028"><ele>489</ele><name>TP01259</name><time>2020-03-15T20:10:49Z</time></trkpt>
   <trkpt lat="30.868992" lon="34.754873"><ele>490.2</ele><name>TP01260</name><time>2020-03-15T20:10:56Z</time></trkpt>
   <trkpt lat="30.868959" lon="34.754858"><ele>490.6</ele><name>TP01261</name><time>2020-03-15T20:10:57Z</time></trkpt>
   <trkpt lat="30.86889" lon="34.754834"><ele>491.4</ele><name>TP01262</name><time>2020-03-15T20:10:59Z</time></trkpt>
   <trkpt lat="30.868473" lon="34.754749"><ele>492.6</ele><name>TP01263</name><time>2020-03-15T20:11:13Z</time></trkpt>
   <trkpt lat="30.868426" lon="34.754723"><ele>493.4</ele><name>TP01264</name><time>2020-03-15T20:11:19Z</time></trkpt>
   <trkpt lat="30.868428" lon="34.754724"><ele>493.2</ele><name>TP01265</name><time>2020-03-15T20:11:33Z</time></trkpt>
   <trkpt lat="30.868427" lon="34.754724"><ele>493.2</ele><name>TP01266</name><time>2020-03-15T20:11:37Z</time></trkpt>
   <trkpt lat="30.868427" lon="34.754724"><ele>493.2</ele><name>TP01267</name><time>2020-03-15T20:11:39Z</time></trkpt>
   <trkpt lat="30.868427" lon="34.754724"><ele>493</ele><name>TP01268</name><time>2020-03-15T20:11:41Z</time></trkpt>
   <trkpt lat="30.868427" lon="34.754724"><ele>492.8</ele><name>TP01269</name><time>2020-03-15T20:11:43Z</time></trkpt>
   <trkpt lat="30.868427" lon="34.754724"><ele>492.8</ele><name>TP01270</name><time>2020-03-15T20:11:45Z</time></trkpt>
   <trkpt lat="30.868427" lon="34.754724"><ele>492.8</ele><name>TP01271</name><time>2020-03-15T20:11:47Z</time></trkpt>
   <trkpt lat="30.868427" lon="34.754724"><ele>493</ele><name>TP01272</name><time>2020-03-15T20:11:50Z</time></trkpt>
   <trkpt lat="30.868427" lon="34.754724"><ele>493</ele><name>TP01273</name><time>2020-03-15T20:11:54Z</time></trkpt>
   <trkpt lat="30.868404" lon="34.754712"><ele>493</ele><name>TP01274</name><time>2020-03-15T20:11:58Z</time></trkpt>
   <trkpt lat="30.868265" lon="34.75466"><ele>493.2</ele><name>TP01275</name><time>2020-03-15T20:12:03Z</time></trkpt>
   <trkpt lat="30.868077" lon="34.75459"><ele>493.4</ele><name>TP01276</name><time>2020-03-15T20:12:08Z</time></trkpt>
   <trkpt lat="30.867994" lon="34.754572"><ele>493.8</ele><name>TP01277</name><time>2020-03-15T20:12:10Z</time></trkpt>
   <trkpt lat="30.867868" lon="34.754571"><ele>494.2</ele><name>TP01278</name><time>2020-03-15T20:12:14Z</time></trkpt>
   <trkpt lat="30.86763" lon="34.754575"><ele>493.4</ele><name>TP01279</name><time>2020-03-15T20:12:24Z</time></trkpt>
   <trkpt lat="30.867564" lon="34.754617"><ele>492.2</ele><name>TP01280</name><time>2020-03-15T20:12:27Z</time></trkpt>
   <trkpt lat="30.867441" lon="34.754703"><ele>491</ele><name>TP01281</name><time>2020-03-15T20:12:33Z</time></trkpt>
   <trkpt lat="30.867395" lon="34.754734"><ele>490.2</ele><name>TP01282</name><time>2020-03-15T20:12:35Z</time></trkpt>
   <trkpt lat="30.867362" lon="34.754749"><ele>489.8</ele><name>TP01283</name><time>2020-03-15T20:12:36Z</time></trkpt>
   <trkpt lat="30.867323" lon="34.754761"><ele>489.4</ele><name>TP01284</name><time>2020-03-15T20:12:37Z</time></trkpt>
   <trkpt lat="30.867232" lon="34.754777"><ele>488.6</ele><name>TP01285</name><time>2020-03-15T20:12:39Z</time></trkpt>
   <trkpt lat="30.866971" lon="34.755077"><ele>487.8</ele><name>TP01286</name><time>2020-03-15T20:12:51Z</time></trkpt>
   <trkpt lat="30.866904" lon="34.755151"><ele>487.4</ele><name>TP01287</name><time>2020-03-15T20:12:53Z</time></trkpt>
   <trkpt lat="30.866748" lon="34.755323"><ele>486.8</ele><name>TP01288</name><time>2020-03-15T20:12:57Z</time></trkpt>
   <trkpt lat="30.866671" lon="34.755397"><ele>486.6</ele><name>TP01289</name><time>2020-03-15T20:12:59Z</time></trkpt>
   <trkpt lat="30.866636" lon="34.755439"><ele>486.4</ele><name>TP01290</name><time>2020-03-15T20:13:00Z</time></trkpt>
   <trkpt lat="30.866495" lon="34.755579"><ele>486</ele><name>TP01291</name><time>2020-03-15T20:13:04Z</time></trkpt>
   <trkpt lat="30.866459" lon="34.755604"><ele>485.8</ele><name>TP01292</name><time>2020-03-15T20:13:05Z</time></trkpt>
   <trkpt lat="30.866422" lon="34.755622"><ele>485.4</ele><name>TP01293</name><time>2020-03-15T20:13:06Z</time></trkpt>
   <trkpt lat="30.866304" lon="34.755669"><ele>484.6</ele><name>TP01294</name><time>2020-03-15T20:13:10Z</time></trkpt>
   <trkpt lat="30.866288" lon="34.755684"><ele>484.4</ele><name>TP01295</name><time>2020-03-15T20:13:11Z</time></trkpt>
   <trkpt lat="30.866145" lon="34.755737"><ele>483.2</ele><name>TP01296</name><time>2020-03-15T20:13:16Z</time></trkpt>
   <trkpt lat="30.865761" lon="34.755754"><ele>483.4</ele><name>TP01297</name><time>2020-03-15T20:13:27Z</time></trkpt>
   <trkpt lat="30.86547" lon="34.755868"><ele>484.2</ele><name>TP01298</name><time>2020-03-15T20:13:34Z</time></trkpt>
   <trkpt lat="30.865427" lon="34.755881"><ele>484.4</ele><name>TP01299</name><time>2020-03-15T20:13:35Z</time></trkpt>
   <trkpt lat="30.865159" lon="34.755966"><ele>485</ele><name>TP01300</name><time>2020-03-15T20:13:42Z</time></trkpt>
   <trkpt lat="30.865" lon="34.756054"><ele>485.6</ele><name>TP01301</name><time>2020-03-15T20:13:46Z</time></trkpt>
   <trkpt lat="30.86487" lon="34.756135"><ele>486</ele><name>TP01302</name><time>2020-03-15T20:13:50Z</time></trkpt>
   <trkpt lat="30.864832" lon="34.756146"><ele>486</ele><name>TP01303</name><time>2020-03-15T20:13:51Z</time></trkpt>
   <trkpt lat="30.864696" lon="34.75617"><ele>486.2</ele><name>TP01304</name><time>2020-03-15T20:13:54Z</time></trkpt>
   <trkpt lat="30.864565" lon="34.756149"><ele>486.6</ele><name>TP01305</name><time>2020-03-15T20:13:57Z</time></trkpt>
   <trkpt lat="30.86411" lon="34.755976"><ele>487.2</ele><name>TP01306</name><time>2020-03-15T20:14:10Z</time></trkpt>
   <trkpt lat="30.863952" lon="34.755995"><ele>487.8</ele><name>TP01307</name><time>2020-03-15T20:14:15Z</time></trkpt>
   <trkpt lat="30.863864" lon="34.756062"><ele>488.8</ele><name>TP01308</name><time>2020-03-15T20:14:18Z</time></trkpt>
   <trkpt lat="30.863737" lon="34.756157"><ele>489.4</ele><name>TP01309</name><time>2020-03-15T20:14:22Z</time></trkpt>
   <trkpt lat="30.863638" lon="34.756157"><ele>490</ele><name>TP01310</name><time>2020-03-15T20:14:25Z</time></trkpt>
   <trkpt lat="30.863607" lon="34.756167"><ele>490.4</ele><name>TP01311</name><time>2020-03-15T20:14:26Z</time></trkpt>
   <trkpt lat="30.863567" lon="34.756219"><ele>491.2</ele><name>TP01312</name><time>2020-03-15T20:14:28Z</time></trkpt>
   <trkpt lat="30.863568" lon="34.756283"><ele>492</ele><name>TP01313</name><time>2020-03-15T20:14:30Z</time></trkpt>
   <trkpt lat="30.863568" lon="34.756314"><ele>492.2</ele><name>TP01314</name><time>2020-03-15T20:14:31Z</time></trkpt>
   <trkpt lat="30.863511" lon="34.756457"><ele>493.6</ele><name>TP01315</name><time>2020-03-15T20:14:36Z</time></trkpt>
   <trkpt lat="30.863436" lon="34.7566"><ele>494.6</ele><name>TP01316</name><time>2020-03-15T20:14:41Z</time></trkpt>
   <trkpt lat="30.863351" lon="34.756732"><ele>495.8</ele><name>TP01317</name><time>2020-03-15T20:14:46Z</time></trkpt>
   <trkpt lat="30.863275" lon="34.756864"><ele>496.8</ele><name>TP01318</name><time>2020-03-15T20:14:51Z</time></trkpt>
   <trkpt lat="30.863134" lon="34.757036"><ele>497.8</ele><name>TP01319</name><time>2020-03-15T20:14:59Z</time></trkpt>
   <trkpt lat="30.863119" lon="34.757059"><ele>498.2</ele><name>TP01320</name><time>2020-03-15T20:15:02Z</time></trkpt>
   <trkpt lat="30.863066" lon="34.75712"><ele>498</ele><name>TP01321</name><time>2020-03-15T20:15:06Z</time></trkpt>
   <trkpt lat="30.862736" lon="34.757269"><ele>498.6</ele><name>TP01322</name><time>2020-03-15T20:15:16Z</time></trkpt>
   <trkpt lat="30.862654" lon="34.757271"><ele>498.8</ele><name>TP01323</name><time>2020-03-15T20:15:18Z</time></trkpt>
   <trkpt lat="30.862111" lon="34.757118"><ele>498.8</ele><name>TP01324</name><time>2020-03-15T20:15:31Z</time></trkpt>
   <trkpt lat="30.861995" lon="34.757091"><ele>499.2</ele><name>TP01325</name><time>2020-03-15T20:15:34Z</time></trkpt>
   <trkpt lat="30.861953" lon="34.757096"><ele>499.4</ele><name>TP01326</name><time>2020-03-15T20:15:35Z</time></trkpt>
   <trkpt lat="30.86172" lon="34.75716"><ele>500.6</ele><name>TP01327</name><time>2020-03-15T20:15:41Z</time></trkpt>
   <trkpt lat="30.861627" lon="34.757183"><ele>502.2</ele><name>TP01328</name><time>2020-03-15T20:15:44Z</time></trkpt>
   <trkpt lat="30.861444" lon="34.757228"><ele>503.2</ele><name>TP01329</name><time>2020-03-15T20:15:51Z</time></trkpt>
   <trkpt lat="30.860908" lon="34.757085"><ele>503.4</ele><name>TP01330</name><time>2020-03-15T20:16:07Z</time></trkpt>
   <trkpt lat="30.860823" lon="34.756984"><ele>503.4</ele><name>TP01331</name><time>2020-03-15T20:16:10Z</time></trkpt>
   <trkpt lat="30.860738" lon="34.756879"><ele>503.8</ele><name>TP01332</name><time>2020-03-15T20:16:13Z</time></trkpt>
   <trkpt lat="30.860598" lon="34.756769"><ele>504.2</ele><name>TP01333</name><time>2020-03-15T20:16:17Z</time></trkpt>
   <trkpt lat="30.860481" lon="34.75664"><ele>505</ele><name>TP01334</name><time>2020-03-15T20:16:21Z</time></trkpt>
   <trkpt lat="30.860425" lon="34.756599"><ele>505.4</ele><name>TP01335</name><time>2020-03-15T20:16:23Z</time></trkpt>
   <trkpt lat="30.860221" lon="34.756494"><ele>506.4</ele><name>TP01336</name><time>2020-03-15T20:16:29Z</time></trkpt>
   <trkpt lat="30.860011" lon="34.756498"><ele>506.8</ele><name>TP01337</name><time>2020-03-15T20:16:35Z</time></trkpt>
   <trkpt lat="30.859798" lon="34.756517"><ele>507.6</ele><name>TP01338</name><time>2020-03-15T20:16:40Z</time></trkpt>
   <trkpt lat="30.859454" lon="34.756609"><ele>509</ele><name>TP01339</name><time>2020-03-15T20:16:50Z</time></trkpt>
   <trkpt lat="30.859382" lon="34.75662"><ele>510</ele><name>TP01340</name><time>2020-03-15T20:16:53Z</time></trkpt>
   <trkpt lat="30.859267" lon="34.75662"><ele>511.2</ele><name>TP01341</name><time>2020-03-15T20:16:58Z</time></trkpt>
   <trkpt lat="30.859139" lon="34.756619"><ele>511.2</ele><name>TP01342</name><time>2020-03-15T20:17:02Z</time></trkpt>
   <trkpt lat="30.858869" lon="34.756618"><ele>512.2</ele><name>TP01343</name><time>2020-03-15T20:17:10Z</time></trkpt>
   <trkpt lat="30.858474" lon="34.756826"><ele>513.2</ele><name>TP01344</name><time>2020-03-15T20:17:23Z</time></trkpt>
   <trkpt lat="30.858412" lon="34.756922"><ele>514.6</ele><name>TP01345</name><time>2020-03-15T20:17:26Z</time></trkpt>
   <trkpt lat="30.858307" lon="34.757066"><ele>516</ele><name>TP01346</name><time>2020-03-15T20:17:31Z</time></trkpt>
   <trkpt lat="30.85817" lon="34.75722"><ele>517</ele><name>TP01347</name><time>2020-03-15T20:17:37Z</time></trkpt>
   <trkpt lat="30.858002" lon="34.757345"><ele>518.2</ele><name>TP01348</name><time>2020-03-15T20:17:43Z</time></trkpt>
   <trkpt lat="30.857719" lon="34.757632"><ele>519.2</ele><name>TP01349</name><time>2020-03-15T20:17:54Z</time></trkpt>
   <trkpt lat="30.857656" lon="34.757769"><ele>520.4</ele><name>TP01350</name><time>2020-03-15T20:17:58Z</time></trkpt>
   <trkpt lat="30.857463" lon="34.758011"><ele>521</ele><name>TP01351</name><time>2020-03-15T20:18:07Z</time></trkpt>
   <trkpt lat="30.857401" lon="34.758049"><ele>521.6</ele><name>TP01352</name><time>2020-03-15T20:18:09Z</time></trkpt>
   <trkpt lat="30.857306" lon="34.758168"><ele>522.6</ele><name>TP01353</name><time>2020-03-15T20:18:13Z</time></trkpt>
   <trkpt lat="30.857238" lon="34.758347"><ele>523.6</ele><name>TP01354</name><time>2020-03-15T20:18:18Z</time></trkpt>
   <trkpt lat="30.857157" lon="34.758501"><ele>524.8</ele><name>TP01355</name><time>2020-03-15T20:18:23Z</time></trkpt>
   <trkpt lat="30.857089" lon="34.758611"><ele>525.8</ele><name>TP01356</name><time>2020-03-15T20:18:27Z</time></trkpt>
   <trkpt lat="30.856905" lon="34.758744"><ele>527</ele><name>TP01357</name><time>2020-03-15T20:18:36Z</time></trkpt>
   <trkpt lat="30.856799" lon="34.758811"><ele>528.2</ele><name>TP01358</name><time>2020-03-15T20:18:42Z</time></trkpt>
   <trkpt lat="30.856716" lon="34.758896"><ele>529.2</ele><name>TP01359</name><time>2020-03-15T20:18:47Z</time></trkpt>
   <trkpt lat="30.856593" lon="34.758977"><ele>530.4</ele><name>TP01360</name><time>2020-03-15T20:18:54Z</time></trkpt>
   <trkpt lat="30.856434" lon="34.759067"><ele>531.8</ele><name>TP01361</name><time>2020-03-15T20:19:03Z</time></trkpt>
   <trkpt lat="30.856382" lon="34.759092"><ele>533.2</ele><name>TP01362</name><time>2020-03-15T20:19:06Z</time></trkpt>
   <trkpt lat="30.856317" lon="34.759123"><ele>534.2</ele><name>TP01363</name><time>2020-03-15T20:19:10Z</time></trkpt>
   <trkpt lat="30.856273" lon="34.759162"><ele>535.4</ele><name>TP01364</name><time>2020-03-15T20:19:13Z</time></trkpt>
   <trkpt lat="30.856115" lon="34.75925"><ele>536.6</ele><name>TP01365</name><time>2020-03-15T20:19:23Z</time></trkpt>
   <trkpt lat="30.856067" lon="34.759238"><ele>537</ele><name>TP01366</name><time>2020-03-15T20:19:26Z</time></trkpt>
   <trkpt lat="30.856021" lon="34.759242"><ele>537.8</ele><name>TP01367</name><time>2020-03-15T20:19:29Z</time></trkpt>
   <trkpt lat="30.855986" lon="34.759251"><ele>538</ele><name>TP01368</name><time>2020-03-15T20:19:31Z</time></trkpt>
   <trkpt lat="30.855908" lon="34.75927"><ele>538.8</ele><name>TP01369</name><time>2020-03-15T20:19:35Z</time></trkpt>
   <trkpt lat="30.855867" lon="34.759297"><ele>539.6</ele><name>TP01370</name><time>2020-03-15T20:19:38Z</time></trkpt>
   <trkpt lat="30.85586" lon="34.759319"><ele>540</ele><name>TP01371</name><time>2020-03-15T20:19:39Z</time></trkpt>
   <trkpt lat="30.855926" lon="34.759381"><ele>540.6</ele><name>TP01372</name><time>2020-03-15T20:19:43Z</time></trkpt>
   <trkpt lat="30.856454" lon="34.759383"><ele>540</ele><name>TP01373</name><time>2020-03-15T20:20:04Z</time></trkpt>
   <trkpt lat="30.856535" lon="34.759355"><ele>539.8</ele><name>TP01374</name><time>2020-03-15T20:20:07Z</time></trkpt>
   <trkpt lat="30.85661" lon="34.759355"><ele>540.2</ele><name>TP01375</name><time>2020-03-15T20:20:13Z</time></trkpt>
   <trkpt lat="30.856612" lon="34.759355"><ele>540</ele><name>TP01376</name><time>2020-03-15T20:20:20Z</time></trkpt>
   <trkpt lat="30.856612" lon="34.759355"><ele>540</ele><name>TP01377</name><time>2020-03-15T20:20:23Z</time></trkpt>
   <trkpt lat="30.856612" lon="34.759355"><ele>540.2</ele><name>TP01378</name><time>2020-03-15T20:20:26Z</time></trkpt>
   <trkpt lat="30.856612" lon="34.759355"><ele>540.4</ele><name>TP01379</name><time>2020-03-15T20:20:28Z</time></trkpt>
   <trkpt lat="30.856612" lon="34.759355"><ele>540.2</ele><name>TP01380</name><time>2020-03-15T20:20:34Z</time></trkpt>
   <trkpt lat="30.856612" lon="34.759355"><ele>540</ele><name>TP01381</name><time>2020-03-15T20:20:36Z</time></trkpt>
   <trkpt lat="30.856612" lon="34.759355"><ele>540.2</ele><name>TP01382</name><time>2020-03-15T20:20:44Z</time></trkpt>
   <trkpt lat="30.856612" lon="34.759355"><ele>540.2</ele><name>TP01383</name><time>2020-03-15T20:20:47Z</time></trkpt>
   <trkpt lat="30.856612" lon="34.759355"><ele>540.2</ele><name>TP01384</name><time>2020-03-15T20:20:49Z</time></trkpt>
   <trkpt lat="30.856612" lon="34.759355"><ele>540</ele><name>TP01385</name><time>2020-03-15T20:20:51Z</time></trkpt>
   <trkpt lat="30.856612" lon="34.759355"><ele>540.2</ele><name>TP01386</name><time>2020-03-15T20:20:55Z</time></trkpt>
   <trkpt lat="30.856612" lon="34.759355"><ele>540.2</ele><name>TP01387</name><time>2020-03-15T20:20:56Z</time></trkpt>
   <trkpt lat="30.856612" lon="34.759355"><ele>540.2</ele><name>TP01388</name><time>2020-03-15T20:20:59Z</time></trkpt>
   <trkpt lat="30.856612" lon="34.759355"><ele>540.2</ele><name>TP01389</name><time>2020-03-15T20:21:01Z</time></trkpt>
   <trkpt lat="30.856612" lon="34.759355"><ele>540</ele><name>TP01390</name><time>2020-03-15T20:21:09Z</time></trkpt>
   <trkpt lat="30.856612" lon="34.759353"><ele>540</ele><name>TP01391</name><time>2020-03-15T20:21:13Z</time></trkpt>
   <trkpt lat="30.856612" lon="34.759353"><ele>540</ele><name>TP01392</name><time>2020-03-15T20:21:15Z</time></trkpt>
   <trkpt lat="30.856612" lon="34.759353"><ele>540</ele><name>TP01393</name><time>2020-03-15T20:21:27Z</time></trkpt>
   <trkpt lat="30.856611" lon="34.759353"><ele>540</ele><name>TP01394</name><time>2020-03-15T20:21:38Z</time></trkpt>
   <trkpt lat="30.85661" lon="34.759353"><ele>540</ele><name>TP01395</name><time>2020-03-15T20:21:45Z</time></trkpt>
   <trkpt lat="30.856611" lon="34.759353"><ele>539.8</ele><name>TP01396</name><time>2020-03-15T20:21:52Z</time></trkpt>
   <trkpt lat="30.856611" lon="34.759353"><ele>540</ele><name>TP01397</name><time>2020-03-15T20:21:54Z</time></trkpt>
   <trkpt lat="30.856611" lon="34.759353"><ele>540</ele><name>TP01398</name><time>2020-03-15T20:21:58Z</time></trkpt>
   <trkpt lat="30.856611" lon="34.759353"><ele>535</ele><name>TP01399</name><time>2020-03-15T20:22:02Z</time></trkpt>
   <trkpt lat="30.85661" lon="34.759353"><ele>539.8</ele><name>TP01400</name><time>2020-03-15T20:22:14Z</time></trkpt>
   <trkpt lat="30.856611" lon="34.759353"><ele>539.8</ele><name>TP01401</name><time>2020-03-15T20:22:26Z</time></trkpt>
   <trkpt lat="30.856624" lon="34.759347"><ele>539.8</ele><name>TP01402</name><time>2020-03-15T20:22:32Z</time></trkpt>
   <trkpt lat="30.856671" lon="34.759328"><ele>539.8</ele><name>TP01403</name><time>2020-03-15T20:22:35Z</time></trkpt>
   <trkpt lat="30.856715" lon="34.759326"><ele>540</ele><name>TP01404</name><time>2020-03-15T20:22:37Z</time></trkpt>
   <trkpt lat="30.856736" lon="34.759329"><ele>540.2</ele><name>TP01405</name><time>2020-03-15T20:22:38Z</time></trkpt>
   <trkpt lat="30.856782" lon="34.759328"><ele>540.6</ele><name>TP01406</name><time>2020-03-15T20:22:40Z</time></trkpt>
   <trkpt lat="30.856853" lon="34.759338"><ele>541</ele><name>TP01407</name><time>2020-03-15T20:22:43Z</time></trkpt>
   <trkpt lat="30.856893" lon="34.759362"><ele>542</ele><name>TP01408</name><time>2020-03-15T20:22:45Z</time></trkpt>
   <trkpt lat="30.856906" lon="34.759381"><ele>542.2</ele><name>TP01409</name><time>2020-03-15T20:22:46Z</time></trkpt>
   <trkpt lat="30.8569" lon="34.759421"><ele>542.8</ele><name>TP01410</name><time>2020-03-15T20:22:48Z</time></trkpt>
   <trkpt lat="30.856863" lon="34.75945"><ele>543.4</ele><name>TP01411</name><time>2020-03-15T20:22:50Z</time></trkpt>
   <trkpt lat="30.856838" lon="34.759461"><ele>543.6</ele><name>TP01412</name><time>2020-03-15T20:22:51Z</time></trkpt>
   <trkpt lat="30.856788" lon="34.759491"><ele>544.2</ele><name>TP01413</name><time>2020-03-15T20:22:53Z</time></trkpt>
   <trkpt lat="30.856769" lon="34.75951"><ele>544.4</ele><name>TP01414</name><time>2020-03-15T20:22:54Z</time></trkpt>
   <trkpt lat="30.856728" lon="34.759551"><ele>545</ele><name>TP01415</name><time>2020-03-15T20:22:56Z</time></trkpt>
   <trkpt lat="30.856629" lon="34.759629"><ele>545.2</ele><name>TP01416</name><time>2020-03-15T20:23:00Z</time></trkpt>
   <trkpt lat="30.856544" lon="34.759663"><ele>545.6</ele><name>TP01417</name><time>2020-03-15T20:23:03Z</time></trkpt>
   <trkpt lat="30.856367" lon="34.75972"><ele>546.6</ele><name>TP01418</name><time>2020-03-15T20:23:09Z</time></trkpt>
   <trkpt lat="30.85614" lon="34.759801"><ele>547.6</ele><name>TP01419</name><time>2020-03-15T20:23:17Z</time></trkpt>
   <trkpt lat="30.855934" lon="34.75984"><ele>548.8</ele><name>TP01420</name><time>2020-03-15T20:23:24Z</time></trkpt>
   <trkpt lat="30.855844" lon="34.759915"><ele>550</ele><name>TP01421</name><time>2020-03-15T20:23:28Z</time></trkpt>
   <trkpt lat="30.855791" lon="34.759987"><ele>551.2</ele><name>TP01422</name><time>2020-03-15T20:23:31Z</time></trkpt>
   <trkpt lat="30.855743" lon="34.760091"><ele>552.2</ele><name>TP01423</name><time>2020-03-15T20:23:35Z</time></trkpt>
   <trkpt lat="30.855791" lon="34.760438"><ele>552</ele><name>TP01424</name><time>2020-03-15T20:23:46Z</time></trkpt>
   <trkpt lat="30.85601" lon="34.761043"><ele>553</ele><name>TP01425</name><time>2020-03-15T20:24:03Z</time></trkpt>
   <trkpt lat="30.856022" lon="34.761118"><ele>553.4</ele><name>TP01426</name><time>2020-03-15T20:24:05Z</time></trkpt>
   <trkpt lat="30.85604" lon="34.761409"><ele>554.4</ele><name>TP01427</name><time>2020-03-15T20:24:13Z</time></trkpt>
   <trkpt lat="30.856026" lon="34.76168"><ele>555.4</ele><name>TP01428</name><time>2020-03-15T20:24:22Z</time></trkpt>
   <trkpt lat="30.855896" lon="34.761674"><ele>554.2</ele><name>TP01429</name><time>2020-03-15T20:24:27Z</time></trkpt>
   <trkpt lat="30.855811" lon="34.7616"><ele>553</ele><name>TP01430</name><time>2020-03-15T20:24:31Z</time></trkpt>
   <trkpt lat="30.855784" lon="34.761535"><ele>552</ele><name>TP01431</name><time>2020-03-15T20:24:33Z</time></trkpt>
   <trkpt lat="30.855756" lon="34.761474"><ele>550.8</ele><name>TP01432</name><time>2020-03-15T20:24:35Z</time></trkpt>
   <trkpt lat="30.855729" lon="34.761377"><ele>549.8</ele><name>TP01433</name><time>2020-03-15T20:24:38Z</time></trkpt>
   <trkpt lat="30.855724" lon="34.761189"><ele>548.6</ele><name>TP01434</name><time>2020-03-15T20:24:42Z</time></trkpt>
   <trkpt lat="30.855704" lon="34.761004"><ele>547</ele><name>TP01435</name><time>2020-03-15T20:24:45Z</time></trkpt>
   <trkpt lat="30.85566" lon="34.760779"><ele>545.6</ele><name>TP01436</name><time>2020-03-15T20:24:49Z</time></trkpt>
   <trkpt lat="30.855578" lon="34.760692"><ele>544.4</ele><name>TP01437</name><time>2020-03-15T20:24:52Z</time></trkpt>
   <trkpt lat="30.855461" lon="34.760709"><ele>543.2</ele><name>TP01438</name><time>2020-03-15T20:24:55Z</time></trkpt>
   <trkpt lat="30.855307" lon="34.760726"><ele>541.8</ele><name>TP01439</name><time>2020-03-15T20:24:59Z</time></trkpt>
   <trkpt lat="30.855238" lon="34.760749"><ele>540.6</ele><name>TP01440</name><time>2020-03-15T20:25:01Z</time></trkpt>
   <trkpt lat="30.85516" lon="34.760782"><ele>539.6</ele><name>TP01441</name><time>2020-03-15T20:25:04Z</time></trkpt>
   <trkpt lat="30.855101" lon="34.760831"><ele>538.4</ele><name>TP01442</name><time>2020-03-15T20:25:07Z</time></trkpt>
   <trkpt lat="30.855054" lon="34.76084"><ele>537.6</ele><name>TP01443</name><time>2020-03-15T20:25:09Z</time></trkpt>
   <trkpt lat="30.855023" lon="34.760837"><ele>537.2</ele><name>TP01444</name><time>2020-03-15T20:25:10Z</time></trkpt>
   <trkpt lat="30.854952" lon="34.760851"><ele>536</ele><name>TP01445</name><time>2020-03-15T20:25:12Z</time></trkpt>
   <trkpt lat="30.854772" lon="34.760967"><ele>536</ele><name>TP01446</name><time>2020-03-15T20:25:18Z</time></trkpt>
   <trkpt lat="30.854712" lon="34.761062"><ele>536</ele><name>TP01447</name><time>2020-03-15T20:25:21Z</time></trkpt>
   <trkpt lat="30.854658" lon="34.761105"><ele>535.4</ele><name>TP01448</name><time>2020-03-15T20:25:23Z</time></trkpt>
   <trkpt lat="30.854634" lon="34.761122"><ele>535</ele><name>TP01449</name><time>2020-03-15T20:25:24Z</time></trkpt>
   <trkpt lat="30.854467" lon="34.761256"><ele>533.6</ele><name>TP01450</name><time>2020-03-15T20:25:31Z</time></trkpt>
   <trkpt lat="30.854333" lon="34.761336"><ele>532.4</ele><name>TP01451</name><time>2020-03-15T20:25:35Z</time></trkpt>
   <trkpt lat="30.854196" lon="34.761403"><ele>531.2</ele><name>TP01452</name><time>2020-03-15T20:25:39Z</time></trkpt>
   <trkpt lat="30.854126" lon="34.761444"><ele>530</ele><name>TP01453</name><time>2020-03-15T20:25:41Z</time></trkpt>
   <trkpt lat="30.854053" lon="34.761495"><ele>529</ele><name>TP01454</name><time>2020-03-15T20:25:43Z</time></trkpt>
   <trkpt lat="30.853966" lon="34.76154"><ele>527.8</ele><name>TP01455</name><time>2020-03-15T20:25:45Z</time></trkpt>
   <trkpt lat="30.853868" lon="34.761589"><ele>526.4</ele><name>TP01456</name><time>2020-03-15T20:25:47Z</time></trkpt>
   <trkpt lat="30.853766" lon="34.761648"><ele>525</ele><name>TP01457</name><time>2020-03-15T20:25:49Z</time></trkpt>
   <trkpt lat="30.853665" lon="34.761719"><ele>523.8</ele><name>TP01458</name><time>2020-03-15T20:25:51Z</time></trkpt>
   <trkpt lat="30.853524" lon="34.761828"><ele>522.8</ele><name>TP01459</name><time>2020-03-15T20:25:54Z</time></trkpt>
   <trkpt lat="30.853482" lon="34.761874"><ele>522.8</ele><name>TP01460</name><time>2020-03-15T20:25:55Z</time></trkpt>
   <trkpt lat="30.853417" lon="34.762109"><ele>521.8</ele><name>TP01461</name><time>2020-03-15T20:25:59Z</time></trkpt>
   <trkpt lat="30.85341" lon="34.762172"><ele>521.2</ele><name>TP01462</name><time>2020-03-15T20:26:00Z</time></trkpt>
   <trkpt lat="30.853396" lon="34.762236"><ele>520.8</ele><name>TP01463</name><time>2020-03-15T20:26:01Z</time></trkpt>
   <trkpt lat="30.853326" lon="34.762417"><ele>520</ele><name>TP01464</name><time>2020-03-15T20:26:04Z</time></trkpt>
   <trkpt lat="30.853305" lon="34.762601"><ele>519.4</ele><name>TP01465</name><time>2020-03-15T20:26:07Z</time></trkpt>
   <trkpt lat="30.853305" lon="34.762721"><ele>518.8</ele><name>TP01466</name><time>2020-03-15T20:26:09Z</time></trkpt>
   <trkpt lat="30.853305" lon="34.762951"><ele>517.8</ele><name>TP01467</name><time>2020-03-15T20:26:13Z</time></trkpt>
   <trkpt lat="30.853296" lon="34.763119"><ele>517.4</ele><name>TP01468</name><time>2020-03-15T20:26:16Z</time></trkpt>
   <trkpt lat="30.853279" lon="34.763225"><ele>516.8</ele><name>TP01469</name><time>2020-03-15T20:26:18Z</time></trkpt>
   <trkpt lat="30.853256" lon="34.763329"><ele>516.2</ele><name>TP01470</name><time>2020-03-15T20:26:20Z</time></trkpt>
   <trkpt lat="30.853223" lon="34.763426"><ele>515.6</ele><name>TP01471</name><time>2020-03-15T20:26:22Z</time></trkpt>
   <trkpt lat="30.853169" lon="34.763583"><ele>515.6</ele><name>TP01472</name><time>2020-03-15T20:26:25Z</time></trkpt>
   <trkpt lat="30.853191" lon="34.763912"><ele>515</ele><name>TP01473</name><time>2020-03-15T20:26:30Z</time></trkpt>
   <trkpt lat="30.853198" lon="34.763981"><ele>514.6</ele><name>TP01474</name><time>2020-03-15T20:26:31Z</time></trkpt>
   <trkpt lat="30.853171" lon="34.764273"><ele>513</ele><name>TP01475</name><time>2020-03-15T20:26:35Z</time></trkpt>
   <trkpt lat="30.853135" lon="34.764568"><ele>512.4</ele><name>TP01476</name><time>2020-03-15T20:26:39Z</time></trkpt>
   <trkpt lat="30.853141" lon="34.764638"><ele>511.8</ele><name>TP01477</name><time>2020-03-15T20:26:40Z</time></trkpt>
   <trkpt lat="30.853193" lon="34.764839"><ele>510.6</ele><name>TP01478</name><time>2020-03-15T20:26:43Z</time></trkpt>
   <trkpt lat="30.853183" lon="34.765324"><ele>510.4</ele><name>TP01479</name><time>2020-03-15T20:26:50Z</time></trkpt>
   <trkpt lat="30.85321" lon="34.765456"><ele>509.6</ele><name>TP01480</name><time>2020-03-15T20:26:52Z</time></trkpt>
   <trkpt lat="30.853243" lon="34.765574"><ele>508.6</ele><name>TP01481</name><time>2020-03-15T20:26:54Z</time></trkpt>
   <trkpt lat="30.853247" lon="34.765632"><ele>508.6</ele><name>TP01482</name><time>2020-03-15T20:26:55Z</time></trkpt>
   <trkpt lat="30.853231" lon="34.76583"><ele>508</ele><name>TP01483</name><time>2020-03-15T20:26:58Z</time></trkpt>
   <trkpt lat="30.853209" lon="34.765969"><ele>507.4</ele><name>TP01484</name><time>2020-03-15T20:27:00Z</time></trkpt>
   <trkpt lat="30.853112" lon="34.766597"><ele>506.4</ele><name>TP01485</name><time>2020-03-15T20:27:09Z</time></trkpt>
   <trkpt lat="30.853062" lon="34.766928"><ele>505.2</ele><name>TP01486</name><time>2020-03-15T20:27:14Z</time></trkpt>
   <trkpt lat="30.853007" lon="34.767231"><ele>504</ele><name>TP01487</name><time>2020-03-15T20:27:18Z</time></trkpt>
   <trkpt lat="30.852965" lon="34.767617"><ele>502.6</ele><name>TP01488</name><time>2020-03-15T20:27:23Z</time></trkpt>
   <trkpt lat="30.8529" lon="34.768145"><ele>501.6</ele><name>TP01489</name><time>2020-03-15T20:27:31Z</time></trkpt>
   <trkpt lat="30.852813" lon="34.768385"><ele>500.8</ele><name>TP01490</name><time>2020-03-15T20:27:36Z</time></trkpt>
   <trkpt lat="30.852773" lon="34.768481"><ele>500.4</ele><name>TP01491</name><time>2020-03-15T20:27:40Z</time></trkpt>
   <trkpt lat="30.852771" lon="34.768481"><ele>500.8</ele><name>TP01492</name><time>2020-03-15T20:28:20Z</time></trkpt>
   <trkpt lat="30.852771" lon="34.768481"><ele>500.8</ele><name>TP01493</name><time>2020-03-15T20:28:37Z</time></trkpt>
   <trkpt lat="30.852771" lon="34.768481"><ele>500.8</ele><name>TP01494</name><time>2020-03-15T20:28:44Z</time></trkpt>
   <trkpt lat="30.852771" lon="34.768481"><ele>500.8</ele><name>TP01495</name><time>2020-03-15T20:28:59Z</time></trkpt>
   <trkpt lat="30.852735" lon="34.768545"><ele>500.2</ele><name>TP01496</name><time>2020-03-15T20:29:11Z</time></trkpt>
   <trkpt lat="30.852668" lon="34.768707"><ele>500.2</ele><name>TP01497</name><time>2020-03-15T20:29:16Z</time></trkpt>
   <trkpt lat="30.852627" lon="34.768791"><ele>500</ele><name>TP01498</name><time>2020-03-15T20:29:19Z</time></trkpt>
   <trkpt lat="30.852577" lon="34.76886"><ele>499.6</ele><name>TP01499</name><time>2020-03-15T20:29:23Z</time></trkpt>
   <trkpt lat="30.852572" lon="34.768862"><ele>499.4</ele><name>TP01500</name><time>2020-03-15T20:29:27Z</time></trkpt>
   <trkpt lat="30.852494" lon="34.768922"><ele>499</ele><name>TP01501</name><time>2020-03-15T20:29:38Z</time></trkpt>
   <trkpt lat="30.852213" lon="34.768883"><ele>498.6</ele><name>TP01502</name><time>2020-03-15T20:29:46Z</time></trkpt>
   <trkpt lat="30.8521" lon="34.768862"><ele>498.4</ele><name>TP01503</name><time>2020-03-15T20:29:49Z</time></trkpt>
   <trkpt lat="30.851924" lon="34.768785"><ele>497.4</ele><name>TP01504</name><time>2020-03-15T20:29:53Z</time></trkpt>
   <trkpt lat="30.851642" lon="34.768617"><ele>496.4</ele><name>TP01505</name><time>2020-03-15T20:30:00Z</time></trkpt>
   <trkpt lat="30.85152" lon="34.768638"><ele>495.8</ele><name>TP01506</name><time>2020-03-15T20:30:03Z</time></trkpt>
   <trkpt lat="30.851383" lon="34.768637"><ele>495</ele><name>TP01507</name><time>2020-03-15T20:30:06Z</time></trkpt>
   <trkpt lat="30.851149" lon="34.768635"><ele>494</ele><name>TP01508</name><time>2020-03-15T20:30:12Z</time></trkpt>
   <trkpt lat="30.851035" lon="34.768762"><ele>492.6</ele><name>TP01509</name><time>2020-03-15T20:30:17Z</time></trkpt>
   <trkpt lat="30.850993" lon="34.768852"><ele>491.8</ele><name>TP01510</name><time>2020-03-15T20:30:20Z</time></trkpt>
   <trkpt lat="30.850972" lon="34.768861"><ele>491.2</ele><name>TP01511</name><time>2020-03-15T20:30:21Z</time></trkpt>
   <trkpt lat="30.850945" lon="34.768766"><ele>491</ele><name>TP01512</name><time>2020-03-15T20:30:25Z</time></trkpt>
   <trkpt lat="30.850916" lon="34.768582"><ele>490.6</ele><name>TP01513</name><time>2020-03-15T20:30:29Z</time></trkpt>
   <trkpt lat="30.850894" lon="34.768536"><ele>490.4</ele><name>TP01514</name><time>2020-03-15T20:30:30Z</time></trkpt>
   <trkpt lat="30.850854" lon="34.768458"><ele>489.8</ele><name>TP01515</name><time>2020-03-15T20:30:32Z</time></trkpt>
   <trkpt lat="30.850828" lon="34.768362"><ele>489.6</ele><name>TP01516</name><time>2020-03-15T20:30:35Z</time></trkpt>
   <trkpt lat="30.850707" lon="34.768411"><ele>490.2</ele><name>TP01517</name><time>2020-03-15T20:30:42Z</time></trkpt>
   <trkpt lat="30.850689" lon="34.768442"><ele>490.4</ele><name>TP01518</name><time>2020-03-15T20:30:43Z</time></trkpt>
   <trkpt lat="30.850639" lon="34.76854"><ele>491</ele><name>TP01519</name><time>2020-03-15T20:30:46Z</time></trkpt>
   <trkpt lat="30.850578" lon="34.768629"><ele>491.4</ele><name>TP01520</name><time>2020-03-15T20:30:49Z</time></trkpt>
   <trkpt lat="30.850542" lon="34.768691"><ele>491.8</ele><name>TP01521</name><time>2020-03-15T20:30:51Z</time></trkpt>
   <trkpt lat="30.850422" lon="34.768762"><ele>492.2</ele><name>TP01522</name><time>2020-03-15T20:30:57Z</time></trkpt>
   <trkpt lat="30.850403" lon="34.768735"><ele>492.2</ele><name>TP01523</name><time>2020-03-15T20:31:02Z</time></trkpt>
   <trkpt lat="30.85029" lon="34.76842"><ele>492.4</ele><name>TP01524</name><time>2020-03-15T20:31:11Z</time></trkpt>
   <trkpt lat="30.850244" lon="34.768287"><ele>492.4</ele><name>TP01525</name><time>2020-03-15T20:31:14Z</time></trkpt>
   <trkpt lat="30.850249" lon="34.768145"><ele>492.6</ele><name>TP01526</name><time>2020-03-15T20:31:17Z</time></trkpt>
   <trkpt lat="30.850272" lon="34.767876"><ele>493.8</ele><name>TP01527</name><time>2020-03-15T20:31:23Z</time></trkpt>
   <trkpt lat="30.850297" lon="34.767623"><ele>494.8</ele><name>TP01528</name><time>2020-03-15T20:31:30Z</time></trkpt>
   <trkpt lat="30.850304" lon="34.76739"><ele>495.2</ele><name>TP01529</name><time>2020-03-15T20:31:36Z</time></trkpt>
   <trkpt lat="30.850086" lon="34.767351"><ele>495.8</ele><name>TP01530</name><time>2020-03-15T20:31:44Z</time></trkpt>
   <trkpt lat="30.850063" lon="34.767386"><ele>496</ele><name>TP01531</name><time>2020-03-15T20:31:45Z</time></trkpt>
   <trkpt lat="30.84993" lon="34.767575"><ele>495.6</ele><name>TP01532</name><time>2020-03-15T20:31:51Z</time></trkpt>
   <trkpt lat="30.849879" lon="34.767618"><ele>495.4</ele><name>TP01533</name><time>2020-03-15T20:31:53Z</time></trkpt>
   <trkpt lat="30.849853" lon="34.76763"><ele>495.4</ele><name>TP01534</name><time>2020-03-15T20:31:54Z</time></trkpt>
   <trkpt lat="30.849797" lon="34.76762"><ele>495</ele><name>TP01535</name><time>2020-03-15T20:31:57Z</time></trkpt>
   <trkpt lat="30.849776" lon="34.767614"><ele>494.8</ele><name>TP01536</name><time>2020-03-15T20:32:03Z</time></trkpt>
   <trkpt lat="30.849776" lon="34.767615"><ele>494.8</ele><name>TP01537</name><time>2020-03-15T20:32:06Z</time></trkpt>
   <trkpt lat="30.849776" lon="34.767616"><ele>494.8</ele><name>TP01538</name><time>2020-03-15T20:32:10Z</time></trkpt>
   <trkpt lat="30.849776" lon="34.767615"><ele>495</ele><name>TP01539</name><time>2020-03-15T20:32:22Z</time></trkpt>
   <trkpt lat="30.849783" lon="34.767605"><ele>495</ele><name>TP01540</name><time>2020-03-15T20:32:33Z</time></trkpt>
   <trkpt lat="30.849784" lon="34.767527"><ele>495</ele><name>TP01541</name><time>2020-03-15T20:32:37Z</time></trkpt>
   <trkpt lat="30.849772" lon="34.767413"><ele>494.8</ele><name>TP01542</name><time>2020-03-15T20:32:40Z</time></trkpt>
   <trkpt lat="30.849713" lon="34.767148"><ele>495</ele><name>TP01543</name><time>2020-03-15T20:32:46Z</time></trkpt>
   <trkpt lat="30.849743" lon="34.767072"><ele>495</ele><name>TP01544</name><time>2020-03-15T20:32:48Z</time></trkpt>
   <trkpt lat="30.849758" lon="34.767027"><ele>495</ele><name>TP01545</name><time>2020-03-15T20:32:49Z</time></trkpt>
   <trkpt lat="30.849752" lon="34.766853"><ele>495.8</ele><name>TP01546</name><time>2020-03-15T20:32:53Z</time></trkpt>
   <trkpt lat="30.849742" lon="34.766811"><ele>495.8</ele><name>TP01547</name><time>2020-03-15T20:32:54Z</time></trkpt>
   <trkpt lat="30.849669" lon="34.766655"><ele>496.2</ele><name>TP01548</name><time>2020-03-15T20:32:58Z</time></trkpt>
   <trkpt lat="30.849617" lon="34.766584"><ele>496.2</ele><name>TP01549</name><time>2020-03-15T20:33:00Z</time></trkpt>
   <trkpt lat="30.849458" lon="34.766295"><ele>496.2</ele><name>TP01550</name><time>2020-03-15T20:33:08Z</time></trkpt>
   <trkpt lat="30.84941" lon="34.766154"><ele>496</ele><name>TP01551</name><time>2020-03-15T20:33:12Z</time></trkpt>
   <trkpt lat="30.849268" lon="34.765963"><ele>495.6</ele><name>TP01552</name><time>2020-03-15T20:33:17Z</time></trkpt>
   <trkpt lat="30.849218" lon="34.765881"><ele>496</ele><name>TP01553</name><time>2020-03-15T20:33:19Z</time></trkpt>
   <trkpt lat="30.849173" lon="34.765794"><ele>496</ele><name>TP01554</name><time>2020-03-15T20:33:21Z</time></trkpt>
   <trkpt lat="30.849057" lon="34.765427"><ele>497.2</ele><name>TP01555</name><time>2020-03-15T20:33:30Z</time></trkpt>
   <trkpt lat="30.84899" lon="34.765276"><ele>497.4</ele><name>TP01556</name><time>2020-03-15T20:33:34Z</time></trkpt>
   <trkpt lat="30.848973" lon="34.765228"><ele>497.4</ele><name>TP01557</name><time>2020-03-15T20:33:35Z</time></trkpt>
   <trkpt lat="30.848934" lon="34.76509"><ele>497.8</ele><name>TP01558</name><time>2020-03-15T20:33:39Z</time></trkpt>
   <trkpt lat="30.848895" lon="34.765073"><ele>498.4</ele><name>TP01559</name><time>2020-03-15T20:33:41Z</time></trkpt>
   <trkpt lat="30.848825" lon="34.765037"><ele>498.8</ele><name>TP01560</name><time>2020-03-15T20:33:44Z</time></trkpt>
   <trkpt lat="30.848799" lon="34.764981"><ele>499.4</ele><name>TP01561</name><time>2020-03-15T20:33:46Z</time></trkpt>
   <trkpt lat="30.848751" lon="34.764851"><ele>499.8</ele><name>TP01562</name><time>2020-03-15T20:33:50Z</time></trkpt>
   <trkpt lat="30.848746" lon="34.764777"><ele>500.4</ele><name>TP01563</name><time>2020-03-15T20:33:52Z</time></trkpt>
   <trkpt lat="30.848746" lon="34.76474"><ele>500.6</ele><name>TP01564</name><time>2020-03-15T20:33:53Z</time></trkpt>
   <trkpt lat="30.848727" lon="34.764537"><ele>501.4</ele><name>TP01565</name><time>2020-03-15T20:33:59Z</time></trkpt>
   <trkpt lat="30.848703" lon="34.764198"><ele>500.2</ele><name>TP01566</name><time>2020-03-15T20:34:10Z</time></trkpt>
   <trkpt lat="30.848705" lon="34.764007"><ele>500.4</ele><name>TP01567</name><time>2020-03-15T20:34:16Z</time></trkpt>
   <trkpt lat="30.848601" lon="34.764025"><ele>501.2</ele><name>TP01568</name><time>2020-03-15T20:34:20Z</time></trkpt>
   <trkpt lat="30.848495" lon="34.764102"><ele>501.2</ele><name>TP01569</name><time>2020-03-15T20:34:23Z</time></trkpt>
   <trkpt lat="30.848221" lon="34.764241"><ele>500.8</ele><name>TP01570</name><time>2020-03-15T20:34:31Z</time></trkpt>
   <trkpt lat="30.848079" lon="34.764227"><ele>501.6</ele><name>TP01571</name><time>2020-03-15T20:34:35Z</time></trkpt>
   <trkpt lat="30.847938" lon="34.764141"><ele>501.8</ele><name>TP01572</name><time>2020-03-15T20:34:39Z</time></trkpt>
   <trkpt lat="30.847935" lon="34.763655"><ele>501.8</ele><name>TP01573</name><time>2020-03-15T20:34:49Z</time></trkpt>
   <trkpt lat="30.847956" lon="34.763608"><ele>502</ele><name>TP01574</name><time>2020-03-15T20:34:50Z</time></trkpt>
   <trkpt lat="30.848006" lon="34.763525"><ele>502.6</ele><name>TP01575</name><time>2020-03-15T20:34:52Z</time></trkpt>
   <trkpt lat="30.848051" lon="34.763444"><ele>502.6</ele><name>TP01576</name><time>2020-03-15T20:34:54Z</time></trkpt>
   <trkpt lat="30.848139" lon="34.763255"><ele>502.6</ele><name>TP01577</name><time>2020-03-15T20:34:59Z</time></trkpt>
   <trkpt lat="30.848255" lon="34.763147"><ele>501.6</ele><name>TP01578</name><time>2020-03-15T20:35:03Z</time></trkpt>
   <trkpt lat="30.848286" lon="34.763118"><ele>501.6</ele><name>TP01579</name><time>2020-03-15T20:35:04Z</time></trkpt>
   <trkpt lat="30.848331" lon="34.763044"><ele>500.8</ele><name>TP01580</name><time>2020-03-15T20:35:06Z</time></trkpt>
   <trkpt lat="30.84834" lon="34.762999"><ele>500.4</ele><name>TP01581</name><time>2020-03-15T20:35:07Z</time></trkpt>
   <trkpt lat="30.847958" lon="34.76267"><ele>501</ele><name>TP01582</name><time>2020-03-15T20:35:22Z</time></trkpt>
   <trkpt lat="30.847924" lon="34.762654"><ele>501.4</ele><name>TP01583</name><time>2020-03-15T20:35:23Z</time></trkpt>
   <trkpt lat="30.847887" lon="34.762642"><ele>501.8</ele><name>TP01584</name><time>2020-03-15T20:35:24Z</time></trkpt>
   <trkpt lat="30.847815" lon="34.762621"><ele>502.6</ele><name>TP01585</name><time>2020-03-15T20:35:26Z</time></trkpt>
   <trkpt lat="30.8477" lon="34.762551"><ele>503.4</ele><name>TP01586</name><time>2020-03-15T20:35:30Z</time></trkpt>
   <trkpt lat="30.847618" lon="34.76239"><ele>503.4</ele><name>TP01587</name><time>2020-03-15T20:35:34Z</time></trkpt>
   <trkpt lat="30.847519" lon="34.762246"><ele>503</ele><name>TP01588</name><time>2020-03-15T20:35:38Z</time></trkpt>
   <trkpt lat="30.847501" lon="34.762203"><ele>503</ele><name>TP01589</name><time>2020-03-15T20:35:39Z</time></trkpt>
   <trkpt lat="30.847501" lon="34.761996"><ele>503</ele><name>TP01590</name><time>2020-03-15T20:35:44Z</time></trkpt>
   <trkpt lat="30.847504" lon="34.761893"><ele>502.8</ele><name>TP01591</name><time>2020-03-15T20:35:47Z</time></trkpt>
   <trkpt lat="30.847392" lon="34.761831"><ele>502</ele><name>TP01592</name><time>2020-03-15T20:35:51Z</time></trkpt>
   <trkpt lat="30.847341" lon="34.761775"><ele>501.6</ele><name>TP01593</name><time>2020-03-15T20:35:53Z</time></trkpt>
   <trkpt lat="30.847189" lon="34.761756"><ele>500.8</ele><name>TP01594</name><time>2020-03-15T20:35:57Z</time></trkpt>
   <trkpt lat="30.847152" lon="34.761745"><ele>500.6</ele><name>TP01595</name><time>2020-03-15T20:35:58Z</time></trkpt>
   <trkpt lat="30.847115" lon="34.761727"><ele>500.6</ele><name>TP01596</name><time>2020-03-15T20:35:59Z</time></trkpt>
   <trkpt lat="30.846998" lon="34.761659"><ele>499.6</ele><name>TP01597</name><time>2020-03-15T20:36:02Z</time></trkpt>
   <trkpt lat="30.846914" lon="34.761622"><ele>498.8</ele><name>TP01598</name><time>2020-03-15T20:36:04Z</time></trkpt>
   <trkpt lat="30.846821" lon="34.761609"><ele>498.2</ele><name>TP01599</name><time>2020-03-15T20:36:06Z</time></trkpt>
   <trkpt lat="30.846665" lon="34.761702"><ele>496.8</ele><name>TP01600</name><time>2020-03-15T20:36:10Z</time></trkpt>
   <trkpt lat="30.846633" lon="34.76174"><ele>496.4</ele><name>TP01601</name><time>2020-03-15T20:36:11Z</time></trkpt>
   <trkpt lat="30.8466" lon="34.761773"><ele>496.2</ele><name>TP01602</name><time>2020-03-15T20:36:12Z</time></trkpt>
   <trkpt lat="30.846476" lon="34.761811"><ele>495.6</ele><name>TP01603</name><time>2020-03-15T20:36:15Z</time></trkpt>
   <trkpt lat="30.846288" lon="34.761777"><ele>494.6</ele><name>TP01604</name><time>2020-03-15T20:36:20Z</time></trkpt>
   <trkpt lat="30.84621" lon="34.761815"><ele>494.2</ele><name>TP01605</name><time>2020-03-15T20:36:22Z</time></trkpt>
   <trkpt lat="30.846126" lon="34.761852"><ele>493.8</ele><name>TP01606</name><time>2020-03-15T20:36:24Z</time></trkpt>
   <trkpt lat="30.846079" lon="34.761858"><ele>493.2</ele><name>TP01607</name><time>2020-03-15T20:36:25Z</time></trkpt>
   <trkpt lat="30.846004" lon="34.761809"><ele>492</ele><name>TP01608</name><time>2020-03-15T20:36:27Z</time></trkpt>
   <trkpt lat="30.846017" lon="34.761656"><ele>490.8</ele><name>TP01609</name><time>2020-03-15T20:36:30Z</time></trkpt>
   <trkpt lat="30.846042" lon="34.761606"><ele>490.6</ele><name>TP01610</name><time>2020-03-15T20:36:31Z</time></trkpt>
   <trkpt lat="30.846084" lon="34.761509"><ele>490.2</ele><name>TP01611</name><time>2020-03-15T20:36:33Z</time></trkpt>
   <trkpt lat="30.846116" lon="34.761391"><ele>489.8</ele><name>TP01612</name><time>2020-03-15T20:36:35Z</time></trkpt>
   <trkpt lat="30.846179" lon="34.761225"><ele>488.4</ele><name>TP01613</name><time>2020-03-15T20:36:38Z</time></trkpt>
   <trkpt lat="30.846253" lon="34.761003"><ele>487.4</ele><name>TP01614</name><time>2020-03-15T20:36:42Z</time></trkpt>
   <trkpt lat="30.846294" lon="34.760849"><ele>486</ele><name>TP01615</name><time>2020-03-15T20:36:45Z</time></trkpt>
   <trkpt lat="30.846305" lon="34.7608"><ele>485.6</ele><name>TP01616</name><time>2020-03-15T20:36:46Z</time></trkpt>
   <trkpt lat="30.846312" lon="34.760749"><ele>485</ele><name>TP01617</name><time>2020-03-15T20:36:47Z</time></trkpt>
   <trkpt lat="30.846317" lon="34.760595"><ele>483.4</ele><name>TP01618</name><time>2020-03-15T20:36:50Z</time></trkpt>
   <trkpt lat="30.846316" lon="34.760546"><ele>483</ele><name>TP01619</name><time>2020-03-15T20:36:51Z</time></trkpt>
   <trkpt lat="30.846291" lon="34.76046"><ele>482</ele><name>TP01620</name><time>2020-03-15T20:36:53Z</time></trkpt>
   <trkpt lat="30.846247" lon="34.760401"><ele>481</ele><name>TP01621</name><time>2020-03-15T20:36:55Z</time></trkpt>
   <trkpt lat="30.846141" lon="34.760366"><ele>479.8</ele><name>TP01622</name><time>2020-03-15T20:36:58Z</time></trkpt>
   <trkpt lat="30.846097" lon="34.760362"><ele>479.6</ele><name>TP01623</name><time>2020-03-15T20:36:59Z</time></trkpt>
   <trkpt lat="30.846051" lon="34.760355"><ele>479</ele><name>TP01624</name><time>2020-03-15T20:37:00Z</time></trkpt>
   <trkpt lat="30.846004" lon="34.760343"><ele>478.6</ele><name>TP01625</name><time>2020-03-15T20:37:01Z</time></trkpt>
   <trkpt lat="30.845918" lon="34.760306"><ele>477.4</ele><name>TP01626</name><time>2020-03-15T20:37:03Z</time></trkpt>
   <trkpt lat="30.845844" lon="34.760248"><ele>476</ele><name>TP01627</name><time>2020-03-15T20:37:05Z</time></trkpt>
   <trkpt lat="30.845744" lon="34.760209"><ele>474.8</ele><name>TP01628</name><time>2020-03-15T20:37:08Z</time></trkpt>
   <trkpt lat="30.845662" lon="34.760242"><ele>473.6</ele><name>TP01629</name><time>2020-03-15T20:37:10Z</time></trkpt>
   <trkpt lat="30.845573" lon="34.760259"><ele>472.6</ele><name>TP01630</name><time>2020-03-15T20:37:12Z</time></trkpt>
   <trkpt lat="30.845486" lon="34.76025"><ele>471.6</ele><name>TP01631</name><time>2020-03-15T20:37:14Z</time></trkpt>
   <trkpt lat="30.845445" lon="34.760242"><ele>471</ele><name>TP01632</name><time>2020-03-15T20:37:15Z</time></trkpt>
   <trkpt lat="30.845299" lon="34.76016"><ele>469.6</ele><name>TP01633</name><time>2020-03-15T20:37:19Z</time></trkpt>
   <trkpt lat="30.845232" lon="34.760121"><ele>468.4</ele><name>TP01634</name><time>2020-03-15T20:37:21Z</time></trkpt>
   <trkpt lat="30.845199" lon="34.760112"><ele>468</ele><name>TP01635</name><time>2020-03-15T20:37:22Z</time></trkpt>
   <trkpt lat="30.845077" lon="34.760183"><ele>467.2</ele><name>TP01636</name><time>2020-03-15T20:37:26Z</time></trkpt>
   <trkpt lat="30.844964" lon="34.760238"><ele>466.2</ele><name>TP01637</name><time>2020-03-15T20:37:29Z</time></trkpt>
   <trkpt lat="30.844878" lon="34.760225"><ele>466.2</ele><name>TP01638</name><time>2020-03-15T20:37:32Z</time></trkpt>
   <trkpt lat="30.844814" lon="34.760243"><ele>466.4</ele><name>TP01639</name><time>2020-03-15T20:37:34Z</time></trkpt>
   <trkpt lat="30.844782" lon="34.760261"><ele>466.6</ele><name>TP01640</name><time>2020-03-15T20:37:35Z</time></trkpt>
   <trkpt lat="30.844719" lon="34.760295"><ele>466.8</ele><name>TP01641</name><time>2020-03-15T20:37:37Z</time></trkpt>
   <trkpt lat="30.84466" lon="34.76031"><ele>467.2</ele><name>TP01642</name><time>2020-03-15T20:37:39Z</time></trkpt>
   <trkpt lat="30.844627" lon="34.760314"><ele>467.4</ele><name>TP01643</name><time>2020-03-15T20:37:42Z</time></trkpt>
   <trkpt lat="30.844627" lon="34.760311"><ele>468</ele><name>TP01644</name><time>2020-03-15T20:37:51Z</time></trkpt>
   <trkpt lat="30.844627" lon="34.760311"><ele>467.8</ele><name>TP01645</name><time>2020-03-15T20:38:09Z</time></trkpt>
   <trkpt lat="30.844628" lon="34.760311"><ele>467.6</ele><name>TP01646</name><time>2020-03-15T20:38:15Z</time></trkpt>
   <trkpt lat="30.844627" lon="34.760311"><ele>467.6</ele><name>TP01647</name><time>2020-03-15T20:38:17Z</time></trkpt>
   <trkpt lat="30.844627" lon="34.760311"><ele>467.6</ele><name>TP01648</name><time>2020-03-15T20:38:24Z</time></trkpt>
   <trkpt lat="30.844627" lon="34.760311"><ele>467.6</ele><name>TP01649</name><time>2020-03-15T20:38:26Z</time></trkpt>
   <trkpt lat="30.844627" lon="34.760311"><ele>467.6</ele><name>TP01650</name><time>2020-03-15T20:38:30Z</time></trkpt>
   <trkpt lat="30.844627" lon="34.760311"><ele>467.8</ele><name>TP01651</name><time>2020-03-15T20:39:21Z</time></trkpt>
   <trkpt lat="30.844627" lon="34.760311"><ele>467.6</ele><name>TP01652</name><time>2020-03-15T20:40:10Z</time></trkpt>
   <trkpt lat="30.844628" lon="34.760311"><ele>467.4</ele><name>TP01653</name><time>2020-03-15T20:40:43Z</time></trkpt>
   <trkpt lat="30.844628" lon="34.760311"><ele>467.4</ele><name>TP01654</name><time>2020-03-15T20:40:46Z</time></trkpt>
   <trkpt lat="30.844601" lon="34.760209"><ele>468.4</ele><name>TP01655</name><time>2020-03-15T20:41:16Z</time></trkpt>
   <trkpt lat="30.84461" lon="34.760173"><ele>468.6</ele><name>TP01656</name><time>2020-03-15T20:41:19Z</time></trkpt>
   <trkpt lat="30.844636" lon="34.760024"><ele>468.6</ele><name>TP01657</name><time>2020-03-15T20:41:24Z</time></trkpt>
   <trkpt lat="30.844685" lon="34.759846"><ele>469</ele><name>TP01658</name><time>2020-03-15T20:41:28Z</time></trkpt>
   <trkpt lat="30.844758" lon="34.75939"><ele>469.4</ele><name>TP01659</name><time>2020-03-15T20:41:37Z</time></trkpt>
   <trkpt lat="30.844862" lon="34.759244"><ele>469.6</ele><name>TP01660</name><time>2020-03-15T20:41:41Z</time></trkpt>
   <trkpt lat="30.844889" lon="34.759208"><ele>469.6</ele><name>TP01661</name><time>2020-03-15T20:41:42Z</time></trkpt>
   <trkpt lat="30.844884" lon="34.758952"><ele>470.2</ele><name>TP01662</name><time>2020-03-15T20:41:47Z</time></trkpt>
   <trkpt lat="30.844847" lon="34.758812"><ele>470.6</ele><name>TP01663</name><time>2020-03-15T20:41:50Z</time></trkpt>
   <trkpt lat="30.844815" lon="34.758675"><ele>470.6</ele><name>TP01664</name><time>2020-03-15T20:41:53Z</time></trkpt>
   <trkpt lat="30.844721" lon="34.758622"><ele>470.2</ele><name>TP01665</name><time>2020-03-15T20:41:56Z</time></trkpt>
   <trkpt lat="30.844689" lon="34.758352"><ele>470.2</ele><name>TP01666</name><time>2020-03-15T20:42:02Z</time></trkpt>
   <trkpt lat="30.8447" lon="34.758296"><ele>470</ele><name>TP01667</name><time>2020-03-15T20:42:03Z</time></trkpt>
   <trkpt lat="30.844696" lon="34.758035"><ele>469.2</ele><name>TP01668</name><time>2020-03-15T20:42:08Z</time></trkpt>
   <trkpt lat="30.844684" lon="34.757988"><ele>469.4</ele><name>TP01669</name><time>2020-03-15T20:42:09Z</time></trkpt>
   <trkpt lat="30.844711" lon="34.757498"><ele>470.4</ele><name>TP01670</name><time>2020-03-15T20:42:21Z</time></trkpt>
   <trkpt lat="30.844547" lon="34.757113"><ele>469.2</ele><name>TP01671</name><time>2020-03-15T20:42:32Z</time></trkpt>
   <trkpt lat="30.844515" lon="34.756993"><ele>467.6</ele><name>TP01672</name><time>2020-03-15T20:42:34Z</time></trkpt>
   <trkpt lat="30.844475" lon="34.756844"><ele>466.2</ele><name>TP01673</name><time>2020-03-15T20:42:36Z</time></trkpt>
   <trkpt lat="30.844424" lon="34.756624"><ele>465.4</ele><name>TP01674</name><time>2020-03-15T20:42:39Z</time></trkpt>
   <trkpt lat="30.844409" lon="34.756562"><ele>464.8</ele><name>TP01675</name><time>2020-03-15T20:42:40Z</time></trkpt>
   <trkpt lat="30.844388" lon="34.756506"><ele>464.6</ele><name>TP01676</name><time>2020-03-15T20:42:41Z</time></trkpt>
   <trkpt lat="30.844244" lon="34.756359"><ele>463.8</ele><name>TP01677</name><time>2020-03-15T20:42:45Z</time></trkpt>
   <trkpt lat="30.84398" lon="34.756186"><ele>463.6</ele><name>TP01678</name><time>2020-03-15T20:42:51Z</time></trkpt>
   <trkpt lat="30.843855" lon="34.756085"><ele>463.4</ele><name>TP01679</name><time>2020-03-15T20:42:54Z</time></trkpt>
   <trkpt lat="30.843725" lon="34.756004"><ele>462.8</ele><name>TP01680</name><time>2020-03-15T20:42:57Z</time></trkpt>
   <trkpt lat="30.843598" lon="34.755783"><ele>462.2</ele><name>TP01681</name><time>2020-03-15T20:43:02Z</time></trkpt>
   <trkpt lat="30.843506" lon="34.755664"><ele>461.8</ele><name>TP01682</name><time>2020-03-15T20:43:05Z</time></trkpt>
   <trkpt lat="30.843473" lon="34.755626"><ele>461.6</ele><name>TP01683</name><time>2020-03-15T20:43:06Z</time></trkpt>
   <trkpt lat="30.843359" lon="34.755633"><ele>461.6</ele><name>TP01684</name><time>2020-03-15T20:43:10Z</time></trkpt>
   <trkpt lat="30.843334" lon="34.755629"><ele>461.8</ele><name>TP01685</name><time>2020-03-15T20:43:11Z</time></trkpt>
   <trkpt lat="30.843265" lon="34.755546"><ele>462.6</ele><name>TP01686</name><time>2020-03-15T20:43:14Z</time></trkpt>
   <trkpt lat="30.843243" lon="34.755513"><ele>463</ele><name>TP01687</name><time>2020-03-15T20:43:15Z</time></trkpt>
   <trkpt lat="30.843116" lon="34.755325"><ele>464.2</ele><name>TP01688</name><time>2020-03-15T20:43:21Z</time></trkpt>
   <trkpt lat="30.842943" lon="34.755152"><ele>465.2</ele><name>TP01689</name><time>2020-03-15T20:43:29Z</time></trkpt>
   <trkpt lat="30.842746" lon="34.755048"><ele>466.2</ele><name>TP01690</name><time>2020-03-15T20:43:37Z</time></trkpt>
   <trkpt lat="30.842733" lon="34.755042"><ele>466.4</ele><name>TP01691</name><time>2020-03-15T20:43:38Z</time></trkpt>
   <trkpt lat="30.842643" lon="34.754944"><ele>467.2</ele><name>TP01692</name><time>2020-03-15T20:44:08Z</time></trkpt>
   <trkpt lat="30.842644" lon="34.754943"><ele>467.2</ele><name>TP01693</name><time>2020-03-15T20:44:12Z</time></trkpt>
   <trkpt lat="30.842645" lon="34.754925"><ele>467</ele><name>TP01694</name><time>2020-03-15T20:44:18Z</time></trkpt>
   <trkpt lat="30.8427" lon="34.754832"><ele>467</ele><name>TP01695</name><time>2020-03-15T20:44:23Z</time></trkpt>
   <trkpt lat="30.842752" lon="34.754696"><ele>467</ele><name>TP01696</name><time>2020-03-15T20:44:27Z</time></trkpt>
   <trkpt lat="30.842795" lon="34.754552"><ele>467</ele><name>TP01697</name><time>2020-03-15T20:44:30Z</time></trkpt>
   <trkpt lat="30.842821" lon="34.75439"><ele>466.8</ele><name>TP01698</name><time>2020-03-15T20:44:33Z</time></trkpt>
   <trkpt lat="30.842772" lon="34.754135"><ele>467</ele><name>TP01699</name><time>2020-03-15T20:44:38Z</time></trkpt>
   <trkpt lat="30.84273" lon="34.753963"><ele>466.6</ele><name>TP01700</name><time>2020-03-15T20:44:41Z</time></trkpt>
   <trkpt lat="30.842591" lon="34.753687"><ele>465.4</ele><name>TP01701</name><time>2020-03-15T20:44:47Z</time></trkpt>
   <trkpt lat="30.842585" lon="34.753553"><ele>465.8</ele><name>TP01702</name><time>2020-03-15T20:44:53Z</time></trkpt>
   <trkpt lat="30.842634" lon="34.75348"><ele>466</ele><name>TP01703</name><time>2020-03-15T20:44:56Z</time></trkpt>
   <trkpt lat="30.842731" lon="34.753379"><ele>466</ele><name>TP01704</name><time>2020-03-15T20:45:00Z</time></trkpt>
   <trkpt lat="30.84274" lon="34.753362"><ele>466.2</ele><name>TP01705</name><time>2020-03-15T20:45:01Z</time></trkpt>
   <trkpt lat="30.842737" lon="34.7533"><ele>466.6</ele><name>TP01706</name><time>2020-03-15T20:45:03Z</time></trkpt>
   <trkpt lat="30.842717" lon="34.753189"><ele>467.2</ele><name>TP01707</name><time>2020-03-15T20:45:06Z</time></trkpt>
   <trkpt lat="30.842693" lon="34.753107"><ele>467.6</ele><name>TP01708</name><time>2020-03-15T20:45:08Z</time></trkpt>
   <trkpt lat="30.842653" lon="34.752976"><ele>468.4</ele><name>TP01709</name><time>2020-03-15T20:45:11Z</time></trkpt>
   <trkpt lat="30.842666" lon="34.752891"><ele>469</ele><name>TP01710</name><time>2020-03-15T20:45:13Z</time></trkpt>
   <trkpt lat="30.842709" lon="34.752767"><ele>470</ele><name>TP01711</name><time>2020-03-15T20:45:16Z</time></trkpt>
   <trkpt lat="30.842827" lon="34.752673"><ele>470.6</ele><name>TP01712</name><time>2020-03-15T20:45:20Z</time></trkpt>
   <trkpt lat="30.842872" lon="34.752625"><ele>471.4</ele><name>TP01713</name><time>2020-03-15T20:45:22Z</time></trkpt>
   <trkpt lat="30.842876" lon="34.752509"><ele>472.8</ele><name>TP01714</name><time>2020-03-15T20:45:25Z</time></trkpt>
   <trkpt lat="30.842874" lon="34.752475"><ele>473</ele><name>TP01715</name><time>2020-03-15T20:45:26Z</time></trkpt>
   <trkpt lat="30.842865" lon="34.752341"><ele>474</ele><name>TP01716</name><time>2020-03-15T20:45:30Z</time></trkpt>
   <trkpt lat="30.842989" lon="34.75206"><ele>475</ele><name>TP01717</name><time>2020-03-15T20:45:39Z</time></trkpt>
   <trkpt lat="30.842856" lon="34.75181"><ele>476.2</ele><name>TP01718</name><time>2020-03-15T20:45:47Z</time></trkpt>
   <trkpt lat="30.842732" lon="34.751474"><ele>477</ele><name>TP01719</name><time>2020-03-15T20:45:58Z</time></trkpt>
   <trkpt lat="30.842725" lon="34.751442"><ele>477.4</ele><name>TP01720</name><time>2020-03-15T20:45:59Z</time></trkpt>
   <trkpt lat="30.842687" lon="34.751277"><ele>478</ele><name>TP01721</name><time>2020-03-15T20:46:06Z</time></trkpt>
   <trkpt lat="30.842688" lon="34.751267"><ele>478.2</ele><name>TP01722</name><time>2020-03-15T20:46:14Z</time></trkpt>
   <trkpt lat="30.842687" lon="34.751267"><ele>478.4</ele><name>TP01723</name><time>2020-03-15T20:46:19Z</time></trkpt>
   <trkpt lat="30.842688" lon="34.751267"><ele>478.2</ele><name>TP01724</name><time>2020-03-15T20:46:22Z</time></trkpt>
   <trkpt lat="30.842688" lon="34.751267"><ele>478.2</ele><name>TP01725</name><time>2020-03-15T20:46:24Z</time></trkpt>
   <trkpt lat="30.842688" lon="34.751267"><ele>478.2</ele><name>TP01726</name><time>2020-03-15T20:46:28Z</time></trkpt>
   <trkpt lat="30.842688" lon="34.751267"><ele>478.2</ele><name>TP01727</name><time>2020-03-15T20:46:31Z</time></trkpt>
   <trkpt lat="30.842687" lon="34.751267"><ele>478.2</ele><name>TP01728</name><time>2020-03-15T20:46:32Z</time></trkpt>
   <trkpt lat="30.842641" lon="34.751227"><ele>478.8</ele><name>TP01729</name><time>2020-03-15T20:49:02Z</time></trkpt>
   <trkpt lat="30.842647" lon="34.751221"><ele>478.8</ele><name>TP01730</name><time>2020-03-15T20:49:03Z</time></trkpt>
   <trkpt lat="30.842677" lon="34.751201"><ele>479</ele><name>TP01731</name><time>2020-03-15T20:49:08Z</time></trkpt>
   <trkpt lat="30.842716" lon="34.751132"><ele>479</ele><name>TP01732</name><time>2020-03-15T20:49:12Z</time></trkpt>
   <trkpt lat="30.842657" lon="34.750975"><ele>478.8</ele><name>TP01733</name><time>2020-03-15T20:49:17Z</time></trkpt>
   <trkpt lat="30.842397" lon="34.750734"><ele>478.6</ele><name>TP01734</name><time>2020-03-15T20:49:26Z</time></trkpt>
   <trkpt lat="30.842177" lon="34.750683"><ele>477.6</ele><name>TP01735</name><time>2020-03-15T20:49:33Z</time></trkpt>
   <trkpt lat="30.842071" lon="34.750659"><ele>477.2</ele><name>TP01736</name><time>2020-03-15T20:49:36Z</time></trkpt>
   <trkpt lat="30.841919" lon="34.750693"><ele>477.2</ele><name>TP01737</name><time>2020-03-15T20:49:43Z</time></trkpt>
   <trkpt lat="30.841919" lon="34.750735"><ele>476.8</ele><name>TP01738</name><time>2020-03-15T20:49:57Z</time></trkpt>
   <trkpt lat="30.841919" lon="34.750735"><ele>477.2</ele><name>TP01739</name><time>2020-03-15T20:51:57Z</time></trkpt>
   <trkpt lat="30.841919" lon="34.750735"><ele>477.2</ele><name>TP01740</name><time>2020-03-15T20:51:58Z</time></trkpt>
   <trkpt lat="30.841885" lon="34.750719"><ele>476.8</ele><name>TP01741</name><time>2020-03-15T20:52:08Z</time></trkpt>
   <trkpt lat="30.841769" lon="34.750771"><ele>476.2</ele><name>TP01742</name><time>2020-03-15T20:52:13Z</time></trkpt>
   <trkpt lat="30.841729" lon="34.750788"><ele>476</ele><name>TP01743</name><time>2020-03-15T20:52:15Z</time></trkpt>
   <trkpt lat="30.841678" lon="34.750746"><ele>476.4</ele><name>TP01744</name><time>2020-03-15T20:52:18Z</time></trkpt>
   <trkpt lat="30.841662" lon="34.750726"><ele>476.6</ele><name>TP01745</name><time>2020-03-15T20:52:19Z</time></trkpt>
   <trkpt lat="30.841627" lon="34.75069"><ele>477.2</ele><name>TP01746</name><time>2020-03-15T20:52:21Z</time></trkpt>
   <trkpt lat="30.841588" lon="34.750654"><ele>477.6</ele><name>TP01747</name><time>2020-03-15T20:52:23Z</time></trkpt>
   <trkpt lat="30.841546" lon="34.750633"><ele>478.2</ele><name>TP01748</name><time>2020-03-15T20:52:25Z</time></trkpt>
   <trkpt lat="30.841512" lon="34.750657"><ele>479.4</ele><name>TP01749</name><time>2020-03-15T20:52:27Z</time></trkpt>
   <trkpt lat="30.841479" lon="34.750766"><ele>480.4</ele><name>TP01750</name><time>2020-03-15T20:52:31Z</time></trkpt>
   <trkpt lat="30.841424" lon="34.750845"><ele>480.4</ele><name>TP01751</name><time>2020-03-15T20:52:34Z</time></trkpt>
   <trkpt lat="30.84133" lon="34.750907"><ele>481</ele><name>TP01752</name><time>2020-03-15T20:52:38Z</time></trkpt>
   <trkpt lat="30.841278" lon="34.750939"><ele>481.6</ele><name>TP01753</name><time>2020-03-15T20:52:40Z</time></trkpt>
   <trkpt lat="30.841195" lon="34.750987"><ele>482.2</ele><name>TP01754</name><time>2020-03-15T20:52:43Z</time></trkpt>
   <trkpt lat="30.84114" lon="34.751009"><ele>482.8</ele><name>TP01755</name><time>2020-03-15T20:52:45Z</time></trkpt>
   <trkpt lat="30.841068" lon="34.751045"><ele>483.8</ele><name>TP01756</name><time>2020-03-15T20:52:48Z</time></trkpt>
   <trkpt lat="30.840999" lon="34.751077"><ele>484.4</ele><name>TP01757</name><time>2020-03-15T20:52:51Z</time></trkpt>
   <trkpt lat="30.84095" lon="34.751099"><ele>484.8</ele><name>TP01758</name><time>2020-03-15T20:52:53Z</time></trkpt>
   <trkpt lat="30.840881" lon="34.751135"><ele>486</ele><name>TP01759</name><time>2020-03-15T20:52:56Z</time></trkpt>
   <trkpt lat="30.8408" lon="34.751182"><ele>487.4</ele><name>TP01760</name><time>2020-03-15T20:53:00Z</time></trkpt>
   <trkpt lat="30.840735" lon="34.751233"><ele>488.8</ele><name>TP01761</name><time>2020-03-15T20:53:04Z</time></trkpt>
   <trkpt lat="30.840676" lon="34.751293"><ele>490</ele><name>TP01762</name><time>2020-03-15T20:53:08Z</time></trkpt>
   <trkpt lat="30.840626" lon="34.75136"><ele>491.2</ele><name>TP01763</name><time>2020-03-15T20:53:12Z</time></trkpt>
   <trkpt lat="30.840603" lon="34.751412"><ele>492.4</ele><name>TP01764</name><time>2020-03-15T20:53:15Z</time></trkpt>
   <trkpt lat="30.840577" lon="34.751475"><ele>493.6</ele><name>TP01765</name><time>2020-03-15T20:53:19Z</time></trkpt>
   <trkpt lat="30.840307" lon="34.75153"><ele>494.4</ele><name>TP01766</name><time>2020-03-15T20:53:45Z</time></trkpt>
   <trkpt lat="30.840106" lon="34.751513"><ele>494.2</ele><name>TP01767</name><time>2020-03-15T20:53:56Z</time></trkpt>
   <trkpt lat="30.839983" lon="34.751487"><ele>494.2</ele><name>TP01768</name><time>2020-03-15T20:54:01Z</time></trkpt>
   <trkpt lat="30.839908" lon="34.751451"><ele>494.4</ele><name>TP01769</name><time>2020-03-15T20:54:04Z</time></trkpt>
   <trkpt lat="30.839848" lon="34.751417"><ele>494.2</ele><name>TP01770</name><time>2020-03-15T20:54:07Z</time></trkpt>
   <trkpt lat="30.839826" lon="34.751408"><ele>494</ele><name>TP01771</name><time>2020-03-15T20:54:12Z</time></trkpt>
   <trkpt lat="30.839826" lon="34.751409"><ele>494</ele><name>TP01772</name><time>2020-03-15T20:54:17Z</time></trkpt>
   <trkpt lat="30.839826" lon="34.751409"><ele>494</ele><name>TP01773</name><time>2020-03-15T20:54:19Z</time></trkpt>
   <trkpt lat="30.839827" lon="34.751409"><ele>494.2</ele><name>TP01774</name><time>2020-03-15T20:54:22Z</time></trkpt>
   <trkpt lat="30.839827" lon="34.751409"><ele>494</ele><name>TP01775</name><time>2020-03-15T20:54:28Z</time></trkpt>
   <trkpt lat="30.839827" lon="34.751409"><ele>494.2</ele><name>TP01776</name><time>2020-03-15T20:54:31Z</time></trkpt>
   <trkpt lat="30.839826" lon="34.751409"><ele>494.2</ele><name>TP01777</name><time>2020-03-15T20:54:39Z</time></trkpt>
   <trkpt lat="30.839827" lon="34.751409"><ele>494.2</ele><name>TP01778</name><time>2020-03-15T20:54:44Z</time></trkpt>
   <trkpt lat="30.839827" lon="34.751409"><ele>494.2</ele><name>TP01779</name><time>2020-03-15T20:54:53Z</time></trkpt>
   <trkpt lat="30.839827" lon="34.751409"><ele>494.2</ele><name>TP01780</name><time>2020-03-15T20:54:55Z</time></trkpt>
   <trkpt lat="30.839827" lon="34.751409"><ele>494.2</ele><name>TP01781</name><time>2020-03-15T20:54:57Z</time></trkpt>
   <trkpt lat="30.839826" lon="34.751409"><ele>494.4</ele><name>TP01782</name><time>2020-03-15T20:55:07Z</time></trkpt>
   <trkpt lat="30.839821" lon="34.751421"><ele>494.8</ele><name>TP01783</name><time>2020-03-15T20:55:10Z</time></trkpt>
   <trkpt lat="30.839811" lon="34.751427"><ele>494.8</ele><name>TP01784</name><time>2020-03-15T20:55:12Z</time></trkpt>
   <trkpt lat="30.839809" lon="34.751427"><ele>494.4</ele><name>TP01785</name><time>2020-03-15T20:55:18Z</time></trkpt>
   <trkpt lat="30.839809" lon="34.751428"><ele>494.4</ele><name>TP01786</name><time>2020-03-15T20:55:21Z</time></trkpt>
   <trkpt lat="30.839809" lon="34.751428"><ele>495</ele><name>TP01787</name><time>2020-03-15T20:55:46Z</time></trkpt>
   <trkpt lat="30.839809" lon="34.751428"><ele>495</ele><name>TP01788</name><time>2020-03-15T20:55:51Z</time></trkpt>
   <trkpt lat="30.839809" lon="34.751428"><ele>495.2</ele><name>TP01789</name><time>2020-03-15T20:56:00Z</time></trkpt>
   <trkpt lat="30.839809" lon="34.751428"><ele>495.6</ele><name>TP01790</name><time>2020-03-15T20:56:20Z</time></trkpt>
   <trkpt lat="30.839809" lon="34.751428"><ele>495.8</ele><name>TP01791</name><time>2020-03-15T20:56:36Z</time></trkpt>
   <trkpt lat="30.839809" lon="34.751429"><ele>495.6</ele><name>TP01792</name><time>2020-03-15T20:56:40Z</time></trkpt>
   <trkpt lat="30.839803" lon="34.751403"><ele>494.6</ele><name>TP01793</name><time>2020-03-15T20:56:57Z</time></trkpt>
   <trkpt lat="30.8398" lon="34.751393"><ele>494.6</ele><name>TP01794</name><time>2020-03-15T20:57:01Z</time></trkpt>
   <trkpt lat="30.839781" lon="34.751377"><ele>494.8</ele><name>TP01795</name><time>2020-03-15T20:57:04Z</time></trkpt>
   <trkpt lat="30.83948" lon="34.751281"><ele>495.2</ele><name>TP01796</name><time>2020-03-15T20:57:20Z</time></trkpt>
   <trkpt lat="30.839348" lon="34.751215"><ele>494.8</ele><name>TP01797</name><time>2020-03-15T20:57:24Z</time></trkpt>
   <trkpt lat="30.83896" lon="34.750764"><ele>494.6</ele><name>TP01798</name><time>2020-03-15T20:57:37Z</time></trkpt>
   <trkpt lat="30.83856" lon="34.750275"><ele>495.4</ele><name>TP01799</name><time>2020-03-15T20:57:50Z</time></trkpt>
   <trkpt lat="30.838246" lon="34.749892"><ele>495.4</ele><name>TP01800</name><time>2020-03-15T20:58:00Z</time></trkpt>
   <trkpt lat="30.837943" lon="34.74954"><ele>496</ele><name>TP01801</name><time>2020-03-15T20:58:09Z</time></trkpt>
   <trkpt lat="30.837538" lon="34.749075"><ele>496.4</ele><name>TP01802</name><time>2020-03-15T20:58:21Z</time></trkpt>
   <trkpt lat="30.837445" lon="34.748934"><ele>496.2</ele><name>TP01803</name><time>2020-03-15T20:58:24Z</time></trkpt>
   <trkpt lat="30.837304" lon="34.748674"><ele>496.6</ele><name>TP01804</name><time>2020-03-15T20:58:29Z</time></trkpt>
   <trkpt lat="30.837217" lon="34.748465"><ele>497</ele><name>TP01805</name><time>2020-03-15T20:58:33Z</time></trkpt>
   <trkpt lat="30.837092" lon="34.748204"><ele>497.8</ele><name>TP01806</name><time>2020-03-15T20:58:38Z</time></trkpt>
   <trkpt lat="30.837015" lon="34.748038"><ele>498</ele><name>TP01807</name><time>2020-03-15T20:58:41Z</time></trkpt>
   <trkpt lat="30.836874" lon="34.747781"><ele>498.4</ele><name>TP01808</name><time>2020-03-15T20:58:46Z</time></trkpt>
   <trkpt lat="30.836744" lon="34.747578"><ele>498.8</ele><name>TP01809</name><time>2020-03-15T20:58:50Z</time></trkpt>
   <trkpt lat="30.836545" lon="34.747326"><ele>499</ele><name>TP01810</name><time>2020-03-15T20:58:55Z</time></trkpt>
   <trkpt lat="30.836506" lon="34.747274"><ele>499.2</ele><name>TP01811</name><time>2020-03-15T20:58:56Z</time></trkpt>
   <trkpt lat="30.83628" lon="34.746978"><ele>499.8</ele><name>TP01812</name><time>2020-03-15T20:59:02Z</time></trkpt>
   <trkpt lat="30.836214" lon="34.746883"><ele>500.2</ele><name>TP01813</name><time>2020-03-15T20:59:04Z</time></trkpt>
   <trkpt lat="30.836075" lon="34.746636"><ele>500.8</ele><name>TP01814</name><time>2020-03-15T20:59:09Z</time></trkpt>
   <trkpt lat="30.83577" lon="34.746081"><ele>500.8</ele><name>TP01815</name><time>2020-03-15T20:59:20Z</time></trkpt>
   <trkpt lat="30.835628" lon="34.745884"><ele>500</ele><name>TP01816</name><time>2020-03-15T20:59:24Z</time></trkpt>
   <trkpt lat="30.835557" lon="34.745734"><ele>499.2</ele><name>TP01817</name><time>2020-03-15T20:59:27Z</time></trkpt>
   <trkpt lat="30.835517" lon="34.745703"><ele>499.2</ele><name>TP01818</name><time>2020-03-15T20:59:28Z</time></trkpt>
   <trkpt lat="30.835385" lon="34.74567"><ele>499</ele><name>TP01819</name><time>2020-03-15T20:59:31Z</time></trkpt>
   <trkpt lat="30.835344" lon="34.74566"><ele>499</ele><name>TP01820</name><time>2020-03-15T20:59:32Z</time></trkpt>
   <trkpt lat="30.835136" lon="34.745644"><ele>499.4</ele><name>TP01821</name><time>2020-03-15T20:59:37Z</time></trkpt>
   <trkpt lat="30.834839" lon="34.745765"><ele>500.2</ele><name>TP01822</name><time>2020-03-15T20:59:45Z</time></trkpt>
   <trkpt lat="30.834685" lon="34.74585"><ele>500.4</ele><name>TP01823</name><time>2020-03-15T20:59:50Z</time></trkpt>
   <trkpt lat="30.834425" lon="34.745818"><ele>501.4</ele><name>TP01824</name><time>2020-03-15T20:59:59Z</time></trkpt>
   <trkpt lat="30.834165" lon="34.74601"><ele>500.2</ele><name>TP01825</name><time>2020-03-15T21:00:14Z</time></trkpt>
   <trkpt lat="30.834132" lon="34.746082"><ele>498.6</ele><name>TP01826</name><time>2020-03-15T21:00:18Z</time></trkpt>
   <trkpt lat="30.834093" lon="34.746133"><ele>497</ele><name>TP01827</name><time>2020-03-15T21:00:20Z</time></trkpt>
   <trkpt lat="30.834043" lon="34.746173"><ele>495.4</ele><name>TP01828</name><time>2020-03-15T21:00:22Z</time></trkpt>
   <trkpt lat="30.834" lon="34.746218"><ele>494.4</ele><name>TP01829</name><time>2020-03-15T21:00:24Z</time></trkpt>
   <trkpt lat="30.833971" lon="34.746269"><ele>493.2</ele><name>TP01830</name><time>2020-03-15T21:00:26Z</time></trkpt>
   <trkpt lat="30.833953" lon="34.746366"><ele>491.4</ele><name>TP01831</name><time>2020-03-15T21:00:29Z</time></trkpt>
   <trkpt lat="30.833956" lon="34.746434"><ele>490.4</ele><name>TP01832</name><time>2020-03-15T21:00:31Z</time></trkpt>
   <trkpt lat="30.833954" lon="34.746495"><ele>489</ele><name>TP01833</name><time>2020-03-15T21:00:33Z</time></trkpt>
   <trkpt lat="30.833943" lon="34.746532"><ele>488</ele><name>TP01834</name><time>2020-03-15T21:00:35Z</time></trkpt>
   <trkpt lat="30.833852" lon="34.746556"><ele>486.8</ele><name>TP01835</name><time>2020-03-15T21:00:39Z</time></trkpt>
   <trkpt lat="30.833805" lon="34.746522"><ele>486.6</ele><name>TP01836</name><time>2020-03-15T21:00:41Z</time></trkpt>
   <trkpt lat="30.833777" lon="34.746486"><ele>486.8</ele><name>TP01837</name><time>2020-03-15T21:00:43Z</time></trkpt>
   <trkpt lat="30.83373" lon="34.74644"><ele>487.4</ele><name>TP01838</name><time>2020-03-15T21:00:46Z</time></trkpt>
   <trkpt lat="30.833709" lon="34.746435"><ele>488</ele><name>TP01839</name><time>2020-03-15T21:00:47Z</time></trkpt>
   <trkpt lat="30.833676" lon="34.746427"><ele>488.8</ele><name>TP01840</name><time>2020-03-15T21:00:49Z</time></trkpt>
   <trkpt lat="30.833659" lon="34.746425"><ele>489.2</ele><name>TP01841</name><time>2020-03-15T21:00:50Z</time></trkpt>
   <trkpt lat="30.833631" lon="34.746428"><ele>490.4</ele><name>TP01842</name><time>2020-03-15T21:00:52Z</time></trkpt>
   <trkpt lat="30.833602" lon="34.746433"><ele>491</ele><name>TP01843</name><time>2020-03-15T21:00:54Z</time></trkpt>
   <trkpt lat="30.833576" lon="34.746443"><ele>491.6</ele><name>TP01844</name><time>2020-03-15T21:00:56Z</time></trkpt>
   <trkpt lat="30.833551" lon="34.746445"><ele>492</ele><name>TP01845</name><time>2020-03-15T21:00:59Z</time></trkpt>
   <trkpt lat="30.83354" lon="34.746443"><ele>491.8</ele><name>TP01846</name><time>2020-03-15T21:01:13Z</time></trkpt>
   <trkpt lat="30.833571" lon="34.746449"><ele>491.8</ele><name>TP01847</name><time>2020-03-15T21:01:26Z</time></trkpt>
   <trkpt lat="30.833588" lon="34.746439"><ele>491.8</ele><name>TP01848</name><time>2020-03-15T21:01:28Z</time></trkpt>
   <trkpt lat="30.833615" lon="34.746424"><ele>491.4</ele><name>TP01849</name><time>2020-03-15T21:01:30Z</time></trkpt>
   <trkpt lat="30.833646" lon="34.746404"><ele>490.8</ele><name>TP01850</name><time>2020-03-15T21:01:32Z</time></trkpt>
   <trkpt lat="30.833662" lon="34.74639"><ele>490.6</ele><name>TP01851</name><time>2020-03-15T21:01:33Z</time></trkpt>
   <trkpt lat="30.83369" lon="34.746365"><ele>489.8</ele><name>TP01852</name><time>2020-03-15T21:01:35Z</time></trkpt>
   <trkpt lat="30.83371" lon="34.746332"><ele>489.2</ele><name>TP01853</name><time>2020-03-15T21:01:37Z</time></trkpt>
   <trkpt lat="30.833721" lon="34.746298"><ele>488.8</ele><name>TP01854</name><time>2020-03-15T21:01:39Z</time></trkpt>
   <trkpt lat="30.83372" lon="34.746286"><ele>488.8</ele><name>TP01855</name><time>2020-03-15T21:01:40Z</time></trkpt>
   <trkpt lat="30.833691" lon="34.746299"><ele>491</ele><name>TP01856</name><time>2020-03-15T21:01:49Z</time></trkpt>
   <trkpt lat="30.833682" lon="34.746326"><ele>492</ele><name>TP01857</name><time>2020-03-15T21:01:52Z</time></trkpt>
   <trkpt lat="30.833652" lon="34.74638"><ele>492</ele><name>TP01858</name><time>2020-03-15T21:01:58Z</time></trkpt>
   <trkpt lat="30.833641" lon="34.746389"><ele>492.2</ele><name>TP01859</name><time>2020-03-15T21:02:00Z</time></trkpt>
   <trkpt lat="30.833612" lon="34.746404"><ele>492.6</ele><name>TP01860</name><time>2020-03-15T21:02:04Z</time></trkpt>
   <trkpt lat="30.833606" lon="34.746415"><ele>492</ele><name>TP01861</name><time>2020-03-15T21:02:18Z</time></trkpt>
   <trkpt lat="30.833605" lon="34.746415"><ele>492</ele><name>TP01862</name><time>2020-03-15T21:02:28Z</time></trkpt>
   <trkpt lat="30.833509" lon="34.746446"><ele>492.2</ele><name>TP01863</name><time>2020-03-15T21:02:40Z</time></trkpt>
   <trkpt lat="30.833494" lon="34.746449"><ele>492</ele><name>TP01864</name><time>2020-03-15T21:02:42Z</time></trkpt>
   <trkpt lat="30.833473" lon="34.746456"><ele>492</ele><name>TP01865</name><time>2020-03-15T21:02:44Z</time></trkpt>
   <trkpt lat="30.833412" lon="34.746505"><ele>492.8</ele><name>TP01866</name><time>2020-03-15T21:02:55Z</time></trkpt>
   <trkpt lat="30.833371" lon="34.746523"><ele>493.6</ele><name>TP01867</name><time>2020-03-15T21:03:01Z</time></trkpt>
   <trkpt lat="30.833335" lon="34.746539"><ele>494.2</ele><name>TP01868</name><time>2020-03-15T21:03:05Z</time></trkpt>
   <trkpt lat="30.833327" lon="34.746545"><ele>494.6</ele><name>TP01869</name><time>2020-03-15T21:03:11Z</time></trkpt>
   <trkpt lat="30.833304" lon="34.746577"><ele>495.4</ele><name>TP01870</name><time>2020-03-15T21:03:14Z</time></trkpt>
   <trkpt lat="30.833292" lon="34.746586"><ele>495.8</ele><name>TP01871</name><time>2020-03-15T21:03:15Z</time></trkpt>
   <trkpt lat="30.833265" lon="34.746604"><ele>496.2</ele><name>TP01872</name><time>2020-03-15T21:03:17Z</time></trkpt>
   <trkpt lat="30.833251" lon="34.746615"><ele>496.6</ele><name>TP01873</name><time>2020-03-15T21:03:18Z</time></trkpt>
   <trkpt lat="30.833236" lon="34.746627"><ele>496.8</ele><name>TP01874</name><time>2020-03-15T21:03:19Z</time></trkpt>
   <trkpt lat="30.833196" lon="34.746661"><ele>497.6</ele><name>TP01875</name><time>2020-03-15T21:03:22Z</time></trkpt>
   <trkpt lat="30.833187" lon="34.746674"><ele>498.2</ele><name>TP01876</name><time>2020-03-15T21:03:23Z</time></trkpt>
   <trkpt lat="30.833157" lon="34.74672"><ele>499</ele><name>TP01877</name><time>2020-03-15T21:03:26Z</time></trkpt>
   <trkpt lat="30.833146" lon="34.746734"><ele>499.6</ele><name>TP01878</name><time>2020-03-15T21:03:27Z</time></trkpt>
   <trkpt lat="30.833126" lon="34.746763"><ele>500.2</ele><name>TP01879</name><time>2020-03-15T21:03:29Z</time></trkpt>
   <trkpt lat="30.833117" lon="34.746779"><ele>500.6</ele><name>TP01880</name><time>2020-03-15T21:03:30Z</time></trkpt>
   <trkpt lat="30.833085" lon="34.74682"><ele>501.6</ele><name>TP01881</name><time>2020-03-15T21:03:33Z</time></trkpt>
   <trkpt lat="30.833043" lon="34.746866"><ele>502.8</ele><name>TP01882</name><time>2020-03-15T21:03:37Z</time></trkpt>
   <trkpt lat="30.83299" lon="34.746922"><ele>504</ele><name>TP01883</name><time>2020-03-15T21:03:42Z</time></trkpt>
   <trkpt lat="30.832947" lon="34.746967"><ele>505</ele><name>TP01884</name><time>2020-03-15T21:03:46Z</time></trkpt>
   <trkpt lat="30.832894" lon="34.747015"><ele>506.4</ele><name>TP01885</name><time>2020-03-15T21:03:51Z</time></trkpt>
   <trkpt lat="30.832826" lon="34.74707"><ele>507.4</ele><name>TP01886</name><time>2020-03-15T21:03:57Z</time></trkpt>
   <trkpt lat="30.832772" lon="34.747114"><ele>508.6</ele><name>TP01887</name><time>2020-03-15T21:04:02Z</time></trkpt>
   <trkpt lat="30.832704" lon="34.747175"><ele>509.8</ele><name>TP01888</name><time>2020-03-15T21:04:08Z</time></trkpt>
   <trkpt lat="30.832651" lon="34.74725"><ele>510.8</ele><name>TP01889</name><time>2020-03-15T21:04:14Z</time></trkpt>
   <trkpt lat="30.832525" lon="34.747396"><ele>511.8</ele><name>TP01890</name><time>2020-03-15T21:04:25Z</time></trkpt>
   <trkpt lat="30.832401" lon="34.747495"><ele>513</ele><name>TP01891</name><time>2020-03-15T21:04:34Z</time></trkpt>
   <trkpt lat="30.832312" lon="34.747525"><ele>514</ele><name>TP01892</name><time>2020-03-15T21:04:40Z</time></trkpt>
   <trkpt lat="30.832248" lon="34.747549"><ele>515</ele><name>TP01893</name><time>2020-03-15T21:04:45Z</time></trkpt>
   <trkpt lat="30.832156" lon="34.747582"><ele>516.4</ele><name>TP01894</name><time>2020-03-15T21:04:51Z</time></trkpt>
   <trkpt lat="30.832095" lon="34.747612"><ele>517.4</ele><name>TP01895</name><time>2020-03-15T21:04:55Z</time></trkpt>
   <trkpt lat="30.832057" lon="34.747641"><ele>518.6</ele><name>TP01896</name><time>2020-03-15T21:04:58Z</time></trkpt>
   <trkpt lat="30.832042" lon="34.747664"><ele>519.2</ele><name>TP01897</name><time>2020-03-15T21:05:00Z</time></trkpt>
   <trkpt lat="30.832042" lon="34.747768"><ele>519.4</ele><name>TP01898</name><time>2020-03-15T21:05:09Z</time></trkpt>
   <trkpt lat="30.832039" lon="34.747779"><ele>519.8</ele><name>TP01899</name><time>2020-03-15T21:05:16Z</time></trkpt>
   <trkpt lat="30.83204" lon="34.747777"><ele>520</ele><name>TP01900</name><time>2020-03-15T21:05:22Z</time></trkpt>
   <trkpt lat="30.83204" lon="34.747778"><ele>520</ele><name>TP01901</name><time>2020-03-15T21:05:30Z</time></trkpt>
   <trkpt lat="30.83204" lon="34.747778"><ele>519.8</ele><name>TP01902</name><time>2020-03-15T21:05:34Z</time></trkpt>
   <trkpt lat="30.832037" lon="34.747786"><ele>519.6</ele><name>TP01903</name><time>2020-03-15T21:05:35Z</time></trkpt>
   <trkpt lat="30.832034" lon="34.74786"><ele>519.4</ele><name>TP01904</name><time>2020-03-15T21:05:39Z</time></trkpt>
   <trkpt lat="30.832033" lon="34.747886"><ele>519.4</ele><name>TP01905</name><time>2020-03-15T21:05:40Z</time></trkpt>
   <trkpt lat="30.832021" lon="34.74795"><ele>519.4</ele><name>TP01906</name><time>2020-03-15T21:05:42Z</time></trkpt>
   <trkpt lat="30.832013" lon="34.748018"><ele>519.4</ele><name>TP01907</name><time>2020-03-15T21:05:44Z</time></trkpt>
   <trkpt lat="30.832005" lon="34.748098"><ele>519.4</ele><name>TP01908</name><time>2020-03-15T21:05:46Z</time></trkpt>
   <trkpt lat="30.831987" lon="34.748374"><ele>519.4</ele><name>TP01909</name><time>2020-03-15T21:05:52Z</time></trkpt>
   <trkpt lat="30.832037" lon="34.749034"><ele>519.6</ele><name>TP01910</name><time>2020-03-15T21:06:04Z</time></trkpt>
   <trkpt lat="30.832039" lon="34.749703"><ele>520.4</ele><name>TP01911</name><time>2020-03-15T21:06:16Z</time></trkpt>
   <trkpt lat="30.832035" lon="34.749911"><ele>521</ele><name>TP01912</name><time>2020-03-15T21:06:20Z</time></trkpt>
   <trkpt lat="30.832032" lon="34.750114"><ele>521.8</ele><name>TP01913</name><time>2020-03-15T21:06:24Z</time></trkpt>
   <trkpt lat="30.832031" lon="34.750163"><ele>522</ele><name>TP01914</name><time>2020-03-15T21:06:25Z</time></trkpt>
   <trkpt lat="30.832027" lon="34.750257"><ele>522.4</ele><name>TP01915</name><time>2020-03-15T21:06:27Z</time></trkpt>
   <trkpt lat="30.832015" lon="34.750346"><ele>523</ele><name>TP01916</name><time>2020-03-15T21:06:29Z</time></trkpt>
   <trkpt lat="30.831981" lon="34.750535"><ele>523.8</ele><name>TP01917</name><time>2020-03-15T21:06:34Z</time></trkpt>
   <trkpt lat="30.831963" lon="34.750638"><ele>524</ele><name>TP01918</name><time>2020-03-15T21:06:37Z</time></trkpt>
   <trkpt lat="30.831889" lon="34.750808"><ele>525.2</ele><name>TP01919</name><time>2020-03-15T21:06:43Z</time></trkpt>
   <trkpt lat="30.831861" lon="34.7509"><ele>526.2</ele><name>TP01920</name><time>2020-03-15T21:06:47Z</time></trkpt>
   <trkpt lat="30.83191" lon="34.751188"><ele>526.8</ele><name>TP01921</name><time>2020-03-15T21:06:55Z</time></trkpt>
   <trkpt lat="30.832026" lon="34.751379"><ele>527.4</ele><name>TP01922</name><time>2020-03-15T21:07:01Z</time></trkpt>
   <trkpt lat="30.832108" lon="34.7515"><ele>528.4</ele><name>TP01923</name><time>2020-03-15T21:07:05Z</time></trkpt>
   <trkpt lat="30.832137" lon="34.751549"><ele>528.8</ele><name>TP01924</name><time>2020-03-15T21:07:07Z</time></trkpt>
   <trkpt lat="30.83231" lon="34.751705"><ele>529.4</ele><name>TP01925</name><time>2020-03-15T21:07:14Z</time></trkpt>
   <trkpt lat="30.832418" lon="34.751824"><ele>530.4</ele><name>TP01926</name><time>2020-03-15T21:07:19Z</time></trkpt>
   <trkpt lat="30.83242" lon="34.751855"><ele>531</ele><name>TP01927</name><time>2020-03-15T21:07:20Z</time></trkpt>
   <trkpt lat="30.83243" lon="34.751914"><ele>532.2</ele><name>TP01928</name><time>2020-03-15T21:07:22Z</time></trkpt>
   <trkpt lat="30.832509" lon="34.751963"><ele>533.4</ele><name>TP01929</name><time>2020-03-15T21:07:26Z</time></trkpt>
   <trkpt lat="30.832629" lon="34.752072"><ele>534.2</ele><name>TP01930</name><time>2020-03-15T21:07:32Z</time></trkpt>
   <trkpt lat="30.832643" lon="34.752094"><ele>534.4</ele><name>TP01931</name><time>2020-03-15T21:07:33Z</time></trkpt>
   <trkpt lat="30.832979" lon="34.752219"><ele>535.4</ele><name>TP01932</name><time>2020-03-15T21:07:46Z</time></trkpt>
   <trkpt lat="30.83317" lon="34.752376"><ele>536.8</ele><name>TP01933</name><time>2020-03-15T21:07:54Z</time></trkpt>
   <trkpt lat="30.833291" lon="34.752536"><ele>537.8</ele><name>TP01934</name><time>2020-03-15T21:08:00Z</time></trkpt>
   <trkpt lat="30.833408" lon="34.752912"><ele>538.6</ele><name>TP01935</name><time>2020-03-15T21:08:11Z</time></trkpt>
   <trkpt lat="30.83345" lon="34.753194"><ele>538.4</ele><name>TP01936</name><time>2020-03-15T21:08:20Z</time></trkpt>
   <trkpt lat="30.833478" lon="34.75327"><ele>538.8</ele><name>TP01937</name><time>2020-03-15T21:08:24Z</time></trkpt>
   <trkpt lat="30.833482" lon="34.753324"><ele>539</ele><name>TP01938</name><time>2020-03-15T21:08:27Z</time></trkpt>
   <trkpt lat="30.833597" lon="34.753475"><ele>539</ele><name>TP01939</name><time>2020-03-15T21:08:34Z</time></trkpt>
   <trkpt lat="30.833658" lon="34.753595"><ele>539.8</ele><name>TP01940</name><time>2020-03-15T21:08:38Z</time></trkpt>
   <trkpt lat="30.833663" lon="34.753696"><ele>541</ele><name>TP01941</name><time>2020-03-15T21:08:41Z</time></trkpt>
   <trkpt lat="30.833864" lon="34.754073"><ele>541.6</ele><name>TP01942</name><time>2020-03-15T21:08:57Z</time></trkpt>
   <trkpt lat="30.83389" lon="34.754157"><ele>542.2</ele><name>TP01943</name><time>2020-03-15T21:09:00Z</time></trkpt>
   <trkpt lat="30.833833" lon="34.754392"><ele>543.2</ele><name>TP01944</name><time>2020-03-15T21:09:08Z</time></trkpt>
   <trkpt lat="30.833709" lon="34.754517"><ele>542.4</ele><name>TP01945</name><time>2020-03-15T21:09:13Z</time></trkpt>
   <trkpt lat="30.833534" lon="34.754644"><ele>542.2</ele><name>TP01946</name><time>2020-03-15T21:09:19Z</time></trkpt>
   <trkpt lat="30.833369" lon="34.754742"><ele>541.6</ele><name>TP01947</name><time>2020-03-15T21:09:24Z</time></trkpt>
   <trkpt lat="30.83327" lon="34.754801"><ele>541.2</ele><name>TP01948</name><time>2020-03-15T21:09:27Z</time></trkpt>
   <trkpt lat="30.83299" lon="34.754948"><ele>541.6</ele><name>TP01949</name><time>2020-03-15T21:09:35Z</time></trkpt>
   <trkpt lat="30.832816" lon="34.754946"><ele>541.2</ele><name>TP01950</name><time>2020-03-15T21:09:39Z</time></trkpt>
   <trkpt lat="30.832769" lon="34.754935"><ele>541</ele><name>TP01951</name><time>2020-03-15T21:09:40Z</time></trkpt>
   <trkpt lat="30.832669" lon="34.75491"><ele>540</ele><name>TP01952</name><time>2020-03-15T21:09:42Z</time></trkpt>
   <trkpt lat="30.83257" lon="34.754876"><ele>539.6</ele><name>TP01953</name><time>2020-03-15T21:09:44Z</time></trkpt>
   <trkpt lat="30.832418" lon="34.754794"><ele>539</ele><name>TP01954</name><time>2020-03-15T21:09:47Z</time></trkpt>
   <trkpt lat="30.832275" lon="34.754703"><ele>537.8</ele><name>TP01955</name><time>2020-03-15T21:09:50Z</time></trkpt>
   <trkpt lat="30.832188" lon="34.75465"><ele>537.2</ele><name>TP01956</name><time>2020-03-15T21:09:52Z</time></trkpt>
   <trkpt lat="30.831978" lon="34.754618"><ele>536.6</ele><name>TP01957</name><time>2020-03-15T21:09:56Z</time></trkpt>
   <trkpt lat="30.831865" lon="34.754613"><ele>535.8</ele><name>TP01958</name><time>2020-03-15T21:09:58Z</time></trkpt>
   <trkpt lat="30.831756" lon="34.754609"><ele>535.4</ele><name>TP01959</name><time>2020-03-15T21:10:00Z</time></trkpt>
   <trkpt lat="30.831492" lon="34.75454"><ele>534</ele><name>TP01960</name><time>2020-03-15T21:10:05Z</time></trkpt>
   <trkpt lat="30.831325" lon="34.754503"><ele>532.8</ele><name>TP01961</name><time>2020-03-15T21:10:08Z</time></trkpt>
   <trkpt lat="30.831211" lon="34.754504"><ele>532.2</ele><name>TP01962</name><time>2020-03-15T21:10:10Z</time></trkpt>
   <trkpt lat="30.831099" lon="34.754522"><ele>532</ele><name>TP01963</name><time>2020-03-15T21:10:12Z</time></trkpt>
   <trkpt lat="30.831041" lon="34.754525"><ele>531.8</ele><name>TP01964</name><time>2020-03-15T21:10:13Z</time></trkpt>
   <trkpt lat="30.830767" lon="34.754542"><ele>530.6</ele><name>TP01965</name><time>2020-03-15T21:10:18Z</time></trkpt>
   <trkpt lat="30.830713" lon="34.754544"><ele>530.2</ele><name>TP01966</name><time>2020-03-15T21:10:19Z</time></trkpt>
   <trkpt lat="30.830659" lon="34.75455"><ele>529.8</ele><name>TP01967</name><time>2020-03-15T21:10:20Z</time></trkpt>
   <trkpt lat="30.830556" lon="34.75457"><ele>529.4</ele><name>TP01968</name><time>2020-03-15T21:10:22Z</time></trkpt>
   <trkpt lat="30.830505" lon="34.754584"><ele>529</ele><name>TP01969</name><time>2020-03-15T21:10:23Z</time></trkpt>
   <trkpt lat="30.830355" lon="34.754662"><ele>527.8</ele><name>TP01970</name><time>2020-03-15T21:10:26Z</time></trkpt>
   <trkpt lat="30.830221" lon="34.754779"><ele>527.2</ele><name>TP01971</name><time>2020-03-15T21:10:29Z</time></trkpt>
   <trkpt lat="30.83014" lon="34.754853"><ele>526.6</ele><name>TP01972</name><time>2020-03-15T21:10:31Z</time></trkpt>
   <trkpt lat="30.830061" lon="34.754929"><ele>526.8</ele><name>TP01973</name><time>2020-03-15T21:10:33Z</time></trkpt>
   <trkpt lat="30.829914" lon="34.755153"><ele>526.8</ele><name>TP01974</name><time>2020-03-15T21:10:38Z</time></trkpt>
   <trkpt lat="30.829839" lon="34.755285"><ele>526.6</ele><name>TP01975</name><time>2020-03-15T21:10:41Z</time></trkpt>
   <trkpt lat="30.829683" lon="34.755421"><ele>525.4</ele><name>TP01976</name><time>2020-03-15T21:10:45Z</time></trkpt>
   <trkpt lat="30.829559" lon="34.755483"><ele>524</ele><name>TP01977</name><time>2020-03-15T21:10:49Z</time></trkpt>
   <trkpt lat="30.829518" lon="34.755427"><ele>522.8</ele><name>TP01978</name><time>2020-03-15T21:10:52Z</time></trkpt>
   <trkpt lat="30.82946" lon="34.755309"><ele>521.4</ele><name>TP01979</name><time>2020-03-15T21:10:55Z</time></trkpt>
   <trkpt lat="30.82942" lon="34.755265"><ele>521</ele><name>TP01980</name><time>2020-03-15T21:10:56Z</time></trkpt>
   <trkpt lat="30.829345" lon="34.755174"><ele>520.4</ele><name>TP01981</name><time>2020-03-15T21:10:58Z</time></trkpt>
   <trkpt lat="30.829309" lon="34.755133"><ele>520.4</ele><name>TP01982</name><time>2020-03-15T21:10:59Z</time></trkpt>
   <trkpt lat="30.829177" lon="34.755047"><ele>520.6</ele><name>TP01983</name><time>2020-03-15T21:11:02Z</time></trkpt>
   <trkpt lat="30.829059" lon="34.754928"><ele>520.8</ele><name>TP01984</name><time>2020-03-15T21:11:05Z</time></trkpt>
   <trkpt lat="30.828764" lon="34.754765"><ele>521</ele><name>TP01985</name><time>2020-03-15T21:11:12Z</time></trkpt>
   <trkpt lat="30.828672" lon="34.754735"><ele>521.2</ele><name>TP01986</name><time>2020-03-15T21:11:14Z</time></trkpt>
   <trkpt lat="30.828583" lon="34.754701"><ele>521.2</ele><name>TP01987</name><time>2020-03-15T21:11:16Z</time></trkpt>
   <trkpt lat="30.828546" lon="34.754677"><ele>521.6</ele><name>TP01988</name><time>2020-03-15T21:11:17Z</time></trkpt>
   <trkpt lat="30.828449" lon="34.754588"><ele>521.6</ele><name>TP01989</name><time>2020-03-15T21:11:20Z</time></trkpt>
   <trkpt lat="30.828062" lon="34.75407"><ele>522</ele><name>TP01990</name><time>2020-03-15T21:11:32Z</time></trkpt>
   <trkpt lat="30.827992" lon="34.75398"><ele>522.2</ele><name>TP01991</name><time>2020-03-15T21:11:34Z</time></trkpt>
   <trkpt lat="30.827941" lon="34.753898"><ele>523</ele><name>TP01992</name><time>2020-03-15T21:11:36Z</time></trkpt>
   <trkpt lat="30.827869" lon="34.753762"><ele>524.2</ele><name>TP01993</name><time>2020-03-15T21:11:40Z</time></trkpt>
   <trkpt lat="30.827853" lon="34.753607"><ele>525.2</ele><name>TP01994</name><time>2020-03-15T21:11:44Z</time></trkpt>
   <trkpt lat="30.82786" lon="34.753476"><ele>525.8</ele><name>TP01995</name><time>2020-03-15T21:11:48Z</time></trkpt>
   <trkpt lat="30.82784" lon="34.753387"><ele>526.4</ele><name>TP01996</name><time>2020-03-15T21:11:51Z</time></trkpt>
   <trkpt lat="30.82777" lon="34.753311"><ele>526.8</ele><name>TP01997</name><time>2020-03-15T21:11:54Z</time></trkpt>
   <trkpt lat="30.827678" lon="34.753213"><ele>526.6</ele><name>TP01998</name><time>2020-03-15T21:11:57Z</time></trkpt>
   <trkpt lat="30.827553" lon="34.75307"><ele>526</ele><name>TP01999</name><time>2020-03-15T21:12:01Z</time></trkpt>
   <trkpt lat="30.82751" lon="34.752827"><ele>526.4</ele><name>TP02000</name><time>2020-03-15T21:12:07Z</time></trkpt>
   <trkpt lat="30.827492" lon="34.752747"><ele>527</ele><name>TP02001</name><time>2020-03-15T21:12:09Z</time></trkpt>
   <trkpt lat="30.827463" lon="34.752667"><ele>527.4</ele><name>TP02002</name><time>2020-03-15T21:12:11Z</time></trkpt>
   <trkpt lat="30.827296" lon="34.752359"><ele>528.6</ele><name>TP02003</name><time>2020-03-15T21:12:20Z</time></trkpt>
   <trkpt lat="30.827144" lon="34.752134"><ele>528.8</ele><name>TP02004</name><time>2020-03-15T21:12:26Z</time></trkpt>
   <trkpt lat="30.82698" lon="34.751976"><ele>529</ele><name>TP02005</name><time>2020-03-15T21:12:31Z</time></trkpt>
   <trkpt lat="30.826826" lon="34.751865"><ele>529.2</ele><name>TP02006</name><time>2020-03-15T21:12:36Z</time></trkpt>
   <trkpt lat="30.826743" lon="34.751922"><ele>529.2</ele><name>TP02007</name><time>2020-03-15T21:12:39Z</time></trkpt>
   <trkpt lat="30.82658" lon="34.75206"><ele>528</ele><name>TP02008</name><time>2020-03-15T21:12:43Z</time></trkpt>
   <trkpt lat="30.826457" lon="34.752154"><ele>527.4</ele><name>TP02009</name><time>2020-03-15T21:12:46Z</time></trkpt>
   <trkpt lat="30.826378" lon="34.75222"><ele>527.2</ele><name>TP02010</name><time>2020-03-15T21:12:48Z</time></trkpt>
   <trkpt lat="30.826299" lon="34.75227"><ele>527.2</ele><name>TP02011</name><time>2020-03-15T21:12:50Z</time></trkpt>
   <trkpt lat="30.826212" lon="34.752361"><ele>527.8</ele><name>TP02012</name><time>2020-03-15T21:12:53Z</time></trkpt>
   <trkpt lat="30.826233" lon="34.752477"><ele>528.4</ele><name>TP02013</name><time>2020-03-15T21:12:56Z</time></trkpt>
   <trkpt lat="30.82633" lon="34.752594"><ele>528.2</ele><name>TP02014</name><time>2020-03-15T21:13:00Z</time></trkpt>
   <trkpt lat="30.826527" lon="34.753004"><ele>529.6</ele><name>TP02015</name><time>2020-03-15T21:13:12Z</time></trkpt>
   <trkpt lat="30.826664" lon="34.753494"><ele>528.6</ele><name>TP02016</name><time>2020-03-15T21:13:23Z</time></trkpt>
   <trkpt lat="30.826689" lon="34.753541"><ele>528.4</ele><name>TP02017</name><time>2020-03-15T21:13:24Z</time></trkpt>
   <trkpt lat="30.826725" lon="34.753782"><ele>529.2</ele><name>TP02018</name><time>2020-03-15T21:13:29Z</time></trkpt>
   <trkpt lat="30.826732" lon="34.753831"><ele>529.4</ele><name>TP02019</name><time>2020-03-15T21:13:30Z</time></trkpt>
   <trkpt lat="30.826752" lon="34.753926"><ele>529.2</ele><name>TP02020</name><time>2020-03-15T21:13:32Z</time></trkpt>
   <trkpt lat="30.826861" lon="34.754301"><ele>529</ele><name>TP02021</name><time>2020-03-15T21:13:40Z</time></trkpt>
   <trkpt lat="30.826873" lon="34.754349"><ele>529</ele><name>TP02022</name><time>2020-03-15T21:13:41Z</time></trkpt>
   <trkpt lat="30.826879" lon="34.754899"><ele>530.4</ele><name>TP02023</name><time>2020-03-15T21:13:54Z</time></trkpt>
   <trkpt lat="30.826879" lon="34.754935"><ele>530.6</ele><name>TP02024</name><time>2020-03-15T21:13:55Z</time></trkpt>
   <trkpt lat="30.826865" lon="34.755122"><ele>530.2</ele><name>TP02025</name><time>2020-03-15T21:14:01Z</time></trkpt>
   <trkpt lat="30.826797" lon="34.755163"><ele>530</ele><name>TP02026</name><time>2020-03-15T21:14:05Z</time></trkpt>
   <trkpt lat="30.826789" lon="34.755162"><ele>531</ele><name>TP02027</name><time>2020-03-15T21:14:27Z</time></trkpt>
   <trkpt lat="30.826789" lon="34.755162"><ele>531.4</ele><name>TP02028</name><time>2020-03-15T21:14:34Z</time></trkpt>
   <trkpt lat="30.826789" lon="34.755162"><ele>531.4</ele><name>TP02029</name><time>2020-03-15T21:14:36Z</time></trkpt>
   <trkpt lat="30.826789" lon="34.755162"><ele>531.4</ele><name>TP02030</name><time>2020-03-15T21:14:38Z</time></trkpt>
   <trkpt lat="30.826789" lon="34.755162"><ele>531.2</ele><name>TP02031</name><time>2020-03-15T21:14:42Z</time></trkpt>
   <trkpt lat="30.826789" lon="34.755161"><ele>531.2</ele><name>TP02032</name><time>2020-03-15T21:14:46Z</time></trkpt>
   <trkpt lat="30.826789" lon="34.755162"><ele>531.6</ele><name>TP02033</name><time>2020-03-15T21:14:52Z</time></trkpt>
   <trkpt lat="30.826789" lon="34.755162"><ele>531.6</ele><name>TP02034</name><time>2020-03-15T21:14:59Z</time></trkpt>
   <trkpt lat="30.826789" lon="34.755162"><ele>531.8</ele><name>TP02035</name><time>2020-03-15T21:15:07Z</time></trkpt>
   <trkpt lat="30.826789" lon="34.755161"><ele>531.4</ele><name>TP02036</name><time>2020-03-15T21:15:28Z</time></trkpt>
   <trkpt lat="30.826789" lon="34.755162"><ele>531.4</ele><name>TP02037</name><time>2020-03-15T21:15:33Z</time></trkpt>
   <trkpt lat="30.826789" lon="34.755161"><ele>531.6</ele><name>TP02038</name><time>2020-03-15T21:15:46Z</time></trkpt>
   <trkpt lat="30.826789" lon="34.755161"><ele>531.6</ele><name>TP02039</name><time>2020-03-15T21:15:50Z</time></trkpt>
   <trkpt lat="30.826789" lon="34.755161"><ele>531.6</ele><name>TP02040</name><time>2020-03-15T21:15:56Z</time></trkpt>
   <trkpt lat="30.826789" lon="34.755161"><ele>531.6</ele><name>TP02041</name><time>2020-03-15T21:16:01Z</time></trkpt>
   <trkpt lat="30.826539" lon="34.755136"><ele>530.4</ele><name>TP02042</name><time>2020-03-15T21:16:36Z</time></trkpt>
   <trkpt lat="30.826339" lon="34.755134"><ele>530.4</ele><name>TP02043</name><time>2020-03-15T21:16:41Z</time></trkpt>
   <trkpt lat="30.826298" lon="34.755124"><ele>530.4</ele><name>TP02044</name><time>2020-03-15T21:16:42Z</time></trkpt>
   <trkpt lat="30.826215" lon="34.755098"><ele>530.4</ele><name>TP02045</name><time>2020-03-15T21:16:44Z</time></trkpt>
   <trkpt lat="30.826079" lon="34.755077"><ele>530.4</ele><name>TP02046</name><time>2020-03-15T21:16:47Z</time></trkpt>
   <trkpt lat="30.825835" lon="34.755087"><ele>529.8</ele><name>TP02047</name><time>2020-03-15T21:16:52Z</time></trkpt>
   <trkpt lat="30.825584" lon="34.755126"><ele>529</ele><name>TP02048</name><time>2020-03-15T21:16:57Z</time></trkpt>
   <trkpt lat="30.825487" lon="34.755105"><ele>528.8</ele><name>TP02049</name><time>2020-03-15T21:16:59Z</time></trkpt>
   <trkpt lat="30.825356" lon="34.755048"><ele>528.8</ele><name>TP02050</name><time>2020-03-15T21:17:02Z</time></trkpt>
   <trkpt lat="30.825268" lon="34.75502"><ele>529.2</ele><name>TP02051</name><time>2020-03-15T21:17:04Z</time></trkpt>
   <trkpt lat="30.825174" lon="34.755003"><ele>529.6</ele><name>TP02052</name><time>2020-03-15T21:17:06Z</time></trkpt>
   <trkpt lat="30.825089" lon="34.75501"><ele>530</ele><name>TP02053</name><time>2020-03-15T21:17:08Z</time></trkpt>
   <trkpt lat="30.825026" lon="34.755076"><ele>530.2</ele><name>TP02054</name><time>2020-03-15T21:17:10Z</time></trkpt>
   <trkpt lat="30.824993" lon="34.755109"><ele>530.2</ele><name>TP02055</name><time>2020-03-15T21:17:11Z</time></trkpt>
   <trkpt lat="30.824838" lon="34.755189"><ele>530.2</ele><name>TP02056</name><time>2020-03-15T21:17:15Z</time></trkpt>
   <trkpt lat="30.824795" lon="34.755197"><ele>530.4</ele><name>TP02057</name><time>2020-03-15T21:17:16Z</time></trkpt>
   <trkpt lat="30.824666" lon="34.755191"><ele>530.4</ele><name>TP02058</name><time>2020-03-15T21:17:19Z</time></trkpt>
   <trkpt lat="30.824622" lon="34.755182"><ele>530.2</ele><name>TP02059</name><time>2020-03-15T21:17:20Z</time></trkpt>
   <trkpt lat="30.824534" lon="34.755154"><ele>530.2</ele><name>TP02060</name><time>2020-03-15T21:17:22Z</time></trkpt>
   <trkpt lat="30.824413" lon="34.755101"><ele>530.2</ele><name>TP02061</name><time>2020-03-15T21:17:25Z</time></trkpt>
   <trkpt lat="30.82433" lon="34.755078"><ele>530</ele><name>TP02062</name><time>2020-03-15T21:17:27Z</time></trkpt>
   <trkpt lat="30.824186" lon="34.754979"><ele>529.8</ele><name>TP02063</name><time>2020-03-15T21:17:31Z</time></trkpt>
   <trkpt lat="30.824121" lon="34.754917"><ele>529.8</ele><name>TP02064</name><time>2020-03-15T21:17:33Z</time></trkpt>
   <trkpt lat="30.824097" lon="34.754649"><ele>529.6</ele><name>TP02065</name><time>2020-03-15T21:17:39Z</time></trkpt>
   <trkpt lat="30.824111" lon="34.754601"><ele>529.6</ele><name>TP02066</name><time>2020-03-15T21:17:40Z</time></trkpt>
   <trkpt lat="30.823721" lon="34.754315"><ele>529.8</ele><name>TP02067</name><time>2020-03-15T21:17:53Z</time></trkpt>
   <trkpt lat="30.823678" lon="34.754304"><ele>529.6</ele><name>TP02068</name><time>2020-03-15T21:17:54Z</time></trkpt>
   <trkpt lat="30.823593" lon="34.754288"><ele>529.4</ele><name>TP02069</name><time>2020-03-15T21:17:56Z</time></trkpt>
   <trkpt lat="30.82325" lon="34.754432"><ele>529.2</ele><name>TP02070</name><time>2020-03-15T21:18:05Z</time></trkpt>
   <trkpt lat="30.82315" lon="34.754484"><ele>529</ele><name>TP02071</name><time>2020-03-15T21:18:08Z</time></trkpt>
   <trkpt lat="30.823107" lon="34.754495"><ele>529</ele><name>TP02072</name><time>2020-03-15T21:18:09Z</time></trkpt>
   <trkpt lat="30.82301" lon="34.754508"><ele>529</ele><name>TP02073</name><time>2020-03-15T21:18:11Z</time></trkpt>
   <trkpt lat="30.822807" lon="34.754673"><ele>529.6</ele><name>TP02074</name><time>2020-03-15T21:18:16Z</time></trkpt>
   <trkpt lat="30.822746" lon="34.754765"><ele>530</ele><name>TP02075</name><time>2020-03-15T21:18:18Z</time></trkpt>
   <trkpt lat="30.822716" lon="34.754797"><ele>530.2</ele><name>TP02076</name><time>2020-03-15T21:18:19Z</time></trkpt>
   <trkpt lat="30.822617" lon="34.754849"><ele>530.6</ele><name>TP02077</name><time>2020-03-15T21:18:22Z</time></trkpt>
   <trkpt lat="30.822385" lon="34.754994"><ele>530.8</ele><name>TP02078</name><time>2020-03-15T21:18:29Z</time></trkpt>
   <trkpt lat="30.822272" lon="34.75504"><ele>531.2</ele><name>TP02079</name><time>2020-03-15T21:18:32Z</time></trkpt>
   <trkpt lat="30.822197" lon="34.755075"><ele>531.4</ele><name>TP02080</name><time>2020-03-15T21:18:34Z</time></trkpt>
   <trkpt lat="30.822088" lon="34.755111"><ele>531.2</ele><name>TP02081</name><time>2020-03-15T21:18:37Z</time></trkpt>
   <trkpt lat="30.821862" lon="34.75501"><ele>531.2</ele><name>TP02082</name><time>2020-03-15T21:18:43Z</time></trkpt>
   <trkpt lat="30.821673" lon="34.754962"><ele>531.2</ele><name>TP02083</name><time>2020-03-15T21:18:48Z</time></trkpt>
   <trkpt lat="30.821481" lon="34.754999"><ele>531.4</ele><name>TP02084</name><time>2020-03-15T21:18:53Z</time></trkpt>
   <trkpt lat="30.821401" lon="34.755014"><ele>531</ele><name>TP02085</name><time>2020-03-15T21:18:55Z</time></trkpt>
   <trkpt lat="30.82127" lon="34.755014"><ele>530.4</ele><name>TP02086</name><time>2020-03-15T21:18:58Z</time></trkpt>
   <trkpt lat="30.821227" lon="34.755006"><ele>530.4</ele><name>TP02087</name><time>2020-03-15T21:18:59Z</time></trkpt>
   <trkpt lat="30.821071" lon="34.754868"><ele>530.2</ele><name>TP02088</name><time>2020-03-15T21:19:04Z</time></trkpt>
   <trkpt lat="30.820974" lon="34.754742"><ele>530.2</ele><name>TP02089</name><time>2020-03-15T21:19:08Z</time></trkpt>
   <trkpt lat="30.820909" lon="34.754615"><ele>529.8</ele><name>TP02090</name><time>2020-03-15T21:19:11Z</time></trkpt>
   <trkpt lat="30.820869" lon="34.754523"><ele>529.4</ele><name>TP02091</name><time>2020-03-15T21:19:13Z</time></trkpt>
   <trkpt lat="30.820847" lon="34.754487"><ele>529</ele><name>TP02092</name><time>2020-03-15T21:19:14Z</time></trkpt>
   <trkpt lat="30.820769" lon="34.754469"><ele>528.2</ele><name>TP02093</name><time>2020-03-15T21:19:16Z</time></trkpt>
   <trkpt lat="30.82049" lon="34.754736"><ele>528.2</ele><name>TP02094</name><time>2020-03-15T21:19:23Z</time></trkpt>
   <trkpt lat="30.8204" lon="34.754794"><ele>528</ele><name>TP02095</name><time>2020-03-15T21:19:25Z</time></trkpt>
   <trkpt lat="30.820107" lon="34.755004"><ele>527.6</ele><name>TP02096</name><time>2020-03-15T21:19:33Z</time></trkpt>
   <trkpt lat="30.82004" lon="34.755082"><ele>527.2</ele><name>TP02097</name><time>2020-03-15T21:19:35Z</time></trkpt>
   <trkpt lat="30.819856" lon="34.755187"><ele>526.6</ele><name>TP02098</name><time>2020-03-15T21:19:41Z</time></trkpt>
   <trkpt lat="30.819845" lon="34.755218"><ele>526.6</ele><name>TP02099</name><time>2020-03-15T21:19:42Z</time></trkpt>
   <trkpt lat="30.819876" lon="34.755314"><ele>526.2</ele><name>TP02100</name><time>2020-03-15T21:19:45Z</time></trkpt>
   <trkpt lat="30.8199" lon="34.755343"><ele>526</ele><name>TP02101</name><time>2020-03-15T21:19:46Z</time></trkpt>
   <trkpt lat="30.81997" lon="34.755452"><ele>525.8</ele><name>TP02102</name><time>2020-03-15T21:19:50Z</time></trkpt>
   <trkpt lat="30.819965" lon="34.755569"><ele>526.6</ele><name>TP02103</name><time>2020-03-15T21:19:53Z</time></trkpt>
   <trkpt lat="30.819944" lon="34.755644"><ele>527.2</ele><name>TP02104</name><time>2020-03-15T21:19:55Z</time></trkpt>
   <trkpt lat="30.819868" lon="34.755784"><ele>528.4</ele><name>TP02105</name><time>2020-03-15T21:19:59Z</time></trkpt>
   <trkpt lat="30.819753" lon="34.755984"><ele>529.2</ele><name>TP02106</name><time>2020-03-15T21:20:05Z</time></trkpt>
   <trkpt lat="30.819711" lon="34.756052"><ele>529.6</ele><name>TP02107</name><time>2020-03-15T21:20:07Z</time></trkpt>
   <trkpt lat="30.81965" lon="34.756172"><ele>529.8</ele><name>TP02108</name><time>2020-03-15T21:20:10Z</time></trkpt>
   <trkpt lat="30.819581" lon="34.756299"><ele>530</ele><name>TP02109</name><time>2020-03-15T21:20:13Z</time></trkpt>
   <trkpt lat="30.819472" lon="34.756678"><ele>530</ele><name>TP02110</name><time>2020-03-15T21:20:23Z</time></trkpt>
   <trkpt lat="30.819195" lon="34.756743"><ele>530.8</ele><name>TP02111</name><time>2020-03-15T21:20:31Z</time></trkpt>
   <trkpt lat="30.819087" lon="34.756858"><ele>532</ele><name>TP02112</name><time>2020-03-15T21:20:35Z</time></trkpt>
   <trkpt lat="30.819075" lon="34.756902"><ele>532.2</ele><name>TP02113</name><time>2020-03-15T21:20:36Z</time></trkpt>
   <trkpt lat="30.819067" lon="34.757051"><ele>531.8</ele><name>TP02114</name><time>2020-03-15T21:20:39Z</time></trkpt>
   <trkpt lat="30.818892" lon="34.757449"><ele>530.8</ele><name>TP02115</name><time>2020-03-15T21:20:47Z</time></trkpt>
   <trkpt lat="30.818802" lon="34.757705"><ele>530.4</ele><name>TP02116</name><time>2020-03-15T21:20:52Z</time></trkpt>
   <trkpt lat="30.818808" lon="34.757822"><ele>529.8</ele><name>TP02117</name><time>2020-03-15T21:20:54Z</time></trkpt>
   <trkpt lat="30.818816" lon="34.757877"><ele>529.2</ele><name>TP02118</name><time>2020-03-15T21:20:55Z</time></trkpt>
   <trkpt lat="30.818831" lon="34.75793"><ele>528.8</ele><name>TP02119</name><time>2020-03-15T21:20:56Z</time></trkpt>
   <trkpt lat="30.818904" lon="34.758094"><ele>527.4</ele><name>TP02120</name><time>2020-03-15T21:20:59Z</time></trkpt>
   <trkpt lat="30.818947" lon="34.758223"><ele>526.8</ele><name>TP02121</name><time>2020-03-15T21:21:01Z</time></trkpt>
   <trkpt lat="30.818973" lon="34.758359"><ele>526</ele><name>TP02122</name><time>2020-03-15T21:21:03Z</time></trkpt>
   <trkpt lat="30.819005" lon="34.75849"><ele>525.2</ele><name>TP02123</name><time>2020-03-15T21:21:05Z</time></trkpt>
   <trkpt lat="30.819025" lon="34.758553"><ele>524.8</ele><name>TP02124</name><time>2020-03-15T21:21:06Z</time></trkpt>
   <trkpt lat="30.819068" lon="34.758675"><ele>524.6</ele><name>TP02125</name><time>2020-03-15T21:21:08Z</time></trkpt>
   <trkpt lat="30.819098" lon="34.75873"><ele>524.6</ele><name>TP02126</name><time>2020-03-15T21:21:09Z</time></trkpt>
   <trkpt lat="30.819219" lon="34.758861"><ele>524.6</ele><name>TP02127</name><time>2020-03-15T21:21:12Z</time></trkpt>
   <trkpt lat="30.819324" lon="34.758967"><ele>524.6</ele><name>TP02128</name><time>2020-03-15T21:21:15Z</time></trkpt>
   <trkpt lat="30.819303" lon="34.759131"><ele>524.6</ele><name>TP02129</name><time>2020-03-15T21:21:19Z</time></trkpt>
   <trkpt lat="30.819283" lon="34.759226"><ele>524.6</ele><name>TP02130</name><time>2020-03-15T21:21:21Z</time></trkpt>
   <trkpt lat="30.819253" lon="34.759481"><ele>524.6</ele><name>TP02131</name><time>2020-03-15T21:21:26Z</time></trkpt>
   <trkpt lat="30.819248" lon="34.759535"><ele>524.6</ele><name>TP02132</name><time>2020-03-15T21:21:27Z</time></trkpt>
   <trkpt lat="30.819168" lon="34.759791"><ele>524.4</ele><name>TP02133</name><time>2020-03-15T21:21:33Z</time></trkpt>
   <trkpt lat="30.819126" lon="34.759869"><ele>524.6</ele><name>TP02134</name><time>2020-03-15T21:21:35Z</time></trkpt>
   <trkpt lat="30.819164" lon="34.760103"><ele>525</ele><name>TP02135</name><time>2020-03-15T21:21:40Z</time></trkpt>
   <trkpt lat="30.819185" lon="34.760146"><ele>525</ele><name>TP02136</name><time>2020-03-15T21:21:41Z</time></trkpt>
   <trkpt lat="30.819397" lon="34.760325"><ele>524.8</ele><name>TP02137</name><time>2020-03-15T21:21:47Z</time></trkpt>
   <trkpt lat="30.81949" lon="34.760343"><ele>524.6</ele><name>TP02138</name><time>2020-03-15T21:21:49Z</time></trkpt>
   <trkpt lat="30.819538" lon="34.760355"><ele>524.4</ele><name>TP02139</name><time>2020-03-15T21:21:50Z</time></trkpt>
   <trkpt lat="30.819804" lon="34.760598"><ele>524.2</ele><name>TP02140</name><time>2020-03-15T21:21:57Z</time></trkpt>
   <trkpt lat="30.819917" lon="34.760764"><ele>524.8</ele><name>TP02141</name><time>2020-03-15T21:22:01Z</time></trkpt>
   <trkpt lat="30.820092" lon="34.760965"><ele>525.2</ele><name>TP02142</name><time>2020-03-15T21:22:07Z</time></trkpt>
   <trkpt lat="30.820153" lon="34.761036"><ele>525.4</ele><name>TP02143</name><time>2020-03-15T21:22:09Z</time></trkpt>
   <trkpt lat="30.820226" lon="34.761216"><ele>526.2</ele><name>TP02144</name><time>2020-03-15T21:22:13Z</time></trkpt>
   <trkpt lat="30.820259" lon="34.761307"><ele>526.6</ele><name>TP02145</name><time>2020-03-15T21:22:15Z</time></trkpt>
   <trkpt lat="30.820296" lon="34.761445"><ele>527.2</ele><name>TP02146</name><time>2020-03-15T21:22:18Z</time></trkpt>
   <trkpt lat="30.820321" lon="34.761587"><ele>527.2</ele><name>TP02147</name><time>2020-03-15T21:22:21Z</time></trkpt>
   <trkpt lat="30.820227" lon="34.761801"><ele>527</ele><name>TP02148</name><time>2020-03-15T21:22:26Z</time></trkpt>
   <trkpt lat="30.820161" lon="34.76188"><ele>526.8</ele><name>TP02149</name><time>2020-03-15T21:22:28Z</time></trkpt>
   <trkpt lat="30.819927" lon="34.762045"><ele>526</ele><name>TP02150</name><time>2020-03-15T21:22:33Z</time></trkpt>
   <trkpt lat="30.819767" lon="34.762229"><ele>526.2</ele><name>TP02151</name><time>2020-03-15T21:22:37Z</time></trkpt>
   <trkpt lat="30.819668" lon="34.762387"><ele>526.2</ele><name>TP02152</name><time>2020-03-15T21:22:40Z</time></trkpt>
   <trkpt lat="30.819565" lon="34.762539"><ele>526</ele><name>TP02153</name><time>2020-03-15T21:22:43Z</time></trkpt>
   <trkpt lat="30.819431" lon="34.762765"><ele>525.6</ele><name>TP02154</name><time>2020-03-15T21:22:48Z</time></trkpt>
   <trkpt lat="30.819302" lon="34.762833"><ele>525</ele><name>TP02155</name><time>2020-03-15T21:22:51Z</time></trkpt>
   <trkpt lat="30.819109" lon="34.763193"><ele>525.4</ele><name>TP02156</name><time>2020-03-15T21:23:04Z</time></trkpt>
   <trkpt lat="30.81908" lon="34.763236"><ele>525.2</ele><name>TP02157</name><time>2020-03-15T21:23:05Z</time></trkpt>
   <trkpt lat="30.818953" lon="34.763375"><ele>524.4</ele><name>TP02158</name><time>2020-03-15T21:23:08Z</time></trkpt>
   <trkpt lat="30.81875" lon="34.763592"><ele>524.2</ele><name>TP02159</name><time>2020-03-15T21:23:12Z</time></trkpt>
   <trkpt lat="30.818594" lon="34.763741"><ele>524</ele><name>TP02160</name><time>2020-03-15T21:23:15Z</time></trkpt>
   <trkpt lat="30.818545" lon="34.763784"><ele>523.8</ele><name>TP02161</name><time>2020-03-15T21:23:16Z</time></trkpt>
   <trkpt lat="30.818369" lon="34.763931"><ele>523.4</ele><name>TP02162</name><time>2020-03-15T21:23:20Z</time></trkpt>
   <trkpt lat="30.818124" lon="34.764097"><ele>523</ele><name>TP02163</name><time>2020-03-15T21:23:26Z</time></trkpt>
   <trkpt lat="30.818101" lon="34.764236"><ele>523</ele><name>TP02164</name><time>2020-03-15T21:23:29Z</time></trkpt>
   <trkpt lat="30.818107" lon="34.764285"><ele>522.6</ele><name>TP02165</name><time>2020-03-15T21:23:30Z</time></trkpt>
   <trkpt lat="30.818157" lon="34.76435"><ele>521.2</ele><name>TP02166</name><time>2020-03-15T21:23:32Z</time></trkpt>
   <trkpt lat="30.818304" lon="34.76433"><ele>520.2</ele><name>TP02167</name><time>2020-03-15T21:23:35Z</time></trkpt>
   <trkpt lat="30.818358" lon="34.764309"><ele>520</ele><name>TP02168</name><time>2020-03-15T21:23:36Z</time></trkpt>
   <trkpt lat="30.818414" lon="34.764293"><ele>519.8</ele><name>TP02169</name><time>2020-03-15T21:23:37Z</time></trkpt>
   <trkpt lat="30.81865" lon="34.764307"><ele>519.2</ele><name>TP02170</name><time>2020-03-15T21:23:41Z</time></trkpt>
   <trkpt lat="30.818735" lon="34.764358"><ele>519</ele><name>TP02171</name><time>2020-03-15T21:23:43Z</time></trkpt>
   <trkpt lat="30.818789" lon="34.764455"><ele>518.8</ele><name>TP02172</name><time>2020-03-15T21:23:45Z</time></trkpt>
   <trkpt lat="30.818843" lon="34.764563"><ele>518.6</ele><name>TP02173</name><time>2020-03-15T21:23:47Z</time></trkpt>
   <trkpt lat="30.818971" lon="34.764643"><ele>517.8</ele><name>TP02174</name><time>2020-03-15T21:23:50Z</time></trkpt>
   <trkpt lat="30.819017" lon="34.76465"><ele>517.8</ele><name>TP02175</name><time>2020-03-15T21:23:51Z</time></trkpt>
   <trkpt lat="30.819169" lon="34.764681"><ele>517.6</ele><name>TP02176</name><time>2020-03-15T21:23:55Z</time></trkpt>
   <trkpt lat="30.819236" lon="34.76471"><ele>517.6</ele><name>TP02177</name><time>2020-03-15T21:23:57Z</time></trkpt>
   <trkpt lat="30.819313" lon="34.764815"><ele>517.8</ele><name>TP02178</name><time>2020-03-15T21:24:00Z</time></trkpt>
   <trkpt lat="30.81942" lon="34.764931"><ele>517.4</ele><name>TP02179</name><time>2020-03-15T21:24:03Z</time></trkpt>
   <trkpt lat="30.81949" lon="34.765038"><ele>516.6</ele><name>TP02180</name><time>2020-03-15T21:24:06Z</time></trkpt>
   <trkpt lat="30.819376" lon="34.765254"><ele>517</ele><name>TP02181</name><time>2020-03-15T21:24:12Z</time></trkpt>
   <trkpt lat="30.819312" lon="34.765316"><ele>517</ele><name>TP02182</name><time>2020-03-15T21:24:14Z</time></trkpt>
   <trkpt lat="30.819118" lon="34.765346"><ele>516.4</ele><name>TP02183</name><time>2020-03-15T21:24:19Z</time></trkpt>
   <trkpt lat="30.819027" lon="34.765329"><ele>516.6</ele><name>TP02184</name><time>2020-03-15T21:24:21Z</time></trkpt>
   <trkpt lat="30.818913" lon="34.765399"><ele>517.8</ele><name>TP02185</name><time>2020-03-15T21:24:24Z</time></trkpt>
   <trkpt lat="30.818886" lon="34.765439"><ele>518</ele><name>TP02186</name><time>2020-03-15T21:24:25Z</time></trkpt>
   <trkpt lat="30.818675" lon="34.76554"><ele>517</ele><name>TP02187</name><time>2020-03-15T21:24:31Z</time></trkpt>
   <trkpt lat="30.818546" lon="34.765633"><ele>517.6</ele><name>TP02188</name><time>2020-03-15T21:24:34Z</time></trkpt>
   <trkpt lat="30.818389" lon="34.765782"><ele>517</ele><name>TP02189</name><time>2020-03-15T21:24:38Z</time></trkpt>
   <trkpt lat="30.818307" lon="34.765824"><ele>516.8</ele><name>TP02190</name><time>2020-03-15T21:24:40Z</time></trkpt>
   <trkpt lat="30.817884" lon="34.765918"><ele>516.4</ele><name>TP02191</name><time>2020-03-15T21:24:55Z</time></trkpt>
   <trkpt lat="30.81791" lon="34.765981"><ele>515.2</ele><name>TP02192</name><time>2020-03-15T21:24:57Z</time></trkpt>
   <trkpt lat="30.817924" lon="34.766063"><ele>514.2</ele><name>TP02193</name><time>2020-03-15T21:25:00Z</time></trkpt>
   <trkpt lat="30.817911" lon="34.766093"><ele>514</ele><name>TP02194</name><time>2020-03-15T21:25:01Z</time></trkpt>
   <trkpt lat="30.817848" lon="34.76626"><ele>514</ele><name>TP02195</name><time>2020-03-15T21:25:06Z</time></trkpt>
   <trkpt lat="30.817828" lon="34.766294"><ele>514.2</ele><name>TP02196</name><time>2020-03-15T21:25:07Z</time></trkpt>
   <trkpt lat="30.817735" lon="34.766364"><ele>514.8</ele><name>TP02197</name><time>2020-03-15T21:25:10Z</time></trkpt>
   <trkpt lat="30.817515" lon="34.766429"><ele>514.8</ele><name>TP02198</name><time>2020-03-15T21:25:15Z</time></trkpt>
   <trkpt lat="30.817383" lon="34.76646"><ele>515.6</ele><name>TP02199</name><time>2020-03-15T21:25:18Z</time></trkpt>
   <trkpt lat="30.817058" lon="34.766645"><ele>516</ele><name>TP02200</name><time>2020-03-15T21:25:26Z</time></trkpt>
   <trkpt lat="30.816789" lon="34.766725"><ele>516.2</ele><name>TP02201</name><time>2020-03-15T21:25:33Z</time></trkpt>
   <trkpt lat="30.816768" lon="34.76695"><ele>515.8</ele><name>TP02202</name><time>2020-03-15T21:25:39Z</time></trkpt>
   <trkpt lat="30.816781" lon="34.767084"><ele>515.2</ele><name>TP02203</name><time>2020-03-15T21:25:42Z</time></trkpt>
   <trkpt lat="30.816742" lon="34.76723"><ele>515</ele><name>TP02204</name><time>2020-03-15T21:25:46Z</time></trkpt>
   <trkpt lat="30.816587" lon="34.767411"><ele>514.8</ele><name>TP02205</name><time>2020-03-15T21:25:52Z</time></trkpt>
   <trkpt lat="30.816096" lon="34.767681"><ele>515.6</ele><name>TP02206</name><time>2020-03-15T21:26:06Z</time></trkpt>
   <trkpt lat="30.816056" lon="34.7677"><ele>515.2</ele><name>TP02207</name><time>2020-03-15T21:26:07Z</time></trkpt>
   <trkpt lat="30.815925" lon="34.767739"><ele>514.4</ele><name>TP02208</name><time>2020-03-15T21:26:10Z</time></trkpt>
   <trkpt lat="30.815876" lon="34.767755"><ele>514.4</ele><name>TP02209</name><time>2020-03-15T21:26:11Z</time></trkpt>
   <trkpt lat="30.81564" lon="34.767835"><ele>514</ele><name>TP02210</name><time>2020-03-15T21:26:16Z</time></trkpt>
   <trkpt lat="30.815547" lon="34.767836"><ele>513.8</ele><name>TP02211</name><time>2020-03-15T21:26:18Z</time></trkpt>
   <trkpt lat="30.815342" lon="34.76781"><ele>513.8</ele><name>TP02212</name><time>2020-03-15T21:26:22Z</time></trkpt>
   <trkpt lat="30.815095" lon="34.76771"><ele>513.8</ele><name>TP02213</name><time>2020-03-15T21:26:27Z</time></trkpt>
   <trkpt lat="30.814903" lon="34.767614"><ele>514.2</ele><name>TP02214</name><time>2020-03-15T21:26:31Z</time></trkpt>
   <trkpt lat="30.814798" lon="34.767581"><ele>514.4</ele><name>TP02215</name><time>2020-03-15T21:26:33Z</time></trkpt>
   <trkpt lat="30.814628" lon="34.76747"><ele>514.2</ele><name>TP02216</name><time>2020-03-15T21:26:37Z</time></trkpt>
   <trkpt lat="30.814522" lon="34.7674"><ele>514.8</ele><name>TP02217</name><time>2020-03-15T21:26:40Z</time></trkpt>
   <trkpt lat="30.814369" lon="34.767334"><ele>514.8</ele><name>TP02218</name><time>2020-03-15T21:26:44Z</time></trkpt>
   <trkpt lat="30.814291" lon="34.767288"><ele>514.8</ele><name>TP02219</name><time>2020-03-15T21:26:46Z</time></trkpt>
   <trkpt lat="30.813981" lon="34.767161"><ele>514.4</ele><name>TP02220</name><time>2020-03-15T21:26:54Z</time></trkpt>
   <trkpt lat="30.813655" lon="34.766867"><ele>514.4</ele><name>TP02221</name><time>2020-03-15T21:27:02Z</time></trkpt>
   <trkpt lat="30.81351" lon="34.766742"><ele>515.2</ele><name>TP02222</name><time>2020-03-15T21:27:06Z</time></trkpt>
   <trkpt lat="30.81336" lon="34.766587"><ele>515.8</ele><name>TP02223</name><time>2020-03-15T21:27:11Z</time></trkpt>
   <trkpt lat="30.813331" lon="34.766558"><ele>515.8</ele><name>TP02224</name><time>2020-03-15T21:27:12Z</time></trkpt>
   <trkpt lat="30.813085" lon="34.766369"><ele>516.8</ele><name>TP02225</name><time>2020-03-15T21:27:20Z</time></trkpt>
   <trkpt lat="30.813017" lon="34.766274"><ele>517.4</ele><name>TP02226</name><time>2020-03-15T21:27:23Z</time></trkpt>
   <trkpt lat="30.812975" lon="34.766221"><ele>518</ele><name>TP02227</name><time>2020-03-15T21:27:25Z</time></trkpt>
   <trkpt lat="30.812908" lon="34.766147"><ele>518.6</ele><name>TP02228</name><time>2020-03-15T21:27:28Z</time></trkpt>
   <trkpt lat="30.812833" lon="34.766096"><ele>518.6</ele><name>TP02229</name><time>2020-03-15T21:27:31Z</time></trkpt>
   <trkpt lat="30.812732" lon="34.765994"><ele>519</ele><name>TP02230</name><time>2020-03-15T21:27:35Z</time></trkpt>
   <trkpt lat="30.812712" lon="34.76596"><ele>519.2</ele><name>TP02231</name><time>2020-03-15T21:27:36Z</time></trkpt>
   <trkpt lat="30.812597" lon="34.765765"><ele>520.4</ele><name>TP02232</name><time>2020-03-15T21:27:42Z</time></trkpt>
   <trkpt lat="30.81247" lon="34.765596"><ele>521</ele><name>TP02233</name><time>2020-03-15T21:27:47Z</time></trkpt>
   <trkpt lat="30.812348" lon="34.765398"><ele>521.4</ele><name>TP02234</name><time>2020-03-15T21:27:52Z</time></trkpt>
   <trkpt lat="30.812145" lon="34.765107"><ele>521.4</ele><name>TP02235</name><time>2020-03-15T21:28:00Z</time></trkpt>
   <trkpt lat="30.8119" lon="34.764848"><ele>521.2</ele><name>TP02236</name><time>2020-03-15T21:28:11Z</time></trkpt>
   <trkpt lat="30.811803" lon="34.764826"><ele>520.8</ele><name>TP02237</name><time>2020-03-15T21:28:14Z</time></trkpt>
   <trkpt lat="30.811728" lon="34.764827"><ele>520.6</ele><name>TP02238</name><time>2020-03-15T21:28:17Z</time></trkpt>
   <trkpt lat="30.811669" lon="34.764822"><ele>520</ele><name>TP02239</name><time>2020-03-15T21:28:19Z</time></trkpt>
   <trkpt lat="30.811638" lon="34.764832"><ele>519.8</ele><name>TP02240</name><time>2020-03-15T21:28:20Z</time></trkpt>
   <trkpt lat="30.811583" lon="34.764887"><ele>519</ele><name>TP02241</name><time>2020-03-15T21:28:22Z</time></trkpt>
   <trkpt lat="30.811509" lon="34.76498"><ele>517.8</ele><name>TP02242</name><time>2020-03-15T21:28:25Z</time></trkpt>
   <trkpt lat="30.811304" lon="34.765048"><ele>517</ele><name>TP02243</name><time>2020-03-15T21:28:32Z</time></trkpt>
   <trkpt lat="30.81112" lon="34.76497"><ele>516.8</ele><name>TP02244</name><time>2020-03-15T21:28:37Z</time></trkpt>
   <trkpt lat="30.81097" lon="34.765045"><ele>517</ele><name>TP02245</name><time>2020-03-15T21:28:41Z</time></trkpt>
   <trkpt lat="30.810914" lon="34.765117"><ele>517</ele><name>TP02246</name><time>2020-03-15T21:28:43Z</time></trkpt>
   <trkpt lat="30.810828" lon="34.765254"><ele>516.4</ele><name>TP02247</name><time>2020-03-15T21:28:47Z</time></trkpt>
   <trkpt lat="30.810793" lon="34.765334"><ele>517.2</ele><name>TP02248</name><time>2020-03-15T21:28:50Z</time></trkpt>
   <trkpt lat="30.81079" lon="34.765387"><ele>518</ele><name>TP02249</name><time>2020-03-15T21:28:52Z</time></trkpt>
   <trkpt lat="30.810796" lon="34.765442"><ele>518.4</ele><name>TP02250</name><time>2020-03-15T21:28:54Z</time></trkpt>
   <trkpt lat="30.810796" lon="34.765497"><ele>518.8</ele><name>TP02251</name><time>2020-03-15T21:28:56Z</time></trkpt>
   <trkpt lat="30.810789" lon="34.765523"><ele>519.2</ele><name>TP02252</name><time>2020-03-15T21:28:57Z</time></trkpt>
   <trkpt lat="30.810766" lon="34.765563"><ele>520</ele><name>TP02253</name><time>2020-03-15T21:28:59Z</time></trkpt>
   <trkpt lat="30.810752" lon="34.765578"><ele>520.6</ele><name>TP02254</name><time>2020-03-15T21:29:00Z</time></trkpt>
   <trkpt lat="30.810726" lon="34.765606"><ele>521.6</ele><name>TP02255</name><time>2020-03-15T21:29:02Z</time></trkpt>
   <trkpt lat="30.810726" lon="34.765606"><ele>522.4</ele><name>TP02256</name><time>2020-03-15T21:29:06Z</time></trkpt>
   <trkpt lat="30.810665" lon="34.766051"><ele>522.4</ele><name>TP02257</name><time>2020-03-15T21:29:21Z</time></trkpt>
   <trkpt lat="30.810146" lon="34.765897"><ele>522.4</ele><name>TP02258</name><time>2020-03-15T21:29:38Z</time></trkpt>
   <trkpt lat="30.810045" lon="34.765819"><ele>522.6</ele><name>TP02259</name><time>2020-03-15T21:29:41Z</time></trkpt>
   <trkpt lat="30.809789" lon="34.765582"><ele>522.2</ele><name>TP02260</name><time>2020-03-15T21:29:48Z</time></trkpt>
   <trkpt lat="30.809635" lon="34.765455"><ele>522.6</ele><name>TP02261</name><time>2020-03-15T21:29:52Z</time></trkpt>
   <trkpt lat="30.809469" lon="34.765354"><ele>522.6</ele><name>TP02262</name><time>2020-03-15T21:29:56Z</time></trkpt>
   <trkpt lat="30.809298" lon="34.765263"><ele>522.6</ele><name>TP02263</name><time>2020-03-15T21:30:00Z</time></trkpt>
   <trkpt lat="30.809214" lon="34.765214"><ele>522.8</ele><name>TP02264</name><time>2020-03-15T21:30:02Z</time></trkpt>
   <trkpt lat="30.809169" lon="34.765196"><ele>523</ele><name>TP02265</name><time>2020-03-15T21:30:03Z</time></trkpt>
   <trkpt lat="30.808869" lon="34.765128"><ele>523.2</ele><name>TP02266</name><time>2020-03-15T21:30:09Z</time></trkpt>
   <trkpt lat="30.808509" lon="34.764957"><ele>523.2</ele><name>TP02267</name><time>2020-03-15T21:30:16Z</time></trkpt>
   <trkpt lat="30.808256" lon="34.764873"><ele>523.6</ele><name>TP02268</name><time>2020-03-15T21:30:21Z</time></trkpt>
   <trkpt lat="30.808049" lon="34.764899"><ele>524</ele><name>TP02269</name><time>2020-03-15T21:30:25Z</time></trkpt>
   <trkpt lat="30.807863" lon="34.765004"><ele>525</ele><name>TP02270</name><time>2020-03-15T21:30:29Z</time></trkpt>
   <trkpt lat="30.807652" lon="34.765183"><ele>525.8</ele><name>TP02271</name><time>2020-03-15T21:30:34Z</time></trkpt>
   <trkpt lat="30.807609" lon="34.765219"><ele>526</ele><name>TP02272</name><time>2020-03-15T21:30:35Z</time></trkpt>
   <trkpt lat="30.807411" lon="34.765424"><ele>527.2</ele><name>TP02273</name><time>2020-03-15T21:30:40Z</time></trkpt>
   <trkpt lat="30.807357" lon="34.765507"><ele>528.4</ele><name>TP02274</name><time>2020-03-15T21:30:42Z</time></trkpt>
   <trkpt lat="30.807313" lon="34.765567"><ele>529.6</ele><name>TP02275</name><time>2020-03-15T21:30:44Z</time></trkpt>
   <trkpt lat="30.807196" lon="34.765728"><ele>530.2</ele><name>TP02276</name><time>2020-03-15T21:30:49Z</time></trkpt>
   <trkpt lat="30.807106" lon="34.765814"><ele>530.6</ele><name>TP02277</name><time>2020-03-15T21:30:52Z</time></trkpt>
   <trkpt lat="30.806981" lon="34.765984"><ele>531.6</ele><name>TP02278</name><time>2020-03-15T21:30:57Z</time></trkpt>
   <trkpt lat="30.806916" lon="34.766374"><ele>532.6</ele><name>TP02279</name><time>2020-03-15T21:31:06Z</time></trkpt>
   <trkpt lat="30.806788" lon="34.766732"><ele>533.6</ele><name>TP02280</name><time>2020-03-15T21:31:15Z</time></trkpt>
   <trkpt lat="30.806724" lon="34.766896"><ele>534</ele><name>TP02281</name><time>2020-03-15T21:31:19Z</time></trkpt>
   <trkpt lat="30.806668" lon="34.767317"><ele>534.2</ele><name>TP02282</name><time>2020-03-15T21:31:28Z</time></trkpt>
   <trkpt lat="30.806619" lon="34.767625"><ele>534</ele><name>TP02283</name><time>2020-03-15T21:31:34Z</time></trkpt>
   <trkpt lat="30.806614" lon="34.767967"><ele>534.4</ele><name>TP02284</name><time>2020-03-15T21:31:41Z</time></trkpt>
   <trkpt lat="30.806604" lon="34.768071"><ele>534.8</ele><name>TP02285</name><time>2020-03-15T21:31:43Z</time></trkpt>
   <trkpt lat="30.806555" lon="34.768268"><ele>535.8</ele><name>TP02286</name><time>2020-03-15T21:31:48Z</time></trkpt>
   <trkpt lat="30.806455" lon="34.768544"><ele>537</ele><name>TP02287</name><time>2020-03-15T21:31:55Z</time></trkpt>
   <trkpt lat="30.806356" lon="34.768756"><ele>536.6</ele><name>TP02288</name><time>2020-03-15T21:32:01Z</time></trkpt>
   <trkpt lat="30.806196" lon="34.768805"><ele>536</ele><name>TP02289</name><time>2020-03-15T21:32:05Z</time></trkpt>
   <trkpt lat="30.806146" lon="34.76881"><ele>535.4</ele><name>TP02290</name><time>2020-03-15T21:32:06Z</time></trkpt>
   <trkpt lat="30.806048" lon="34.768814"><ele>535</ele><name>TP02291</name><time>2020-03-15T21:32:08Z</time></trkpt>
   <trkpt lat="30.805806" lon="34.768854"><ele>536.4</ele><name>TP02292</name><time>2020-03-15T21:32:14Z</time></trkpt>
   <trkpt lat="30.805718" lon="34.768896"><ele>537.4</ele><name>TP02293</name><time>2020-03-15T21:32:17Z</time></trkpt>
   <trkpt lat="30.805566" lon="34.768948"><ele>539</ele><name>TP02294</name><time>2020-03-15T21:32:22Z</time></trkpt>
   <trkpt lat="30.805446" lon="34.769"><ele>540</ele><name>TP02295</name><time>2020-03-15T21:32:26Z</time></trkpt>
   <trkpt lat="30.80507" lon="34.769015"><ele>540.4</ele><name>TP02296</name><time>2020-03-15T21:32:38Z</time></trkpt>
   <trkpt lat="30.804848" lon="34.769031"><ele>540.2</ele><name>TP02297</name><time>2020-03-15T21:32:43Z</time></trkpt>
   <trkpt lat="30.804754" lon="34.769057"><ele>540.2</ele><name>TP02298</name><time>2020-03-15T21:32:45Z</time></trkpt>
   <trkpt lat="30.804449" lon="34.769113"><ele>539.8</ele><name>TP02299</name><time>2020-03-15T21:32:51Z</time></trkpt>
   <trkpt lat="30.804091" lon="34.768968"><ele>541</ele><name>TP02300</name><time>2020-03-15T21:32:59Z</time></trkpt>
   <trkpt lat="30.804047" lon="34.768948"><ele>541.2</ele><name>TP02301</name><time>2020-03-15T21:33:00Z</time></trkpt>
   <trkpt lat="30.803954" lon="34.768915"><ele>541.4</ele><name>TP02302</name><time>2020-03-15T21:33:02Z</time></trkpt>
   <trkpt lat="30.803447" lon="34.768646"><ele>540.4</ele><name>TP02303</name><time>2020-03-15T21:33:12Z</time></trkpt>
   <trkpt lat="30.802897" lon="34.768414"><ele>540.8</ele><name>TP02304</name><time>2020-03-15T21:33:22Z</time></trkpt>
   <trkpt lat="30.802361" lon="34.768215"><ele>541.2</ele><name>TP02305</name><time>2020-03-15T21:33:31Z</time></trkpt>
   <trkpt lat="30.801858" lon="34.767983"><ele>541</ele><name>TP02306</name><time>2020-03-15T21:33:39Z</time></trkpt>
   <trkpt lat="30.801749" lon="34.76793"><ele>541.2</ele><name>TP02307</name><time>2020-03-15T21:33:41Z</time></trkpt>
   <trkpt lat="30.801457" lon="34.767939"><ele>541.2</ele><name>TP02308</name><time>2020-03-15T21:33:46Z</time></trkpt>
   <trkpt lat="30.801112" lon="34.767824"><ele>541.2</ele><name>TP02309</name><time>2020-03-15T21:33:52Z</time></trkpt>
   <trkpt lat="30.80082" lon="34.767633"><ele>541</ele><name>TP02310</name><time>2020-03-15T21:33:57Z</time></trkpt>
   <trkpt lat="30.800334" lon="34.767329"><ele>540.6</ele><name>TP02311</name><time>2020-03-15T21:34:05Z</time></trkpt>
   <trkpt lat="30.799853" lon="34.766984"><ele>541</ele><name>TP02312</name><time>2020-03-15T21:34:13Z</time></trkpt>
   <trkpt lat="30.799276" lon="34.766882"><ele>541.4</ele><name>TP02313</name><time>2020-03-15T21:34:21Z</time></trkpt>
   <trkpt lat="30.799125" lon="34.7669"><ele>541.6</ele><name>TP02314</name><time>2020-03-15T21:34:23Z</time></trkpt>
   <trkpt lat="30.79879" lon="34.767085"><ele>542.6</ele><name>TP02315</name><time>2020-03-15T21:34:28Z</time></trkpt>
   <trkpt lat="30.798375" lon="34.767395"><ele>543.6</ele><name>TP02316</name><time>2020-03-15T21:34:35Z</time></trkpt>
   <trkpt lat="30.798182" lon="34.767496"><ele>543.8</ele><name>TP02317</name><time>2020-03-15T21:34:38Z</time></trkpt>
   <trkpt lat="30.79788" lon="34.767686"><ele>543.4</ele><name>TP02318</name><time>2020-03-15T21:34:43Z</time></trkpt>
   <trkpt lat="30.797625" lon="34.7677"><ele>542.8</ele><name>TP02319</name><time>2020-03-15T21:34:47Z</time></trkpt>
   <trkpt lat="30.797432" lon="34.767667"><ele>542.6</ele><name>TP02320</name><time>2020-03-15T21:34:50Z</time></trkpt>
   <trkpt lat="30.797116" lon="34.767565"><ele>542.6</ele><name>TP02321</name><time>2020-03-15T21:34:55Z</time></trkpt>
   <trkpt lat="30.796687" lon="34.767527"><ele>543.8</ele><name>TP02322</name><time>2020-03-15T21:35:02Z</time></trkpt>
   <trkpt lat="30.796625" lon="34.767514"><ele>544</ele><name>TP02323</name><time>2020-03-15T21:35:03Z</time></trkpt>
   <trkpt lat="30.796235" lon="34.767317"><ele>542.8</ele><name>TP02324</name><time>2020-03-15T21:35:10Z</time></trkpt>
   <trkpt lat="30.79613" lon="34.767261"><ele>542.8</ele><name>TP02325</name><time>2020-03-15T21:35:12Z</time></trkpt>
   <trkpt lat="30.795941" lon="34.767265"><ele>543.2</ele><name>TP02326</name><time>2020-03-15T21:35:16Z</time></trkpt>
   <trkpt lat="30.79558" lon="34.767386"><ele>543.8</ele><name>TP02327</name><time>2020-03-15T21:35:23Z</time></trkpt>
   <trkpt lat="30.795078" lon="34.767454"><ele>544.6</ele><name>TP02328</name><time>2020-03-15T21:35:31Z</time></trkpt>
   <trkpt lat="30.795015" lon="34.767474"><ele>545.2</ele><name>TP02329</name><time>2020-03-15T21:35:32Z</time></trkpt>
   <trkpt lat="30.794898" lon="34.767519"><ele>545.6</ele><name>TP02330</name><time>2020-03-15T21:35:34Z</time></trkpt>
   <trkpt lat="30.794792" lon="34.767569"><ele>545.6</ele><name>TP02331</name><time>2020-03-15T21:35:36Z</time></trkpt>
   <trkpt lat="30.794684" lon="34.767613"><ele>545.2</ele><name>TP02332</name><time>2020-03-15T21:35:38Z</time></trkpt>
   <trkpt lat="30.794147" lon="34.767811"><ele>545.6</ele><name>TP02333</name><time>2020-03-15T21:35:47Z</time></trkpt>
   <trkpt lat="30.793636" lon="34.768017"><ele>546</ele><name>TP02334</name><time>2020-03-15T21:35:56Z</time></trkpt>
   <trkpt lat="30.793584" lon="34.768043"><ele>546.2</ele><name>TP02335</name><time>2020-03-15T21:35:57Z</time></trkpt>
   <trkpt lat="30.793286" lon="34.768202"><ele>547.2</ele><name>TP02336</name><time>2020-03-15T21:36:03Z</time></trkpt>
   <trkpt lat="30.793234" lon="34.768219"><ele>547.2</ele><name>TP02337</name><time>2020-03-15T21:36:04Z</time></trkpt>
   <trkpt lat="30.793015" lon="34.768333"><ele>547.8</ele><name>TP02338</name><time>2020-03-15T21:36:09Z</time></trkpt>
   <trkpt lat="30.792933" lon="34.768444"><ele>548.4</ele><name>TP02339</name><time>2020-03-15T21:36:12Z</time></trkpt>
   <trkpt lat="30.792772" lon="34.768578"><ele>548</ele><name>TP02340</name><time>2020-03-15T21:36:18Z</time></trkpt>
   <trkpt lat="30.792641" lon="34.768635"><ele>548.6</ele><name>TP02341</name><time>2020-03-15T21:36:23Z</time></trkpt>
   <trkpt lat="30.792561" lon="34.768683"><ele>548.8</ele><name>TP02342</name><time>2020-03-15T21:36:27Z</time></trkpt>
   <trkpt lat="30.792496" lon="34.768715"><ele>548.6</ele><name>TP02343</name><time>2020-03-15T21:36:31Z</time></trkpt>
   <trkpt lat="30.792412" lon="34.768696"><ele>548.2</ele><name>TP02344</name><time>2020-03-15T21:36:35Z</time></trkpt>
   <trkpt lat="30.792366" lon="34.768682"><ele>548.2</ele><name>TP02345</name><time>2020-03-15T21:36:38Z</time></trkpt>
   <trkpt lat="30.79236" lon="34.768675"><ele>548.2</ele><name>TP02346</name><time>2020-03-15T21:36:40Z</time></trkpt>
   <trkpt lat="30.79236" lon="34.768671"><ele>548.4</ele><name>TP02347</name><time>2020-03-15T21:36:45Z</time></trkpt>
   <trkpt lat="30.79236" lon="34.768671"><ele>548.6</ele><name>TP02348</name><time>2020-03-15T21:36:48Z</time></trkpt>
   <trkpt lat="30.79236" lon="34.768671"><ele>548.6</ele><name>TP02349</name><time>2020-03-15T21:36:50Z</time></trkpt>
  </trkseg>
 </trk>
</gpx>
